GEFSSGP_con_probscp_000.txt.gz
Probability
0 0 0 0 0 0 0 0 0 0 0 0 0 0 0 0 0 0 0 0 0 0 0 0 0 0 0 0 0 0 0 0 0 0 0 0 0 0 0 0 0 0 0 0 0 0 0 0 0
0 0 0 0 0 0 0 0 0 0 0 0 0 0 0 0 0 0 0 0 0 0 0 0 0 0 0 0 0 0 0 0 0 0 0 0 0 0 0 0 0 0 0 0 0 0 0 0 0
0 0 0 0 0 0 0 0 0 0 0 0 0 0 0 0 0 0 0 0 0 0 0 0 0 0 0 0 0 0 0 0 0 0 0 0 0 0 0 0 0 0 0 0 0 0 0 0 0
0 0 0 0 0 0 0 0 0 0 0 0 0 0 0 0 0 0 0 0 0 0 0 0 0 0 0 0 0 0 0 0 0 0 0 0 0 0 0 0 0 0 0 0 0 0 0 0 0
0 0 0 0 0 0 0 0 0 0 0 0 0 0 0 0 0 0 0 0 0 0 0 0 0 0 0 0 0 0 0 0 0 0 0 0 0 0 0 0 0 0 0 0 0 0 0 0 0
0 0 0 0 0 0 0 0 0 0 0 0 0 0 0 0 0 0 0 0 0 0 0 0 0 0 0 0 0 0 0 0 0 0 0 0 0 0 0 0 0 0 0 0 0 0 0 0 0
0 0 0 0 0 0 0 0 0 0 0 0 0 0 0 0 0 0 0 0 0 0 0 0 0 0 0 0 0 0 0 0 0 0 0 0 0 0 0 0 0 0 0 0 0 0 0 0 0
0 0 0 0 0 0 0 0 0 0 0 0 0 0 0 1 2 1 0 0 0 0 0 0 0 0 0 0 0 0 0 0 0 0 0 0 0 0 0 0 0 0 0 0 0 0 0 0 0
0 0 0 0 0 0 0 0 0 0 0 0 0 0 1 4 6 4 1 0 0 0 0 0 0 0 0 0 0 0 0 0 0 0 0 0 0 0 0 1 1 0 0 0 0 0 0 0 0
0 0 0 0 0 0 0 0 0 0 0 0 0 0 1 5 9 7 2 0 0 0 0 0 0 0 0 0 0 0 0 0 0 0 0 0 0 0 0 2 2 1 0 0 0 0 0 0 0
0 0 0 0 0 0 0 0 0 0 0 0 0 0 1 4 6 6 3 0 0 0 0 0 0 0 0 0 0 0 0 0 0 0 0 0 0 0 0 1 1 0 0 0 0 0 0 0 0
0 0 0 0 0 0 0 0 0 0 0 0 0 1 2 3 2 2 2 2 2 1 0 0 0 0 2 4 3 1 0 0 0 0 0 0 0 0 0 0 0 0 0 0 0 0 0 0 0
0 0 0 0 0 0 0 0 0 0 0 0 0 3 5 4 3 9 17 19 14 7 2 0 1 1 4 8 5 1 1 1 1 0 1 2 1 0 0 0 0 1 0 0 0 0 0 0 0
0 0 0 0 0 0 0 0 0 1 0 5 15 27 32 30 31 42 55 55 44 31 18 8 3 2 4 5 3 1 1 1 2 2 4 8 8 5 2 1 0 0 1 2 2 1 0 0 0
0 0 0 0 0 0 0 2 8 11 12 25 51 70 76 76 76 83 88 85 78 70 56 40 30 27 23 14 7 3 2 3 5 11 18 21 17 11 6 2 0 0 1 4 3 1 0 0 0
0 0 0 0 0 0 0 10 29 40 42 60 83 95 98 96 93 93 95 96 96 95 89 81 75 71 62 48 35 27 22 19 19 28 43 47 36 24 14 6 2 3 3 3 2 0 0 0 0
0 0 0 0 0 0 1 18 53 72 76 87 95 93 86 74 65 65 73 85 94 98 97 95 93 90 86 81 74 67 59 50 46 55 69 75 64 48 30 15 7 7 11 17 18 11 4 1 0
0 0 0 0 0 0 1 21 59 85 92 96 96 83 59 39 27 26 35 50 65 73 74 73 71 73 80 90 93 90 83 77 76 79 84 84 75 62 50 38 26 17 24 45 48 26 9 2 1
0 0 0 0 0 0 1 14 40 64 74 80 86 75 44 18 7 5 9 18 25 31 33 35 37 46 66 87 95 93 89 86 85 85 82 74 60 52 59 67 59 40 40 59 56 29 8 2 0
0 0 0 0 0 0 0 4 13 24 33 43 55 58 41 17 4 2 4 6 6 6 7 9 13 25 51 79 93 91 83 75 72 73 72 62 44 38 53 74 81 66 49 46 38 18 5 1 0
0 0 0 0 0 0 0 0 0 2 5 10 18 26 25 12 3 1 2 3 3 4 4 5 7 14 31 54 68 65 54 45 45 52 56 49 31 24 33 50 63 58 37 25 17 7 2 0 0
0 0 0 0 0 0 0 0 0 0 0 0 1 4 5 3 1 0 0 0 0 3 8 10 10 11 14 21 27 24 18 15 17 27 35 31 17 9 11 17 24 23 15 8 5 1 0 0 0
0 0 0 0 0 0 0 0 0 0 0 0 0 0 0 0 0 0 0 0 0 3 9 13 15 13 8 5 4 3 2 2 3 10 15 15 8 3 1 1 2 2 2 1 1 0 0 0 0
0 0 0 0 0 0 0 0 0 0 0 0 0 0 0 0 0 0 0 0 0 1 4 7 10 10 7 3 2 2 3 3 3 5 7 6 5 4 3 2 1 1 0 0 0 0 0 0 0
0 0 0 0 0 0 0 0 0 0 0 0 0 0 0 0 0 0 0 0 0 0 0 0 2 3 2 1 1 1 4 7 7 5 3 3 3 5 5 2 1 1 0 0 0 0 0 0 0
0 0 0 0 0 0 0 0 0 0 0 0 0 0 0 0 0 0 0 0 0 0 1 3 4 2 0 0 1 1 6 12 11 5 1 1 1 3 3 1 0 0 0 0 0 0 0 0 0
0 0 0 0 0 0 0 0 0 0 0 0 0 0 0 0 0 0 0 0 0 0 2 7 9 4 0 0 3 7 11 13 9 3 0 0 0 0 0 0 0 0 0 0 0 0 0 0 0
0 0 0 0 0 0 0 0 0 0 0 0 0 0 0 0 0 0 0 0 0 0 2 6 6 2 0 0 3 10 14 10 4 1 0 0 0 0 0 0 0 0 0 0 0 0 0 0 0
0 0 0 0 0 0 0 0 0 0 0 0 0 0 0 0 0 0 0 0 0 0 2 2 1 0 0 0 2 6 7 4 1 0 0 0 0 0 0 0 0 0 0 0 0 0 0 0 0
0 0 0 0 0 0 0 0 0 0 0 0 0 0 0 0 0 0 0 0 0 0 1 1 0 0 0 0 0 1 1 1 0 0 0 0 0 0 0 0 0 0 0 0 0 0 0 0 0

GEFSSGP_con_probscp_006.txt.gz
Probability
0 0 0 0 0 0 0 0 0 0 0 0 0 0 0 0 0 0 0 0 0 0 0 0 0 0 0 0 0 0 0 0 0 0 0 0 0 0 0 0 0 0 0 0 0 0 0 0 0
0 0 0 0 0 0 0 0 0 0 0 0 0 0 0 0 0 0 0 0 0 0 0 0 0 0 0 0 0 0 0 0 0 0 0 0 0 0 0 0 0 0 0 0 0 0 0 0 0
0 0 0 0 0 0 0 0 0 0 0 0 0 0 0 0 0 0 0 0 0 0 0 0 0 0 0 0 0 0 0 0 0 0 0 0 0 0 0 0 0 0 0 0 0 0 0 0 0
0 0 0 0 0 0 0 0 0 0 0 0 0 0 0 0 0 0 0 0 0 0 0 0 0 0 0 0 0 0 0 0 0 0 0 0 0 0 0 0 0 0 0 0 0 0 0 0 0
0 0 0 0 0 0 0 0 0 0 0 0 0 0 0 0 0 0 0 0 0 0 0 0 0 0 0 0 0 0 0 0 0 0 0 0 0 0 0 0 0 0 0 0 0 0 0 0 0
0 0 0 0 0 0 0 0 0 0 0 0 0 0 0 0 0 0 0 1 0 0 0 0 0 0 1 1 0 0 0 0 0 0 0 0 0 0 0 0 0 0 0 0 0 0 0 0 0
0 0 0 0 0 0 0 0 0 0 0 0 0 0 0 0 0 0 0 1 2 2 1 0 0 0 1 1 0 0 0 0 0 0 0 0 0 0 0 0 0 0 0 0 0 0 0 0 0
0 0 0 0 0 0 0 0 0 0 0 0 0 0 0 0 0 0 0 3 11 13 7 2 0 0 1 1 0 0 0 0 0 0 0 0 0 1 1 1 1 0 0 2 3 3 1 1 0
0 0 0 0 0 0 0 0 0 0 0 0 3 7 7 3 0 0 0 6 25 34 21 5 0 0 0 0 0 0 0 0 0 0 1 1 1 2 6 9 9 8 11 17 21 18 10 4 1
0 0 0 0 0 0 0 0 0 0 0 0 9 24 25 9 0 0 0 7 34 57 40 12 7 8 4 4 7 4 1 2 2 4 8 9 5 3 13 29 34 32 34 35 36 32 18 6 2
0 0 0 0 0 0 0 0 0 0 0 0 14 39 42 20 3 0 3 17 49 74 62 34 31 36 23 17 24 17 10 13 17 22 30 28 17 9 21 51 68 66 58 47 43 40 26 11 6
0 0 0 0 0 0 0 0 0 0 0 1 15 42 53 36 15 11 21 44 73 89 83 69 68 72 59 47 51 48 38 41 49 58 62 54 40 25 34 67 87 83 73 65 62 59 45 25 15
0 0 0 0 0 0 0 0 0 0 0 2 14 37 55 52 39 37 53 75 92 98 96 93 93 94 89 82 82 82 77 77 82 86 85 79 69 56 58 80 93 83 73 77 83 81 70 52 43
0 0 0 0 0 0 0 0 0 0 3 10 24 44 62 71 70 71 81 92 98 100 100 100 100 100 100 99 99 99 98 97 96 94 93 93 90 85 85 93 96 86 73 74 85 90 88 82 78
0 0 0 0 0 0 0 0 0 1 10 26 47 67 82 90 92 93 95 97 99 100 99 99 99 100 100 100 100 100 100 100 98 96 95 97 99 98 99 100 100 95 87 83 87 93 96 96 95
0 0 0 0 0 0 0 0 0 3 17 42 64 82 95 100 100 100 100 100 100 100 99 98 98 99 100 100 99 99 100 99 99 99 98 99 100 100 100 100 100 100 98 96 95 96 96 96 94
0 0 0 0 0 0 0 0 1 5 20 44 65 81 94 99 100 100 100 99 97 96 97 97 96 97 98 99 98 99 99 99 99 99 99 100 100 100 100 100 100 100 100 100 99 99 98 98 97
0 0 0 0 0 0 0 0 2 5 14 31 54 78 93 96 96 97 97 96 93 92 95 96 95 93 95 96 97 98 99 99 99 99 99 100 100 100 100 99 99 99 99 100 100 100 100 100 100
0 0 0 0 0 0 0 0 1 2 7 19 45 78 94 92 88 81 77 78 82 87 92 95 95 93 92 93 95 97 98 99 99 99 99 100 100 99 98 95 94 95 97 99 100 100 100 100 100
0 0 0 0 0 0 0 0 0 3 14 31 55 81 94 93 79 56 42 43 53 69 79 83 88 93 93 92 91 92 94 97 97 97 98 99 99 98 95 92 89 89 92 95 98 99 99 99 99
0 0 0 0 0 0 0 0 1 12 37 59 66 69 75 73 58 31 14 13 21 36 50 61 79 92 94 89 81 77 80 84 89 94 97 98 97 96 91 86 85 86 87 91 96 98 97 94 91
0 0 0 0 0 0 0 0 4 24 56 64 47 35 34 32 24 11 4 3 5 11 21 37 63 85 91 87 76 67 64 65 71 82 91 95 96 91 83 78 81 85 86 87 89 88 85 76 66
0 0 0 0 0 0 0 0 5 26 48 40 18 7 6 4 2 1 1 1 1 2 5 15 37 66 84 88 84 76 69 62 60 67 77 88 92 84 72 68 74 81 80 76 71 66 58 45 33
0 0 0 0 0 0 0 0 4 16 24 18 6 1 0 0 0 0 0 0 0 0 1 5 22 52 79 89 88 84 79 72 67 66 72 82 85 76 63 57 63 71 70 61 52 42 29 19 12
0 0 0 0 0 0 0 0 2 6 10 8 3 1 0 0 0 0 1 1 0 1 3 12 33 58 73 75 72 69 67 65 66 71 78 83 79 70 57 46 47 54 55 47 36 23 13 6 4
0 0 0 0 0 0 0 0 1 3 4 3 1 0 0 0 0 1 2 2 1 4 12 29 50 59 53 45 43 42 41 40 46 62 77 80 69 55 44 33 28 29 29 25 17 9 4 2 1
0 0 0 0 0 0 0 0 1 2 1 0 0 0 0 0 0 0 1 1 2 9 25 40 47 42 28 18 16 18 18 18 24 41 58 60 46 31 23 17 12 10 7 6 3 2 1 0 0
0 0 0 0 0 0 0 0 0 1 0 0 0 0 0 0 0 0 0 0 2 13 29 35 31 25 16 6 3 4 5 7 11 20 28 28 20 12 8 6 4 2 0 0 0 0 0 0 0
0 0 0 0 0 0 0 0 0 0 0 0 0 0 0 0 0 0 0 0 2 11 22 24 20 18 13 6 2 1 1 1 2 5 7 6 4 4 4 3 2 1 0 0 0 0 0 0 0
0 0 0 0 0 0 0 0 0 0 0 0 0 0 0 0 0 0 0 0 2 8 16 16 14 15 13 7 4 1 0 0 0 0 1 0 0 1 1 1 1 0 0 0 0 0 0 0 0

GEFSSGP_con_probscp_012.txt.gz
Probability
0 0 0 0 0 0 0 0 0 0 0 0 0 0 0 0 0 0 0 0 0 0 0 0 0 0 0 0 0 0 0 0 0 0 0 0 0 0 0 0 0 0 0 0 0 0 0 0 0
0 0 0 0 0 0 0 0 0 0 0 0 0 0 0 0 0 0 0 0 0 0 0 0 0 0 0 0 0 0 0 0 0 0 0 0 0 0 0 0 0 0 0 0 0 0 0 0 0
0 0 0 0 0 0 0 0 0 0 0 0 0 0 0 0 0 0 0 0 0 0 0 0 0 0 0 0 0 0 0 0 0 0 0 0 0 0 0 0 0 0 0 0 0 0 0 0 0
0 0 0 0 0 0 0 0 0 0 0 0 0 0 0 0 0 0 0 0 0 0 0 0 0 0 0 0 0 0 0 0 0 0 0 0 0 0 0 0 0 0 0 0 0 0 0 0 0
0 0 0 0 0 0 0 0 0 0 0 0 0 0 0 0 0 0 0 0 0 0 0 1 1 1 0 1 1 0 0 0 0 0 0 0 0 0 0 0 0 0 0 0 0 0 0 0 0
0 0 0 0 0 0 0 0 0 0 0 0 0 0 0 0 0 0 0 0 0 0 0 1 3 2 2 3 2 0 0 0 0 0 0 0 0 0 0 0 0 0 0 0 0 0 0 0 0
0 0 0 0 0 0 0 0 0 0 0 0 0 0 0 0 0 0 0 0 0 0 0 1 2 2 2 2 1 0 0 0 0 0 0 0 0 0 0 0 0 0 0 0 0 0 0 0 0
0 0 0 0 0 0 0 0 0 0 0 0 0 0 0 0 0 0 0 0 0 0 0 0 0 1 1 1 1 1 1 0 0 0 0 0 0 0 0 0 0 0 0 0 0 0 0 0 0
0 0 0 0 0 0 0 0 0 2 5 5 2 0 0 0 1 1 1 1 0 0 0 0 0 0 1 2 2 2 2 1 0 0 0 0 0 0 0 0 0 0 0 0 0 0 0 0 0
0 0 0 0 0 0 0 0 0 3 10 11 4 0 0 0 2 6 10 10 5 1 0 0 0 1 3 4 4 3 2 1 0 0 0 0 0 0 0 0 0 0 0 0 0 0 0 0 0
0 0 0 0 0 0 0 0 0 2 7 9 5 1 0 0 2 11 27 35 28 15 7 3 2 2 3 4 3 3 2 2 3 3 2 1 1 0 0 0 0 0 2 3 2 1 0 0 0
0 0 0 0 0 0 0 0 0 1 5 9 9 5 2 0 2 12 36 61 63 47 29 19 16 11 5 2 4 7 8 9 11 11 9 11 13 10 6 3 2 5 13 19 15 7 2 0 0
0 0 0 0 0 0 0 0 1 7 22 34 32 20 10 5 5 13 38 72 86 75 58 50 49 37 19 12 17 24 25 24 26 29 29 34 40 38 31 23 15 16 30 41 36 21 8 2 1
0 0 0 0 0 0 0 0 5 24 55 73 69 54 40 30 27 31 50 76 92 90 82 80 81 70 47 36 42 52 55 50 49 56 59 63 68 70 66 59 45 38 44 52 50 37 21 11 6
0 0 0 0 0 0 0 2 14 44 79 95 94 87 78 71 66 66 73 85 94 97 95 95 96 91 76 65 68 75 76 68 61 58 60 66 75 80 83 81 70 61 60 63 62 56 46 33 23
0 0 0 0 0 0 1 6 23 54 84 97 100 99 98 96 94 92 93 95 98 99 99 99 99 98 91 82 77 72 65 53 39 30 30 39 54 63 70 74 73 74 79 81 79 77 72 60 48
0 0 0 0 0 0 1 6 21 46 73 90 97 99 98 99 99 99 99 99 100 100 99 98 94 86 76 68 59 47 35 24 14 10 12 20 33 46 60 70 75 83 91 92 90 89 85 75 65
0 0 0 0 0 0 1 4 10 27 54 79 94 98 98 97 94 92 94 96 98 99 97 89 74 56 43 38 33 23 14 9 7 9 13 23 36 53 70 80 84 89 92 93 91 89 85 76 68
0 0 0 0 0 0 0 1 3 12 34 65 89 99 99 94 83 74 74 79 84 86 81 68 48 27 19 20 18 12 7 5 4 6 13 25 43 63 77 84 85 85 86 88 88 85 78 70 65
0 0 0 0 0 0 0 0 0 5 22 52 84 99 98 86 64 47 43 48 53 53 49 42 31 22 19 20 16 9 4 3 2 4 10 19 34 51 64 72 73 74 77 78 77 74 66 57 54
0 0 0 0 0 0 0 0 0 4 19 50 81 94 86 64 38 22 19 21 22 22 21 23 26 29 31 30 23 12 3 1 2 4 7 11 18 28 40 51 56 60 62 60 55 51 47 40 36
0 0 0 0 0 0 0 0 0 3 17 42 63 68 56 35 17 9 9 9 8 8 9 13 21 31 37 37 30 14 3 1 3 4 5 5 6 11 18 26 33 38 39 36 29 24 24 23 21
0 0 0 0 0 0 0 0 0 2 9 19 28 29 22 13 7 5 6 7 6 5 4 6 11 20 28 32 27 13 3 1 3 4 3 2 2 3 6 9 13 17 18 16 11 8 9 11 11
0 0 0 0 0 0 0 0 0 1 2 3 4 5 4 3 3 3 4 5 4 2 1 1 4 9 16 20 17 9 3 1 1 1 1 1 0 0 1 2 3 5 6 6 3 2 2 3 4
0 0 0 0 0 0 0 0 0 0 0 0 0 0 0 0 1 1 1 1 1 0 0 1 4 7 9 9 7 4 2 0 0 0 0 0 0 0 1 1 1 1 1 1 0 0 0 1 1
0 0 0 0 0 0 0 0 0 0 0 0 0 0 0 0 0 0 0 0 0 0 0 2 4 5 4 4 3 2 1 0 0 0 0 0 0 0 0 0 0 0 0 0 0 0 0 0 0
0 0 0 0 0 0 0 0 0 0 0 0 0 0 0 0 0 0 0 0 0 0 0 1 2 2 1 1 2 1 0 0 0 0 0 0 0 0 0 0 0 0 0 0 0 0 0 1 1
0 0 0 0 0 0 0 0 0 0 0 0 0 0 0 0 0 0 0 0 0 0 0 1 1 0 0 0 0 0 0 0 0 0 0 0 0 0 0 0 0 0 0 0 0 0 0 0 0
0 0 0 0 0 0 0 0 0 0 0 0 0 0 0 0 0 0 0 0 0 0 0 1 1 0 0 0 0 0 0 0 0 0 0 0 0 0 0 0 0 0 0 0 0 0 0 0 0
0 0 0 0 0 0 0 0 0 0 0 0 0 0 0 0 0 0 0 0 0 0 0 1 1 0 0 0 0 0 0 0 0 0 0 0 0 0 0 0 0 0 0 0 0 0 0 0 0

GEFSSGP_con_probscp_018.txt.gz
Probability
0 0 0 0 0 0 0 0 0 0 0 0 0 0 0 0 0 0 0 0 0 0 0 0 0 0 0 0 0 0 0 0 0 0 0 0 0 0 0 0 0 0 0 0 0 0 0 0 0
0 0 0 0 0 0 0 0 0 0 0 0 0 0 0 0 0 0 0 0 0 0 0 0 0 0 0 0 0 0 0 0 0 0 0 0 0 0 0 0 0 0 0 0 0 0 0 0 0
0 0 0 0 0 0 0 0 0 0 0 0 0 0 0 0 0 0 0 0 0 0 0 0 0 0 0 0 0 0 0 0 0 0 0 0 0 0 0 0 0 0 0 0 0 0 0 0 0
0 0 0 0 0 0 0 0 0 0 0 0 0 0 0 0 0 0 0 0 0 0 0 0 0 0 0 0 0 0 0 0 0 0 0 0 0 0 0 0 0 0 0 0 0 0 0 0 0
0 0 0 0 0 0 0 0 0 0 0 0 0 0 0 0 0 0 0 0 0 0 0 0 0 0 0 0 0 0 0 0 0 0 0 0 0 0 0 0 0 0 0 0 0 0 0 0 0
0 0 0 0 0 0 0 0 0 0 0 0 0 0 0 0 0 0 0 0 0 0 0 0 0 0 0 0 0 0 0 0 0 0 0 0 0 0 0 0 0 0 0 0 0 0 0 0 0
0 0 0 0 0 0 0 0 0 0 0 0 0 0 0 0 0 0 0 0 0 0 0 0 0 0 0 0 0 0 0 0 0 0 0 0 0 0 0 0 0 0 0 0 0 0 0 0 0
0 0 0 0 0 0 0 0 0 0 0 0 0 0 0 0 0 0 0 0 0 0 0 0 0 0 1 1 1 1 0 0 0 0 0 0 0 0 0 0 0 0 0 0 0 0 0 0 0
0 0 0 0 0 0 0 0 0 0 0 0 0 0 0 0 0 0 0 0 0 0 0 0 0 2 4 6 7 8 6 4 3 3 2 0 0 0 0 0 0 0 0 0 0 0 0 0 0
0 0 0 0 0 0 0 0 0 0 0 0 0 0 0 0 0 0 0 0 0 0 0 1 2 6 16 23 24 26 25 21 17 13 8 5 2 1 0 0 0 0 0 0 0 0 0 1 2
0 0 0 0 0 0 0 0 0 0 0 0 0 0 0 0 0 0 0 0 0 0 0 2 4 10 27 41 41 42 45 43 36 28 23 21 14 7 2 1 1 3 2 1 0 0 1 4 8
0 0 0 0 0 0 0 0 0 0 0 2 5 6 3 1 0 0 0 0 0 0 0 1 2 8 24 37 38 40 49 52 47 42 45 50 44 31 18 11 10 11 10 9 7 7 5 8 13
0 0 0 0 0 0 0 0 0 1 4 13 22 18 8 2 0 0 0 0 0 0 0 0 1 5 14 20 21 24 35 42 42 45 59 75 78 67 50 36 27 25 28 30 30 27 20 17 17
0 0 0 0 0 0 0 1 3 8 19 34 41 31 16 6 2 1 2 4 5 4 1 0 3 8 12 11 8 10 19 26 31 38 54 74 86 84 73 58 45 44 51 57 57 49 39 30 27
0 0 0 0 0 0 1 3 9 23 43 58 56 43 28 15 7 6 11 19 24 22 15 10 13 19 20 15 12 12 16 23 30 37 45 58 71 76 75 66 57 60 71 76 72 62 52 45 42
0 0 0 0 0 0 1 7 21 44 68 78 72 59 46 33 23 19 28 44 55 55 48 40 39 40 36 29 26 28 29 33 40 43 44 47 56 64 67 65 63 70 82 88 82 74 68 63 60
0 0 0 0 0 1 4 16 40 67 85 89 85 75 66 59 52 48 54 68 80 83 79 71 64 56 45 34 30 30 29 31 36 38 37 39 45 54 61 64 67 75 87 93 90 87 83 78 75
0 0 0 0 0 1 7 22 47 71 84 86 84 82 80 80 78 74 75 79 82 82 76 67 56 44 31 22 17 14 11 13 17 19 21 24 29 39 49 56 63 73 81 85 86 85 85 84 83
0 0 0 0 0 1 5 15 29 46 58 64 71 81 88 89 85 78 72 67 61 53 46 37 27 18 12 8 5 3 1 2 4 6 8 10 13 20 27 35 45 56 62 66 70 73 76 80 82
0 0 0 0 0 0 2 4 8 14 22 33 53 77 90 88 75 59 45 36 29 23 18 14 9 6 6 5 3 3 2 2 3 3 2 2 3 6 10 15 24 34 40 45 51 57 64 69 70
0 0 0 0 0 0 0 0 0 2 8 21 45 71 80 71 52 32 18 12 8 6 5 6 7 8 9 7 6 6 5 3 2 2 1 0 0 1 2 5 10 18 24 29 33 42 53 60 61
0 0 0 0 0 0 0 0 0 3 12 25 40 52 54 40 23 10 4 2 1 1 2 5 7 9 9 7 6 7 5 3 1 1 0 0 0 0 0 1 3 8 12 15 19 28 43 54 58
0 0 0 0 0 0 0 0 0 2 10 19 23 25 22 13 5 2 0 0 0 0 1 3 4 4 4 3 3 3 2 1 0 0 0 0 0 0 0 0 0 2 5 7 9 13 25 40 47
0 0 0 0 0 0 0 0 0 1 3 5 5 5 4 2 0 0 0 0 0 0 0 0 0 0 0 0 0 0 0 0 0 0 0 0 0 0 0 0 0 0 2 3 3 3 9 19 24
0 0 0 0 0 0 0 0 0 0 0 0 0 0 0 0 0 0 0 0 0 0 0 0 0 0 0 0 0 0 0 0 0 0 0 0 0 0 0 0 0 0 0 0 0 0 2 5 7
0 0 0 0 0 0 0 0 0 0 0 0 0 0 0 0 0 0 0 0 0 0 0 0 0 0 0 0 0 0 0 0 0 0 0 0 0 0 0 0 0 0 0 0 0 0 0 1 1
0 0 0 0 0 0 0 0 0 0 0 0 0 0 0 0 0 0 0 0 0 0 0 0 0 0 0 0 0 0 0 0 0 0 0 0 0 0 0 0 0 0 0 0 0 0 0 0 0
0 0 0 0 0 0 0 0 0 0 0 0 0 0 0 0 0 0 0 0 0 0 0 0 0 0 0 0 0 0 0 0 0 0 0 0 0 0 0 0 0 0 0 0 0 0 0 0 0
0 0 0 0 0 0 0 0 0 0 0 0 0 0 0 0 0 0 0 0 0 0 0 0 0 0 0 0 0 0 0 0 0 0 0 0 0 0 0 0 0 0 0 0 0 0 0 0 0
0 0 0 0 0 0 0 0 0 0 0 0 0 0 0 0 0 0 0 0 0 0 0 0 0 0 0 0 0 0 0 0 0 0 0 0 0 0 0 0 0 0 0 0 0 0 0 0 0

GEFSSGP_con_probscp_024.txt.gz
Probability
0 0 0 0 0 0 0 0 0 0 0 0 0 0 0 0 0 0 0 0 0 0 0 0 0 0 0 0 0 0 0 0 0 0 0 0 0 0 0 0 0 0 0 0 0 0 0 0 0
0 0 0 0 0 0 0 0 0 0 0 0 0 0 0 0 0 0 0 0 0 0 0 0 0 0 0 0 0 0 0 0 0 0 0 0 0 0 0 0 0 0 0 0 0 0 0 0 0
0 0 0 0 0 0 0 0 0 0 0 0 0 0 0 0 0 0 0 0 0 0 0 0 0 0 0 0 0 0 0 0 0 0 0 0 0 0 0 0 0 0 0 0 0 0 0 0 0
0 0 0 0 0 0 0 0 0 0 0 0 0 0 0 0 0 0 0 0 0 0 0 0 0 0 0 0 0 0 0 0 0 0 0 0 0 0 0 0 0 0 0 0 0 0 0 0 0
0 0 0 0 0 0 0 0 0 0 0 0 0 0 0 0 0 0 0 0 0 0 0 0 0 0 0 0 0 0 0 0 0 0 0 0 0 0 0 0 0 0 0 0 0 0 0 0 0
0 0 0 0 0 0 0 0 0 0 0 0 0 0 0 0 0 0 0 0 0 0 0 0 0 0 0 0 0 0 0 0 0 0 0 0 0 0 0 0 0 0 0 0 0 0 0 0 0
0 0 0 0 0 0 0 0 0 0 0 0 0 0 0 0 0 0 0 0 0 0 0 0 0 0 0 0 0 0 0 0 0 0 0 0 0 0 0 0 0 0 0 0 0 0 0 0 0
0 0 0 0 0 0 0 0 0 0 0 0 0 0 0 0 0 0 0 0 0 0 0 0 0 0 0 0 0 0 0 0 0 0 0 0 0 0 0 0 0 0 0 0 0 0 0 0 0
0 0 0 0 0 0 0 0 0 0 0 0 0 0 0 0 0 0 0 0 0 0 0 0 0 0 0 0 0 0 0 0 0 0 0 0 0 0 0 2 2 1 0 0 0 0 0 0 0
0 0 0 0 0 0 0 0 0 0 0 0 0 0 1 2 2 0 0 1 0 0 0 0 1 1 1 0 0 0 2 3 2 1 2 3 2 1 2 5 7 4 1 0 0 0 0 0 0
0 0 0 0 0 0 0 0 0 0 0 0 2 6 9 9 5 2 0 0 0 0 0 0 2 4 5 4 4 4 7 10 8 6 12 21 25 24 22 22 21 14 10 8 8 6 4 4 5
0 0 0 0 0 0 0 0 0 0 0 3 14 28 31 20 9 4 1 1 0 0 0 0 3 8 13 12 9 9 11 13 14 19 33 50 63 62 58 55 48 41 36 33 30 26 22 21 21
0 0 0 0 0 0 0 0 0 0 2 11 33 56 55 35 19 11 7 4 2 0 0 1 4 11 19 20 15 10 9 8 15 28 42 59 73 74 70 68 66 63 61 60 58 53 49 46 43
0 0 0 0 0 0 0 0 0 0 3 18 46 69 69 52 37 27 18 11 6 4 4 5 7 12 21 24 20 13 9 8 13 20 26 36 47 48 47 49 55 61 68 75 76 70 66 65 63
0 0 0 0 0 0 0 0 0 0 4 22 52 75 77 68 55 40 27 17 11 11 15 15 14 18 25 29 25 20 15 11 11 11 9 12 18 21 23 27 36 51 66 78 82 79 77 77 78
0 0 0 0 0 0 0 1 3 3 7 27 60 82 86 79 65 47 29 18 15 21 31 33 28 31 37 37 32 25 17 11 8 7 3 3 6 9 13 18 25 38 55 68 76 82 86 87 88
0 0 0 0 0 0 0 3 8 10 14 32 63 84 89 84 73 54 36 26 26 35 47 51 48 49 48 43 34 22 14 9 6 4 2 2 3 5 8 11 14 20 31 44 57 71 83 89 91
0 0 0 0 0 0 0 4 11 17 22 37 61 79 85 83 78 68 54 47 49 55 62 62 59 56 49 37 24 14 7 5 3 3 3 2 2 3 4 5 5 7 12 21 34 50 64 74 81
0 0 0 0 0 0 0 2 8 14 21 34 53 69 75 76 80 81 76 72 73 73 69 61 52 46 37 28 18 9 3 1 1 1 1 1 2 3 3 2 1 2 4 9 17 28 37 47 56
0 0 0 0 0 0 0 1 3 6 12 22 37 53 64 73 84 89 87 84 80 75 65 51 41 33 29 30 26 17 8 3 1 1 1 2 2 3 3 2 0 0 2 4 7 13 17 23 30
0 0 0 0 0 0 0 0 0 1 4 12 25 41 56 73 86 89 85 78 70 62 52 42 37 36 38 44 42 29 16 5 1 1 3 3 2 1 1 1 0 0 1 1 4 7 10 13 16
0 0 0 0 0 0 0 0 0 1 5 12 24 38 54 70 82 84 78 69 60 50 40 34 36 44 55 64 60 43 23 9 2 1 2 3 2 1 0 0 0 0 0 0 2 4 7 10 11
0 0 0 0 0 0 0 0 0 2 6 14 27 42 55 64 70 70 65 59 53 46 35 28 35 48 63 74 75 60 38 20 11 6 3 2 3 2 1 0 0 0 0 0 1 2 5 8 9
0 0 0 0 0 0 0 0 0 1 3 11 23 36 45 47 45 44 42 41 41 40 34 31 39 54 65 75 81 76 61 44 30 18 8 3 3 2 1 0 0 0 0 0 0 2 3 4 6
0 0 0 0 0 0 0 0 0 0 1 5 11 17 22 22 18 16 17 20 23 26 28 34 47 59 67 74 81 82 77 64 47 29 13 4 2 1 0 0 0 0 0 0 0 2 3 3 3
0 0 0 0 0 0 0 0 0 0 0 1 2 3 4 4 3 3 4 5 7 9 15 29 45 56 62 68 76 81 80 70 56 41 24 12 6 3 1 1 0 0 0 0 0 1 3 3 2
0 0 0 0 0 0 0 0 1 1 0 0 0 0 0 0 0 0 0 0 0 1 6 15 28 39 46 53 61 69 72 68 62 55 43 28 18 11 6 3 1 0 0 0 0 0 1 2 2
0 0 0 0 0 0 0 1 3 3 1 0 0 0 0 0 0 0 0 0 0 0 1 4 9 16 22 29 38 47 55 60 63 62 56 45 33 23 15 8 3 0 0 0 0 0 0 1 1
0 0 0 0 0 0 0 1 2 2 0 0 0 0 0 0 0 0 0 0 0 0 0 0 1 2 5 8 15 23 33 44 52 55 56 52 45 35 23 13 5 1 0 0 0 0 0 0 0
0 0 0 0 0 0 0 0 1 0 0 0 0 0 0 0 0 0 0 0 0 0 0 0 0 0 0 1 4 8 18 31 41 48 52 52 50 41 27 16 7 2 0 0 0 0 0 0 0

GEFSSGP_con_probscp_030.txt.gz
Probability
0 0 0 0 0 0 0 0 0 0 0 0 0 0 0 0 0 0 0 0 0 0 0 0 0 0 0 0 0 0 0 0 0 0 0 0 0 0 0 0 0 0 0 0 0 0 0 0 0
0 0 0 0 0 0 0 0 0 0 0 0 0 0 0 0 0 0 0 0 0 0 0 0 0 0 0 0 0 0 0 0 0 0 0 0 0 0 0 0 0 0 0 0 0 0 0 0 0
0 0 0 0 0 0 0 0 0 0 0 0 0 0 0 0 0 0 0 0 0 0 0 0 0 0 0 0 0 0 0 0 0 0 0 0 0 0 0 0 0 0 0 0 0 0 0 0 0
0 0 0 0 0 0 0 0 0 0 0 0 0 0 0 0 0 0 0 0 0 0 0 0 0 0 0 0 0 0 0 0 0 0 0 0 0 0 0 0 0 0 0 0 0 0 0 0 0
0 0 0 0 0 0 0 0 0 0 0 0 0 0 0 0 0 0 0 0 0 0 0 0 0 0 0 0 0 0 0 0 0 0 0 0 0 0 0 0 0 0 0 0 0 0 0 0 0
0 0 0 0 0 0 0 0 0 0 0 0 0 0 0 0 0 0 0 0 0 1 0 0 0 0 0 0 0 0 0 0 0 0 0 0 0 0 0 0 0 0 0 0 0 0 0 0 0
0 0 0 0 0 0 0 0 0 0 0 0 0 0 0 0 0 0 0 0 2 5 3 1 0 0 0 0 0 0 0 0 0 0 0 0 0 0 0 0 0 0 0 0 0 0 0 0 1
0 0 0 0 0 0 0 0 0 0 0 1 1 0 0 0 0 0 0 0 4 10 9 3 1 1 0 0 0 0 0 0 0 0 0 0 0 2 5 6 5 5 5 4 5 4 3 4 5
0 0 0 0 0 0 0 0 0 0 1 5 7 4 1 0 0 0 0 0 4 12 13 8 9 10 4 4 6 4 0 0 0 2 5 5 2 3 12 22 29 32 31 31 30 26 22 19 18
0 0 0 0 0 0 0 0 0 1 6 17 24 15 3 0 0 0 0 2 6 13 14 15 29 32 16 18 27 15 8 16 15 12 22 32 24 12 18 42 62 70 70 67 62 56 51 44 39
0 0 0 0 0 0 0 0 0 1 10 29 38 24 8 4 5 5 5 12 22 23 15 23 52 61 40 41 54 38 31 48 49 39 50 68 64 40 35 60 85 92 90 82 73 70 69 61 57
0 0 0 0 0 0 0 0 0 1 10 25 31 22 14 14 16 19 23 37 50 41 22 33 69 84 71 64 68 61 54 65 74 73 77 88 87 69 62 74 86 86 86 81 73 71 72 69 64
0 0 0 0 0 0 0 0 0 2 8 15 16 18 21 25 32 41 54 71 77 61 40 51 81 96 90 79 72 65 60 65 78 85 88 90 88 79 72 75 74 70 72 75 75 75 75 73 69
0 0 0 0 0 0 0 0 0 2 8 12 13 20 28 37 49 67 83 93 93 80 69 76 91 99 97 88 78 68 63 67 76 84 85 85 84 78 68 65 64 61 63 68 72 76 77 75 73
0 0 0 0 0 0 0 0 0 2 6 9 13 23 37 51 67 85 96 100 98 95 92 94 97 100 99 95 90 81 71 72 79 79 77 74 75 71 60 54 55 58 58 58 63 69 73 75 75
0 0 0 0 0 0 0 0 0 1 2 3 9 22 44 65 80 91 97 98 98 100 100 99 99 99 100 98 94 85 77 77 75 66 63 62 57 49 40 34 37 42 41 39 43 54 64 70 73
0 0 0 0 0 0 0 0 0 0 1 1 6 22 49 75 87 92 96 95 96 98 99 98 98 99 99 97 90 80 76 72 58 45 49 49 35 24 19 14 15 18 18 18 21 33 48 56 59
0 0 0 0 0 0 0 0 0 1 2 4 10 27 56 79 89 92 92 92 93 96 97 98 99 100 99 95 87 79 73 58 37 32 40 35 20 11 8 5 3 5 7 7 8 15 26 33 35
0 0 0 0 0 0 0 0 1 3 6 10 20 41 64 79 85 85 81 79 81 85 90 94 96 96 94 89 85 82 70 46 28 27 32 27 14 9 6 3 1 2 3 3 3 4 8 11 13
0 0 0 0 0 0 0 1 3 7 13 22 38 57 71 76 75 66 56 54 58 64 71 79 85 86 84 82 81 78 65 43 28 30 36 34 25 15 8 4 3 2 1 1 1 1 1 2 3
0 0 0 0 0 0 0 1 6 14 26 42 57 66 68 66 58 45 34 33 39 46 53 62 71 76 78 80 79 72 63 50 39 42 50 52 42 26 14 7 5 3 1 0 0 1 1 1 1
0 0 0 0 0 0 0 1 7 22 43 60 68 66 57 48 40 31 25 26 33 40 48 56 64 71 77 83 82 76 69 61 55 58 66 65 50 33 22 14 10 6 2 1 1 2 3 2 1
0 0 0 0 0 0 0 1 7 27 54 67 64 55 43 31 25 23 22 23 27 34 43 52 60 68 77 84 85 79 72 68 67 71 76 71 56 43 35 30 25 16 8 4 4 5 6 4 3
0 0 0 0 0 0 0 0 8 31 58 63 51 38 27 17 13 13 14 14 15 20 28 38 48 58 66 74 78 77 75 74 74 77 79 76 69 62 56 53 49 36 19 9 7 7 8 7 7
0 0 0 0 1 0 0 4 17 37 49 45 31 19 11 6 4 4 4 5 5 7 11 19 29 37 42 48 57 65 70 73 77 79 80 82 82 80 77 73 67 53 34 18 11 9 8 8 8
0 0 0 0 0 0 3 14 29 33 29 20 11 5 2 0 0 0 0 0 1 1 3 6 12 16 17 20 29 39 48 57 67 76 82 86 87 88 87 83 76 66 49 32 21 14 8 6 7
0 0 0 0 0 0 6 22 32 28 15 5 1 0 0 0 0 0 0 0 0 0 0 1 3 4 5 6 9 14 21 30 42 56 69 77 82 85 86 85 81 74 64 51 37 23 12 7 7
0 0 0 0 0 0 4 17 33 31 15 3 0 0 0 0 0 0 0 0 0 0 0 0 0 1 1 1 2 3 5 9 16 27 38 50 61 70 77 82 82 78 72 64 50 33 20 13 10
0 0 0 0 0 0 1 13 31 31 14 3 0 0 0 0 0 0 0 0 0 0 0 0 0 1 0 0 0 0 1 1 4 7 11 19 30 40 53 67 76 77 73 68 56 39 25 17 12
0 0 0 0 0 0 2 13 25 21 8 2 1 0 0 0 0 0 0 0 0 0 0 0 0 1 0 0 0 0 0 0 1 1 2 5 10 16 29 50 68 74 72 69 60 40 24 17 11

GEFSSGP_con_probscp_036.txt.gz
Probability
0 0 0 0 0 0 0 0 0 0 0 0 0 0 0 0 0 0 0 0 0 0 0 0 0 0 0 0 0 0 0 0 0 0 0 0 0 0 0 0 0 0 0 0 0 0 0 0 0
0 0 0 0 0 0 0 0 0 0 0 0 0 0 0 0 0 0 0 0 0 0 0 0 0 0 0 0 0 0 0 0 0 0 0 0 0 0 0 0 0 0 0 0 0 0 0 0 0
0 0 0 0 0 0 0 0 0 0 0 0 0 0 0 0 0 0 0 0 0 0 0 0 0 0 0 0 0 0 0 0 0 0 0 0 0 0 0 0 0 0 0 0 0 0 0 0 0
0 0 0 0 0 0 0 0 0 0 0 0 0 0 0 0 0 0 0 0 0 0 0 0 1 0 0 0 0 0 0 0 0 0 0 0 0 0 0 0 0 0 0 0 0 0 0 0 0
0 0 0 0 0 0 0 0 0 0 0 0 0 0 0 0 0 0 0 0 0 0 0 1 3 2 0 0 0 0 0 0 0 0 0 0 0 0 0 0 0 0 0 0 0 0 0 0 0
0 0 0 0 0 0 0 0 0 0 0 0 0 0 0 0 0 0 0 0 0 0 0 2 3 3 1 1 0 0 0 0 0 0 0 0 0 0 0 0 0 0 0 0 0 0 0 0 0
0 0 0 0 0 0 0 0 0 0 0 0 0 0 0 0 0 0 0 0 0 0 0 2 2 2 1 1 0 0 0 0 0 0 0 0 0 0 0 0 0 0 0 0 0 0 0 0 0
0 0 0 0 0 0 0 0 0 0 1 0 0 0 0 0 1 1 2 1 1 0 1 4 5 4 2 1 0 1 1 0 0 0 0 0 0 0 0 0 0 0 0 0 0 0 0 0 0
0 0 0 0 0 0 0 0 0 1 2 1 0 0 0 1 3 6 11 12 9 5 5 10 13 11 6 2 1 2 2 1 1 0 0 0 0 0 0 0 0 0 0 0 0 0 0 0 0
0 0 0 0 0 0 0 0 1 3 4 3 1 2 4 6 9 15 25 34 30 20 16 18 22 22 16 8 4 4 4 3 2 1 0 0 0 0 0 0 0 0 0 0 0 2 4 4 4
0 0 0 0 0 0 0 0 1 3 4 5 4 6 11 14 15 21 35 52 55 43 30 24 26 28 24 13 8 8 7 5 3 1 0 0 0 0 0 0 0 2 2 2 3 6 10 12 12
0 0 0 0 0 0 0 0 1 1 5 9 9 9 14 19 21 25 38 58 71 64 45 32 26 25 22 15 11 11 9 7 4 2 1 1 1 1 0 0 1 4 6 6 5 8 12 14 15
0 0 0 0 0 0 0 0 1 2 10 18 15 11 16 22 27 32 42 60 74 72 57 42 32 23 17 15 17 17 13 10 7 4 3 6 6 4 2 0 0 3 6 6 5 6 8 9 9
0 0 0 0 0 0 0 0 1 6 20 28 21 14 17 24 32 40 48 58 65 64 56 47 40 31 23 24 30 32 27 23 19 13 13 17 16 11 5 2 0 1 3 4 3 2 3 3 4
0 0 0 0 0 0 0 0 1 9 24 31 24 20 22 28 36 43 46 48 49 46 43 42 41 38 36 38 47 51 48 42 34 26 25 29 25 16 8 2 0 0 1 2 2 1 1 1 1
0 0 0 0 0 0 0 0 1 9 21 27 28 30 32 38 42 41 37 34 33 31 30 31 34 38 41 45 52 58 57 51 42 33 32 33 27 15 6 2 0 0 0 1 1 1 0 0 0
0 0 0 0 0 0 1 1 3 9 20 31 38 46 52 54 52 42 32 26 23 23 22 22 24 30 36 41 45 48 47 42 35 30 28 26 19 10 4 1 0 0 0 0 0 0 0 0 0
0 0 0 0 0 1 2 4 7 14 29 43 52 61 67 63 52 40 28 21 17 16 15 13 14 18 25 31 33 31 29 26 21 17 17 14 10 5 2 1 0 0 0 0 0 0 0 0 0
0 0 0 0 0 1 2 5 12 23 38 53 60 64 64 55 42 29 18 12 9 9 9 7 7 10 14 17 18 17 15 13 9 7 7 7 5 3 1 0 0 0 0 0 0 0 0 0 0
0 0 0 0 0 0 1 4 12 22 35 48 54 52 46 36 25 16 8 4 5 6 5 3 3 5 7 9 9 10 9 8 6 4 3 3 3 2 1 0 0 0 0 0 0 0 0 0 0
0 0 0 0 0 0 0 2 6 13 22 32 36 33 25 17 10 6 3 3 4 4 2 1 1 2 4 5 7 8 9 8 7 5 4 3 3 2 1 0 0 0 0 0 0 0 0 0 0
0 0 0 0 0 0 0 0 2 6 12 17 18 14 9 5 3 2 1 2 3 2 1 0 0 1 2 3 5 7 8 8 8 6 5 4 3 2 0 0 0 0 0 0 0 0 0 0 0
0 0 0 0 0 0 0 0 1 3 5 7 6 4 2 1 1 1 0 1 1 1 0 0 0 0 1 1 2 3 5 5 5 5 4 4 3 1 0 0 0 0 0 0 0 0 0 0 0
0 0 0 0 0 0 0 0 0 1 2 2 1 1 0 0 0 0 0 0 0 0 0 0 0 0 0 0 0 1 1 1 1 2 2 1 1 1 1 1 1 1 1 0 0 0 0 0 0
0 0 0 0 0 0 0 0 0 0 0 0 0 0 0 0 0 0 0 0 0 0 0 0 0 0 0 0 0 0 0 0 0 0 0 1 1 1 2 2 1 2 2 1 1 1 0 0 0
0 0 0 0 0 0 0 0 0 0 0 0 0 0 0 0 0 0 0 0 0 0 0 0 0 0 0 0 0 0 0 0 0 0 0 1 1 1 1 1 1 2 2 2 2 1 0 0 0
0 0 0 0 0 0 0 0 0 0 0 0 0 0 0 0 0 0 0 0 0 0 0 0 0 0 0 0 0 0 0 0 0 0 0 1 1 0 0 0 0 1 1 2 1 1 0 0 0
0 0 0 0 0 0 0 0 0 0 0 0 0 0 0 0 0 0 0 0 0 0 0 0 0 0 0 0 0 0 0 0 0 0 0 0 0 0 0 0 0 0 0 0 0 0 0 0 0
0 0 0 0 0 0 0 0 0 0 0 0 0 0 0 0 0 0 0 0 0 0 0 0 0 0 0 0 0 0 0 0 0 0 0 0 0 0 0 0 0 0 0 0 0 0 0 0 0
0 0 0 0 0 0 0 0 0 0 0 0 0 0 0 0 0 0 0 0 0 0 0 0 0 0 0 0 0 0 0 0 0 0 0 0 0 0 0 0 0 0 0 0 0 0 0 0 0

GEFSSGP_con_probscp_042.txt.gz
Probability
0 0 0 0 0 0 0 0 0 0 0 0 0 0 0 0 0 0 0 0 0 0 0 0 1 2 2 2 1 0 0 0 0 0 0 0 0 0 0 0 0 0 0 0 0 0 0 0 0
0 0 0 0 0 0 0 0 0 0 0 0 0 0 0 0 0 0 0 0 0 0 0 0 1 2 3 3 2 1 0 0 0 0 0 0 0 0 0 0 0 0 0 0 0 0 0 0 0
0 0 0 0 0 0 0 0 0 0 0 0 0 0 0 0 0 0 0 0 0 0 0 1 3 4 4 3 3 2 1 0 0 0 0 0 0 0 0 0 0 0 0 0 0 0 0 0 0
0 0 0 0 0 0 0 0 0 0 0 0 0 0 0 0 0 0 0 0 0 0 0 4 7 7 5 4 3 3 1 0 0 0 0 0 0 0 0 0 0 0 0 0 0 0 0 0 0
0 0 0 0 0 0 0 0 0 0 0 0 0 0 0 0 0 0 0 0 0 1 3 8 13 12 8 6 4 4 2 1 1 1 0 0 0 0 0 0 0 0 0 0 0 0 0 0 0
0 0 0 0 0 0 0 0 0 0 0 0 0 0 0 0 0 0 0 0 0 3 6 11 17 18 14 10 7 5 3 2 2 2 1 0 0 0 0 0 0 0 0 0 0 0 0 0 0
0 0 0 0 0 0 0 0 0 0 0 0 0 0 0 0 0 0 0 0 0 4 10 16 20 23 21 16 12 8 4 2 2 2 1 0 0 0 0 0 0 0 0 0 0 0 0 0 0
0 0 0 0 0 0 0 0 0 0 0 0 0 0 0 0 1 1 1 0 1 5 14 22 28 33 31 25 20 15 9 4 2 1 0 0 0 0 0 0 0 0 0 0 0 0 0 0 0
0 0 0 0 0 0 0 0 0 0 0 0 0 0 2 4 5 4 3 3 4 10 19 31 40 47 47 40 33 28 22 16 9 4 2 2 1 0 0 0 0 0 0 0 0 0 0 0 0
0 0 0 0 0 0 0 0 0 0 0 0 0 1 9 17 16 11 8 7 10 17 28 41 52 59 60 56 49 42 38 34 26 15 9 7 6 4 2 1 0 0 0 0 1 1 1 2 2
0 0 0 0 0 0 0 0 0 0 0 0 1 6 21 35 34 27 20 18 21 30 43 54 61 65 65 64 59 54 51 50 42 30 22 19 15 11 8 5 2 1 0 0 2 4 4 4 6
0 0 0 0 0 0 0 0 0 0 0 1 5 17 36 49 49 42 36 35 37 45 54 61 63 61 58 56 54 54 55 55 51 44 40 37 30 22 16 10 5 3 1 1 2 4 5 5 7
0 0 0 0 0 0 0 0 0 0 2 7 15 29 45 53 50 45 43 46 48 49 52 54 52 46 42 41 42 44 48 50 50 49 50 49 43 34 23 13 7 4 2 1 2 3 3 4 5
0 0 0 0 0 0 0 2 3 4 9 20 30 38 46 48 43 38 38 41 42 40 38 37 34 30 28 29 31 32 36 40 42 44 45 45 44 38 27 15 9 6 3 1 1 2 2 2 3
0 0 0 0 0 0 2 5 9 12 19 32 40 40 39 37 32 28 26 26 28 28 26 25 23 21 20 21 23 24 26 30 33 35 37 36 35 32 25 16 10 6 4 2 1 1 1 1 2
0 0 0 0 0 1 3 8 12 16 23 32 34 30 27 23 19 17 15 14 15 19 19 19 19 17 15 15 17 18 19 22 24 27 30 28 25 24 21 15 10 6 3 1 0 0 0 0 1
0 0 0 0 1 2 5 9 12 15 17 19 18 15 13 11 10 10 9 7 8 11 13 14 14 13 12 12 13 14 15 17 18 20 24 23 21 21 19 14 9 5 2 0 0 0 0 0 0
0 0 0 0 0 1 4 6 8 9 8 8 7 6 6 7 7 6 5 5 5 5 6 7 7 8 9 9 10 10 12 13 13 15 17 17 18 19 16 11 6 2 0 0 0 0 0 0 0
0 0 0 0 0 0 1 2 3 3 3 3 2 3 5 7 5 4 4 4 3 3 3 3 4 4 4 5 7 8 7 7 7 9 10 10 12 13 11 7 3 1 0 0 0 0 0 0 0
0 0 0 0 0 0 0 1 1 1 1 1 1 1 3 4 3 3 4 3 2 2 2 2 1 1 1 2 3 4 4 3 4 4 5 5 6 6 5 3 2 0 0 0 0 0 0 0 0
0 0 0 0 0 0 0 0 0 0 0 0 0 0 1 1 1 2 2 1 1 1 1 1 0 0 0 0 1 1 1 2 3 2 1 2 2 2 1 1 1 0 0 0 0 0 0 0 0
0 0 0 0 0 0 0 0 0 0 0 0 0 0 0 0 0 1 1 0 0 0 0 0 0 0 0 0 0 0 0 1 1 0 0 0 0 0 0 0 0 0 0 0 0 0 0 0 0
0 0 0 0 0 0 0 0 0 0 0 0 0 0 0 0 0 0 0 0 0 0 0 0 0 0 0 0 0 0 0 0 0 0 0 0 0 0 0 0 0 0 0 0 0 0 0 0 0
0 0 0 0 0 0 0 0 0 0 0 0 0 0 0 0 0 0 0 0 0 0 0 0 0 0 0 0 0 0 0 0 0 0 0 0 0 0 0 0 0 0 0 0 0 0 0 0 0
0 0 0 0 0 0 0 0 0 0 0 0 0 0 0 0 0 0 0 0 0 0 0 0 0 0 0 0 0 0 0 0 0 0 0 0 0 0 0 0 0 0 0 0 0 0 0 0 0
0 0 0 0 0 0 0 0 0 0 0 0 0 0 0 0 0 0 0 0 0 0 0 0 0 0 0 0 0 0 0 0 0 0 0 0 0 0 0 0 0 0 0 0 0 0 0 0 1
0 0 0 0 0 0 0 0 0 0 0 0 0 0 0 0 0 0 0 0 0 0 0 0 0 0 0 0 0 0 0 0 0 0 0 0 0 0 0 0 0 0 0 0 0 0 0 1 2
0 0 0 0 0 0 0 0 0 0 0 0 0 0 0 0 0 0 0 0 0 0 0 0 0 0 0 0 0 0 0 0 0 0 0 0 0 0 0 0 0 0 0 0 0 0 0 1 2
0 0 0 0 0 0 0 0 0 0 0 0 0 0 0 0 0 0 0 0 0 0 0 0 0 0 0 0 0 0 0 0 0 0 0 0 0 0 0 0 0 0 0 0 0 0 0 1 2
0 0 0 0 0 0 0 0 0 0 0 0 0 0 0 0 0 0 0 0 0 0 0 0 0 0 0 0 0 0 0 0 0 0 0 0 0 0 0 0 0 0 0 0 0 0 0 0 1

GEFSSGP_con_probscp_048.txt.gz
Probability
0 0 0 0 0 0 0 0 0 0 0 0 0 0 0 0 0 0 0 0 0 1 1 1 0 0 0 0 0 0 0 0 0 0 0 0 0 0 0 0 0 0 0 0 0 0 0 0 0
0 0 0 0 0 0 0 0 0 0 0 0 0 0 0 0 0 0 0 0 0 0 0 0 0 0 0 0 0 0 0 0 0 0 0 0 0 0 0 0 0 0 0 0 0 0 0 0 0
0 0 0 0 0 0 0 0 0 0 0 0 0 0 0 0 0 0 0 0 0 0 0 0 0 0 0 0 0 0 0 0 0 0 0 0 0 0 0 0 0 0 0 0 0 0 0 0 0
0 0 0 0 0 0 0 0 0 0 0 0 0 0 0 0 0 0 0 0 0 0 0 0 0 0 0 0 0 0 0 0 0 0 0 0 0 0 0 0 0 0 0 0 0 0 0 0 0
0 0 0 0 0 0 0 0 0 0 0 0 0 0 0 0 0 0 0 0 0 0 0 0 0 0 0 0 0 0 1 1 1 1 0 0 0 0 0 0 0 0 0 0 0 0 0 0 0
0 0 0 0 0 0 0 0 0 0 0 0 0 0 0 0 0 0 0 0 0 0 0 1 0 0 0 0 1 1 2 2 2 2 1 1 1 0 0 0 0 0 0 0 0 0 0 0 0
0 0 0 0 0 0 0 0 0 0 0 0 0 0 1 2 2 1 0 0 0 0 0 0 0 0 0 0 1 2 3 4 5 5 4 3 3 1 1 1 1 1 0 0 0 0 0 0 0
0 0 0 0 0 0 0 0 0 0 0 0 0 0 4 11 12 7 3 2 1 0 0 0 0 0 0 0 1 3 5 7 9 10 10 8 6 5 4 6 8 7 3 1 1 0 0 0 0
0 0 0 0 0 0 0 0 0 0 0 1 1 2 11 25 30 23 15 9 4 2 2 4 4 4 3 4 6 7 11 16 19 21 23 22 18 17 18 22 28 23 12 7 4 3 2 1 0
0 0 0 0 0 0 0 0 0 0 1 2 3 6 15 33 45 43 34 25 18 14 13 15 18 18 17 17 19 18 21 29 33 37 44 47 46 44 43 50 55 44 27 17 13 11 7 4 3
0 0 0 0 0 0 0 1 2 3 4 4 7 9 15 28 43 48 48 45 41 35 30 31 35 38 37 35 34 32 36 43 48 55 65 72 74 72 71 73 73 64 50 40 35 30 21 14 12
0 0 0 0 0 0 0 2 6 8 9 11 13 16 18 24 35 46 55 59 58 52 44 43 49 53 52 49 46 45 48 51 56 65 74 81 86 86 86 86 84 77 69 64 60 52 39 30 27
0 0 0 0 0 0 1 3 9 15 19 22 28 33 35 38 44 53 61 65 64 58 50 49 55 59 59 59 58 58 57 53 52 58 66 74 82 85 87 91 90 82 74 71 67 58 48 43 40
0 0 0 0 0 0 2 4 12 22 29 37 46 53 60 63 64 67 68 68 68 64 57 53 55 56 57 60 62 62 58 50 44 45 52 63 72 76 80 86 87 81 73 69 64 55 49 48 45
0 0 0 0 0 0 1 4 12 22 31 40 50 59 68 71 70 68 65 66 68 67 62 57 52 49 49 51 52 50 45 41 39 42 46 53 59 64 68 73 76 75 73 71 65 56 52 48 43
0 0 0 0 0 0 1 3 8 15 23 30 36 42 48 52 53 52 51 55 60 63 63 58 48 41 38 38 38 35 30 30 34 40 43 43 45 50 57 64 66 67 67 65 60 55 51 45 39
0 0 0 0 0 0 1 2 4 8 13 16 18 20 22 27 31 33 37 44 49 52 54 51 43 35 30 30 29 26 23 23 27 33 35 33 30 36 48 57 57 56 56 53 48 46 46 42 37
0 0 0 0 0 0 1 2 3 4 5 6 7 7 8 11 15 19 25 32 35 37 38 39 38 33 29 27 26 24 22 21 22 24 25 24 22 26 38 46 44 43 42 41 38 38 39 37 34
0 0 0 0 0 0 0 1 1 1 1 1 2 2 2 4 6 9 13 16 17 20 23 27 29 27 25 25 23 22 20 19 17 16 16 15 15 19 26 31 32 32 32 32 33 33 31 28 24
0 0 0 0 0 0 0 0 0 1 1 0 0 0 0 1 2 4 5 5 6 8 12 15 15 14 14 14 13 13 13 12 11 10 9 8 8 11 15 20 23 25 27 28 30 28 22 17 14
0 0 0 0 0 0 0 0 0 1 1 0 0 0 0 0 1 2 3 2 2 3 3 4 4 5 4 4 3 4 5 5 6 6 5 3 2 4 8 11 14 18 21 23 24 21 17 12 9
0 0 0 0 0 0 0 0 0 0 0 0 0 0 0 0 1 1 1 1 0 0 0 1 2 3 3 2 1 1 1 1 2 3 2 1 0 1 3 5 8 12 15 16 17 18 17 11 6
0 0 0 0 0 0 0 0 0 1 1 0 0 0 0 0 0 0 0 0 0 0 0 0 1 2 2 2 2 2 1 1 1 1 0 0 0 0 1 1 3 6 8 10 14 20 18 11 6
0 0 0 0 0 0 0 1 3 4 2 1 0 0 0 0 0 0 0 0 0 0 0 0 0 1 1 1 2 2 3 3 2 1 1 0 0 0 0 0 1 1 3 6 11 17 17 12 9
0 0 0 0 0 0 0 2 5 5 2 1 0 0 0 0 0 0 0 0 0 0 0 0 0 0 0 0 1 1 2 3 2 2 1 0 0 0 0 0 0 0 1 2 5 10 13 13 12
0 0 0 0 0 0 0 2 4 2 1 0 0 0 0 0 0 0 0 0 0 0 0 0 0 0 0 0 0 0 1 1 1 1 0 0 0 0 0 0 0 0 0 0 1 5 9 12 13
0 0 0 0 0 0 0 0 1 0 0 0 0 0 0 0 0 0 0 0 0 0 0 0 0 0 0 0 0 0 0 0 0 0 0 0 0 0 0 0 0 0 0 0 0 2 5 9 11
0 0 0 0 0 0 0 0 0 0 0 0 0 0 0 0 0 0 0 0 0 0 0 0 0 0 0 0 0 0 0 0 0 0 0 0 0 0 0 0 0 0 0 0 0 0 2 5 6
0 0 0 0 0 0 0 0 0 0 0 0 0 0 0 0 0 0 0 0 0 0 0 0 0 0 0 0 0 0 0 0 0 0 0 0 0 0 0 0 0 0 0 0 0 0 1 2 2
0 0 0 0 0 0 0 0 0 0 0 0 0 0 0 0 0 0 0 0 0 0 0 0 0 0 0 0 0 0 0 0 0 0 0 0 0 0 0 0 0 0 0 0 0 0 1 1 1

GEFSSGP_con_probscp_054.txt.gz
Probability
0 0 0 0 0 0 0 0 0 0 0 0 0 0 0 0 0 0 4 25 46 35 13 7 6 4 1 0 0 0 0 0 0 0 0 0 0 0 0 0 0 0 0 0 0 0 0 0 0
0 0 0 0 0 0 0 0 0 0 0 0 0 0 0 0 0 0 5 25 38 26 9 5 6 4 2 1 0 0 0 0 0 0 0 0 0 0 0 0 0 0 0 0 0 0 0 0 0
0 0 0 0 0 1 0 0 0 0 0 0 0 0 0 0 0 0 7 23 30 17 4 3 4 4 2 1 0 0 0 0 0 0 0 0 0 0 0 0 0 0 0 0 0 0 0 0 0
0 0 0 0 0 0 0 0 0 0 0 0 1 2 1 0 0 0 7 21 26 15 5 3 3 3 2 1 0 0 0 0 0 1 1 0 0 0 0 0 0 0 0 0 0 0 0 0 0
0 0 0 0 0 0 0 0 0 0 0 0 2 3 3 1 0 0 5 15 21 16 9 5 4 3 1 1 0 0 0 0 0 2 2 1 1 1 2 3 3 2 1 0 0 0 0 0 0
0 0 0 0 0 0 0 0 0 0 0 0 2 5 5 2 0 0 2 6 15 22 19 11 7 4 3 2 1 1 1 1 2 3 4 4 5 6 7 9 10 9 7 4 1 0 0 0 0
0 0 0 0 0 0 0 0 0 0 0 0 2 5 6 3 1 0 0 2 15 32 30 16 9 7 6 5 4 3 2 3 5 6 8 8 9 11 13 18 22 21 19 14 9 4 2 1 1
0 0 0 0 0 0 0 0 0 1 4 7 9 8 6 2 0 0 0 4 21 41 38 20 13 11 8 6 6 5 4 5 7 9 10 10 10 12 16 25 34 38 36 32 26 18 12 9 7
0 0 0 0 0 0 0 0 0 4 14 22 22 16 8 2 1 1 2 6 23 43 41 28 24 19 10 11 14 10 6 9 12 15 18 16 12 11 21 36 52 60 59 56 50 41 33 26 20
0 0 0 0 0 0 0 2 4 12 25 33 32 24 12 6 5 5 7 13 26 39 40 40 44 34 18 22 31 20 17 28 28 27 36 37 26 18 28 56 76 82 82 78 74 68 58 45 34
0 0 0 0 0 0 1 5 12 22 32 39 39 33 22 15 14 14 18 28 38 40 40 51 62 55 38 42 49 36 37 54 54 46 56 63 53 42 47 71 91 95 93 89 85 83 74 57 43
0 0 0 0 0 0 2 8 19 30 38 44 50 49 41 36 35 37 42 52 59 54 50 60 75 75 65 63 64 58 59 69 71 69 73 80 80 73 72 81 92 95 93 88 84 83 78 64 53
0 0 0 0 0 0 3 9 19 31 41 50 61 68 67 63 64 68 73 79 81 74 66 72 84 87 82 78 79 75 72 72 76 81 86 89 92 91 87 87 87 88 86 82 78 77 76 71 64
0 0 0 0 0 1 4 10 17 28 40 52 65 76 81 82 85 90 93 94 93 87 81 81 85 88 86 85 85 82 77 75 77 85 91 92 92 93 90 85 81 78 73 71 70 70 70 68 65
0 0 0 0 0 1 5 13 21 26 33 44 55 67 77 83 89 94 96 96 95 92 89 85 83 84 86 87 86 83 80 78 81 85 89 88 86 87 88 81 75 69 61 59 61 61 60 58 56
0 0 0 0 0 0 4 16 25 24 25 32 39 48 59 68 75 82 86 88 89 88 87 85 83 83 86 87 85 83 81 80 82 83 82 81 78 76 77 72 65 61 56 51 49 48 49 48 46
0 0 0 0 0 1 6 16 22 21 21 25 27 31 37 43 49 55 60 66 71 73 77 81 82 83 84 84 83 82 82 80 78 77 75 72 67 61 58 55 51 50 50 46 39 36 37 37 36
0 0 1 1 1 1 8 16 17 16 18 19 18 18 19 21 24 26 30 38 46 53 61 70 76 79 79 78 76 76 76 73 68 66 63 58 51 45 41 40 39 40 42 40 34 27 25 25 25
0 0 1 1 1 2 7 13 13 13 15 13 10 9 10 10 10 10 12 17 24 33 43 55 63 65 66 66 63 62 62 58 53 49 47 41 34 31 32 33 33 33 33 34 30 23 18 16 16
0 0 0 0 0 2 7 11 11 11 11 8 6 6 5 5 4 4 4 7 11 19 28 38 44 44 46 49 45 43 43 39 36 36 34 28 22 19 21 24 25 25 25 26 27 23 16 12 12
0 0 0 0 0 2 6 10 10 9 7 4 3 3 2 1 1 1 1 3 6 11 17 24 30 30 32 34 32 29 27 23 24 28 28 23 15 10 9 11 15 17 18 21 24 22 16 12 11
0 0 0 0 0 1 4 7 9 7 4 1 0 0 0 0 0 0 1 1 3 6 11 19 25 27 29 30 29 25 18 14 16 19 21 18 12 6 4 4 7 10 12 15 19 19 17 13 11
0 0 0 0 0 0 1 3 6 6 4 2 0 0 0 0 0 0 1 2 3 4 8 18 28 31 32 33 29 23 17 12 10 9 10 10 7 5 4 4 5 5 6 8 11 14 15 13 11
0 0 0 0 0 0 0 2 4 6 6 3 1 0 0 0 0 1 1 3 5 6 7 16 27 30 29 27 24 19 16 11 6 3 3 2 2 3 4 6 8 5 4 4 4 6 8 9 9
0 0 0 1 1 1 0 2 5 7 6 4 1 0 0 0 0 0 1 3 5 4 4 9 15 17 15 14 13 12 10 6 2 1 0 0 0 1 2 5 8 8 6 3 1 1 2 4 5
0 0 0 1 1 1 1 4 7 6 4 2 1 0 0 0 0 0 1 2 2 2 1 2 3 4 5 5 5 4 3 1 0 0 0 0 0 0 1 2 5 8 8 6 4 2 1 1 1
0 0 0 0 0 0 2 6 6 3 1 0 0 0 0 0 0 0 0 1 1 0 0 0 0 1 2 2 1 1 1 0 0 0 0 0 1 1 1 1 3 5 8 11 10 6 1 0 0
0 0 0 0 0 0 1 3 3 1 0 0 0 0 0 0 0 0 0 0 0 0 0 0 0 0 1 1 0 1 1 0 0 0 0 0 0 1 2 2 3 3 5 8 11 9 5 2 1
0 0 0 0 0 0 0 0 1 0 0 0 0 0 0 0 0 0 0 0 0 0 0 0 0 0 0 0 0 0 0 0 0 0 0 0 0 1 2 2 2 2 1 3 6 8 8 6 5
0 0 0 0 0 0 0 0 0 0 0 0 0 0 0 0 0 0 0 0 0 0 0 0 0 0 0 0 0 0 0 0 0 0 0 0 1 1 1 1 1 1 0 1 3 6 8 8 7

GEFSSGP_con_probscp_060.txt.gz
Probability
0 0 0 0 0 0 0 0 0 0 0 0 0 0 0 0 0 0 1 2 2 1 0 1 4 5 4 3 1 0 0 0 0 0 0 0 0 0 0 0 0 0 0 0 0 0 0 0 0
0 0 0 0 0 0 0 0 0 0 0 0 0 0 0 0 0 0 1 2 3 2 1 1 3 5 5 4 1 0 0 0 0 0 0 0 0 0 0 0 0 0 0 0 0 0 0 0 0
0 0 0 0 0 0 0 0 0 0 1 1 0 0 0 0 0 0 1 3 4 3 2 1 2 4 6 5 2 0 0 0 0 0 0 0 0 0 0 0 0 0 0 0 0 0 0 0 0
0 0 0 0 0 0 0 0 0 1 2 2 1 0 0 1 2 2 2 3 4 4 3 3 3 4 6 6 4 1 0 0 0 0 0 0 0 0 0 0 0 0 0 0 0 0 0 0 0
0 0 0 0 0 0 0 0 1 4 5 4 2 0 0 3 6 5 3 3 3 3 3 4 5 7 9 9 6 4 2 1 1 1 1 1 1 1 0 0 0 0 0 0 0 0 0 0 0
0 0 0 0 0 0 0 1 5 9 9 7 4 2 1 5 7 4 1 1 1 1 3 4 6 10 13 13 10 7 5 4 4 3 3 3 3 2 1 1 1 0 1 1 0 0 0 0 0
0 0 0 0 0 0 1 4 10 16 16 10 6 4 3 5 6 4 2 1 0 1 2 3 4 8 12 14 13 11 8 7 5 5 5 4 4 4 4 3 2 1 3 4 2 0 1 1 1
0 0 0 0 0 0 3 8 16 22 21 16 10 6 4 6 9 10 10 7 3 1 1 2 3 4 7 10 12 11 9 8 6 4 4 4 4 4 5 5 3 3 7 10 8 6 6 5 4
0 0 0 0 0 1 5 12 18 24 26 22 16 10 8 12 19 25 25 19 10 5 2 1 2 1 3 6 7 6 6 6 5 3 2 2 3 4 4 5 6 9 15 19 20 19 17 13 11
0 0 0 0 0 3 9 16 20 27 32 28 21 17 18 25 32 40 42 34 21 11 5 3 1 2 3 4 5 4 3 4 4 3 2 2 4 5 5 5 9 17 25 30 33 34 32 29 28
0 0 0 0 2 7 15 25 31 36 37 34 30 29 35 43 47 52 56 49 35 23 16 11 9 7 7 8 9 7 5 7 9 9 8 8 10 11 9 8 12 23 34 42 47 48 47 48 48
0 0 0 2 6 14 23 36 47 50 49 49 50 52 58 63 64 67 69 66 56 47 40 33 28 25 22 22 21 15 13 16 18 19 18 20 22 20 16 15 18 25 35 45 52 54 54 54 53
0 0 0 3 10 21 33 45 55 62 65 70 73 75 76 76 76 77 79 79 76 71 67 61 53 49 46 42 36 28 26 27 27 27 28 31 33 29 23 22 22 24 29 36 41 44 45 44 43
0 0 0 3 10 23 38 47 55 63 72 78 81 81 80 79 78 79 81 82 82 81 79 75 69 64 59 52 45 42 40 38 36 35 36 38 37 33 27 22 20 18 19 23 27 28 28 28 29
0 0 0 2 7 18 33 44 48 54 63 69 71 72 72 72 71 71 75 77 78 77 75 73 68 60 52 44 41 44 46 45 42 39 38 37 34 29 24 20 17 13 11 14 16 16 14 14 15
0 0 0 1 4 12 27 38 39 38 43 47 50 52 54 54 53 55 59 62 64 62 60 59 55 45 36 31 32 35 40 42 40 36 33 30 26 21 18 16 15 12 9 9 10 9 8 7 7
0 0 0 0 2 9 23 32 29 23 21 22 26 29 29 30 32 34 37 40 42 41 39 37 34 27 22 21 21 23 25 27 27 25 23 21 18 14 11 11 11 10 9 8 7 6 5 5 5
0 0 0 0 2 10 21 26 20 12 7 7 9 11 11 12 14 17 19 22 23 22 20 17 14 12 12 12 12 12 12 12 12 10 10 12 11 8 6 5 5 6 6 5 4 3 3 4 3
0 0 0 0 3 9 16 17 12 6 3 2 2 4 4 4 4 5 7 9 10 10 9 7 5 4 5 6 6 5 4 5 4 3 3 5 5 3 2 2 1 1 2 1 1 1 1 2 2
0 0 0 0 3 7 10 9 6 4 2 1 1 2 2 1 0 1 1 2 3 3 2 3 3 2 2 3 3 2 1 1 1 1 1 1 1 1 1 0 0 0 0 0 0 0 0 0 0
0 0 0 0 2 4 4 4 4 3 2 0 0 1 1 0 0 0 0 0 1 1 1 1 1 1 1 1 1 0 0 0 0 0 0 0 0 0 0 0 0 0 0 0 0 0 0 0 0
0 0 0 0 1 1 1 1 2 2 1 0 0 0 0 0 0 0 0 0 1 2 2 1 0 0 0 0 0 0 0 0 0 0 0 0 0 0 0 0 0 0 0 0 0 0 0 0 0
0 0 0 0 0 0 0 0 0 0 0 0 0 0 0 0 0 0 0 0 1 2 3 1 0 0 0 0 0 0 0 0 0 0 0 0 0 0 0 0 0 0 0 0 0 0 0 0 0
0 0 0 0 0 0 0 0 0 0 0 0 0 0 0 0 0 0 0 0 1 2 2 1 0 0 0 0 0 0 0 0 0 0 0 0 0 0 0 0 0 0 0 0 0 0 0 0 0
0 0 0 0 0 0 0 0 0 0 0 0 0 0 0 0 0 0 0 0 0 1 1 0 0 0 0 0 0 0 0 0 0 0 0 0 0 0 0 0 0 0 0 0 0 0 0 0 0
0 0 0 0 0 0 0 0 0 0 0 0 0 0 0 0 0 0 0 0 0 0 0 0 0 0 0 0 0 0 0 0 0 0 0 0 0 0 0 0 0 0 0 0 0 0 0 0 0
0 0 0 0 0 0 0 0 0 0 0 0 0 0 0 0 0 0 0 0 0 0 0 0 0 0 0 0 0 0 0 0 0 0 0 0 0 0 0 0 0 0 0 0 0 0 0 0 0
0 0 0 0 0 0 0 0 0 0 0 0 0 0 0 0 0 0 0 0 0 0 0 0 0 0 0 0 0 0 0 0 0 0 0 0 0 0 0 0 0 0 0 0 0 0 0 0 0
0 0 0 0 0 0 0 0 0 0 0 0 0 0 0 0 0 0 0 0 0 0 0 0 0 0 0 0 0 0 0 0 0 0 0 0 0 0 0 0 0 0 0 0 0 0 0 0 0
0 0 0 0 0 0 0 0 0 0 0 0 0 0 0 0 0 0 0 0 0 0 0 0 0 0 0 0 0 0 0 0 0 0 0 0 0 0 0 0 0 0 0 0 0 0 0 0 0

GEFSSGP_con_probscp_066.txt.gz
Probability
0 0 0 0 0 0 0 0 0 0 0 0 1 1 1 0 0 0 0 0 1 2 2 2 2 1 1 4 4 3 2 1 0 0 0 0 0 0 0 0 0 0 0 0 0 0 0 0 0
0 0 0 0 0 0 0 0 0 0 0 0 0 0 0 0 0 0 0 0 2 3 2 2 2 1 1 3 3 2 1 0 0 0 0 0 0 0 0 0 0 0 0 0 0 0 0 0 0
0 0 0 0 0 0 0 0 0 0 0 0 0 0 0 0 0 0 0 0 1 2 2 2 2 1 1 2 2 1 0 0 0 0 0 0 0 0 0 0 0 0 0 0 0 0 0 0 0
0 0 0 0 0 0 0 0 0 0 0 0 0 0 0 0 0 0 0 1 2 3 3 4 5 4 2 2 2 1 0 0 0 0 0 0 0 0 0 0 0 0 0 0 0 0 0 0 0
0 0 0 0 0 0 0 0 0 0 0 0 0 0 1 0 0 0 1 2 4 5 6 8 9 8 6 4 3 2 1 0 0 0 0 0 0 0 0 0 0 0 0 0 0 0 0 0 0
0 0 0 0 0 0 0 1 1 0 0 0 0 0 0 0 0 0 1 2 4 7 8 9 10 10 9 8 6 4 3 1 1 1 0 0 0 0 0 0 0 0 0 0 0 0 0 0 0
0 0 0 0 0 0 0 1 1 1 1 0 0 0 0 0 0 0 1 3 6 8 8 8 9 10 10 9 8 8 6 5 4 2 1 0 0 0 0 0 0 0 0 0 0 0 0 0 1
0 0 0 0 0 0 0 1 1 0 0 0 0 0 1 3 3 3 4 5 8 9 8 8 9 10 9 9 10 11 10 8 6 3 1 0 0 0 0 0 0 1 1 0 0 1 1 1 2
0 0 0 0 0 0 2 2 2 3 5 6 7 9 12 13 11 9 8 7 7 7 6 6 7 7 6 7 9 10 10 9 7 5 3 2 1 0 0 1 1 1 1 1 1 2 3 5 7
0 0 0 0 0 1 3 4 5 10 15 16 18 26 32 28 20 15 12 9 7 5 4 4 5 5 4 5 7 9 11 12 12 10 8 6 3 2 1 2 3 2 2 2 3 6 11 15 16
0 0 0 0 0 1 4 10 18 24 26 26 30 41 47 40 29 21 15 11 8 7 5 3 4 5 4 4 6 9 12 15 15 14 12 10 7 4 4 5 6 6 6 6 8 12 19 23 24
0 0 0 1 2 5 13 26 38 41 37 36 43 53 55 49 37 27 20 16 15 14 9 4 4 6 5 4 6 8 11 13 13 13 13 12 10 9 9 9 10 11 10 9 10 14 18 20 21
0 1 1 4 8 18 33 48 53 51 46 48 57 61 58 51 40 32 28 27 27 24 16 8 5 5 6 6 7 8 9 10 11 11 11 10 12 13 12 12 12 12 9 7 8 11 12 13 12
1 1 2 6 12 25 44 57 55 48 47 54 59 58 53 45 37 33 33 33 32 28 20 14 11 10 10 11 10 7 8 10 10 9 9 10 12 13 13 12 10 8 5 4 4 7 10 9 8
0 1 1 4 9 19 36 48 44 37 42 51 52 47 41 35 30 30 28 26 25 22 19 18 18 16 13 13 11 7 5 6 6 6 8 12 14 14 13 10 7 5 3 3 3 6 8 8 8
0 0 0 2 4 10 22 30 28 27 34 42 42 36 28 23 21 21 19 16 14 13 14 16 16 13 10 8 7 4 2 1 1 2 6 11 13 11 9 8 5 4 4 4 3 4 6 7 6
0 0 0 1 3 7 16 21 20 22 27 31 27 21 16 13 11 10 9 8 6 5 6 7 7 5 3 2 2 1 0 0 0 0 2 4 6 5 4 4 4 4 4 4 3 3 4 4 4
0 0 0 1 2 7 16 20 18 17 19 19 14 9 7 6 4 3 2 2 1 1 1 1 1 1 0 0 0 0 0 0 0 0 0 0 1 1 2 2 2 2 2 2 2 2 3 3 3
0 0 0 1 2 5 11 14 12 8 8 9 6 3 2 1 1 0 0 0 0 0 0 0 0 0 0 0 0 0 0 0 0 0 0 0 0 0 1 1 1 1 1 1 0 1 1 2 2
0 0 0 1 3 4 5 6 5 2 3 3 2 1 0 0 0 0 0 0 0 0 0 0 0 0 0 0 0 0 0 0 0 0 0 0 0 0 0 0 0 0 0 0 0 0 0 1 1
0 0 0 1 2 3 3 3 2 1 2 2 1 0 0 0 0 0 0 0 0 0 0 0 0 0 0 0 0 0 0 0 0 0 0 0 0 0 0 0 0 0 0 0 0 0 0 0 0
0 0 0 0 1 1 1 1 1 1 1 1 0 0 0 0 0 0 0 0 0 0 0 0 0 0 0 0 0 0 0 0 0 0 0 0 0 0 0 0 0 0 0 0 0 0 0 0 0
0 0 0 0 0 0 0 0 0 0 0 0 0 0 0 0 0 0 0 0 0 0 0 0 0 0 0 0 0 0 0 0 0 0 0 0 0 0 0 0 0 0 0 0 0 0 0 0 0
0 0 0 0 0 0 0 0 0 0 0 0 0 0 0 0 0 0 0 0 0 0 0 0 0 0 0 0 0 0 0 0 0 0 0 0 0 0 0 0 0 0 0 0 0 0 0 0 0
0 0 0 0 0 0 0 0 0 0 0 0 0 0 0 0 0 0 0 0 0 0 0 0 0 0 0 0 0 0 0 0 0 0 0 0 0 0 0 0 0 0 0 0 0 0 0 0 0
0 0 0 0 0 0 0 0 0 0 0 0 0 0 0 0 0 0 0 0 0 0 0 0 0 0 0 0 0 0 0 0 0 0 0 0 0 0 0 0 0 0 0 0 0 0 0 0 0
0 0 0 0 0 0 0 0 0 0 0 0 0 0 0 0 0 0 0 0 0 0 0 0 0 0 0 0 0 0 0 0 0 0 0 0 0 0 0 0 0 0 0 0 0 0 0 0 0
0 0 0 0 0 0 0 0 0 0 0 0 0 0 0 0 0 0 0 0 0 0 0 0 0 0 0 0 0 0 0 0 0 0 0 0 0 0 0 0 0 0 0 0 0 0 0 0 0
0 0 0 0 0 0 0 0 0 0 0 0 0 0 0 0 0 0 0 0 0 0 0 0 0 0 0 0 0 0 0 0 0 0 0 0 0 0 0 0 0 0 0 0 0 0 0 0 0
0 0 0 0 0 0 0 0 0 0 0 0 0 0 0 0 0 0 0 0 0 0 0 0 0 0 0 0 0 0 0 0 0 0 0 0 0 0 0 0 0 0 0 0 0 0 0 0 0

GEFSSGP_con_probscp_072.txt.gz
Probability
0 0 0 0 0 0 0 0 0 0 0 0 0 0 0 0 0 0 0 0 0 0 0 0 0 0 0 0 0 0 1 2 3 3 2 0 0 0 0 0 0 0 0 0 0 0 0 0 0
0 0 0 0 0 0 0 0 0 0 0 0 0 0 0 0 0 0 0 0 0 0 0 0 0 0 0 0 0 0 1 1 2 3 3 1 0 0 0 0 0 0 0 0 0 0 0 0 0
0 0 0 0 0 0 0 0 0 0 0 0 0 0 0 0 0 0 0 0 0 0 0 0 0 0 0 1 2 3 4 4 3 3 3 2 1 0 0 0 0 0 0 0 0 0 0 0 0
0 0 0 0 0 0 0 0 0 0 0 0 0 0 0 0 0 0 0 0 0 0 0 0 0 0 0 1 4 6 7 7 5 5 4 3 2 1 0 0 0 0 0 0 0 0 0 0 0
0 0 0 0 0 0 0 0 0 0 0 0 0 0 1 2 1 0 0 0 0 0 0 0 0 0 0 1 5 7 8 7 7 7 6 4 2 1 0 0 0 0 0 0 0 0 0 0 0
0 0 0 0 0 0 1 2 2 1 1 0 0 1 3 4 3 1 0 0 0 0 0 0 0 0 0 1 4 7 8 7 7 7 5 3 1 0 0 0 0 0 0 0 0 0 0 0 0
0 0 0 0 0 0 1 4 6 6 4 2 1 1 4 7 6 3 1 1 0 0 0 0 0 0 0 0 2 5 6 5 5 4 3 1 0 0 0 0 0 0 0 0 0 0 0 0 0
0 0 0 0 0 1 2 5 9 11 10 7 6 8 11 13 12 7 4 3 1 1 0 0 0 0 1 1 2 4 4 4 3 3 2 0 0 0 0 0 1 1 1 1 0 0 0 0 0
0 0 0 0 1 2 3 7 10 11 12 15 19 22 23 21 17 12 9 8 5 3 1 0 0 1 2 3 4 4 4 5 5 4 4 3 4 3 3 4 3 3 3 2 1 0 0 0 0
0 0 0 0 1 2 3 8 11 11 15 23 30 33 32 25 18 15 16 14 11 6 2 1 1 2 2 4 7 9 9 10 9 8 9 12 15 15 15 14 10 4 3 4 4 4 3 2 2
0 0 0 0 1 1 3 9 16 21 25 32 36 37 35 28 20 18 20 20 15 8 2 0 1 2 4 7 12 16 17 17 14 14 17 23 29 30 30 28 21 14 13 16 19 18 14 11 10
0 0 0 0 0 1 4 13 27 38 41 42 42 40 38 33 27 24 24 23 18 10 3 2 3 7 11 15 17 21 24 23 22 24 26 30 35 36 38 40 35 30 32 34 35 33 27 22 20
0 0 0 0 0 1 5 16 33 47 50 49 48 45 42 40 37 33 30 26 21 15 10 8 11 15 20 23 23 23 26 27 27 29 30 31 34 34 36 41 40 38 40 40 38 34 30 28 26
0 0 0 0 0 1 5 14 30 43 47 48 48 47 47 46 44 40 36 32 27 22 20 20 20 21 24 26 24 22 23 25 23 22 23 24 27 28 30 33 34 33 32 32 30 25 25 26 26
0 0 0 0 0 0 3 10 23 33 39 43 45 45 47 46 43 39 37 33 29 26 26 26 23 22 24 25 22 17 15 15 14 12 12 13 16 20 23 25 26 24 24 24 22 19 20 22 22
0 0 0 0 0 0 1 6 15 22 29 36 39 39 39 39 36 35 32 28 23 22 23 23 19 18 21 21 17 10 7 7 6 6 6 6 8 12 16 20 20 18 18 17 15 14 16 17 17
0 0 0 0 0 0 1 5 11 15 21 28 32 31 30 29 29 29 27 22 17 16 17 15 12 12 14 12 8 4 3 2 1 1 2 3 5 7 9 12 13 10 10 11 10 10 12 11 11
0 0 0 0 0 0 1 5 10 14 17 22 25 23 22 21 21 21 19 15 12 11 10 9 8 7 6 3 1 0 1 1 0 0 1 1 2 3 4 5 5 4 4 6 6 7 8 7 6
0 0 0 0 0 0 1 3 8 12 15 17 17 16 16 15 14 13 11 8 6 5 4 4 3 3 2 1 1 1 1 0 0 0 1 0 0 1 1 1 1 1 1 2 3 4 5 5 4
0 0 0 0 0 0 0 2 4 7 9 11 11 11 11 10 9 9 6 4 2 1 1 1 1 1 0 0 1 2 1 0 0 0 0 0 0 0 0 0 0 0 0 0 1 2 2 2 2
0 0 0 0 0 0 0 1 1 2 4 6 7 6 5 4 5 5 4 1 1 0 0 0 1 1 2 2 2 2 1 0 0 0 0 0 0 0 0 0 0 0 0 0 0 0 0 0 0
0 0 0 0 0 0 0 0 0 0 1 3 4 3 1 1 2 3 1 0 0 0 0 3 6 8 9 9 7 4 3 1 0 0 0 0 0 0 0 0 0 0 0 0 0 0 0 0 0
0 0 0 0 0 0 0 0 0 0 1 1 2 2 1 1 2 2 1 0 0 0 1 5 14 20 20 18 13 9 6 2 1 0 0 0 0 0 0 0 0 0 0 0 0 0 0 0 0
0 0 0 0 0 0 0 0 0 0 0 0 1 1 1 1 2 1 0 0 0 0 0 5 14 21 22 20 15 11 7 4 2 1 0 0 0 0 0 0 0 0 0 0 0 0 0 0 0
0 0 0 0 0 0 0 0 0 0 0 0 0 0 0 1 1 0 0 1 1 0 1 4 9 13 14 13 10 7 5 4 2 1 0 0 0 0 0 0 0 0 0 0 0 0 0 0 0
0 0 0 0 0 0 0 0 0 0 0 0 0 0 0 0 0 0 0 1 1 1 2 4 5 6 6 5 4 3 2 1 1 1 0 0 0 0 0 0 0 0 0 0 0 0 0 0 0
0 0 0 0 0 0 0 0 0 0 0 0 0 0 0 0 0 0 0 1 1 2 3 3 2 2 2 2 2 1 0 0 0 0 0 0 0 0 0 0 0 0 0 0 0 0 0 0 0
0 0 0 0 0 0 0 0 0 0 0 0 0 0 0 0 0 0 0 0 1 3 3 1 1 1 1 1 1 1 0 0 0 0 0 0 0 0 0 0 0 0 0 0 0 0 0 0 0
0 0 0 0 0 0 0 0 0 0 0 0 0 0 0 0 0 0 0 0 1 2 1 1 1 1 0 0 0 0 0 0 0 0 0 0 0 0 0 0 0 0 0 0 0 0 0 0 0
0 0 0 0 0 0 0 0 0 0 0 0 0 0 0 0 0 0 0 0 0 1 0 0 0 0 0 0 0 0 0 0 0 0 0 0 0 0 0 0 0 0 0 0 0 0 0 0 0

GEFSSGP_con_probscp_078.txt.gz
Probability
0 0 0 0 0 0 0 0 0 0 0 0 2 5 5 4 2 1 4 11 14 7 2 3 5 4 1 0 0 0 0 0 0 0 0 0 0 0 0 0 0 0 0 0 0 0 0 0 0
0 0 0 0 0 0 0 0 0 0 0 0 2 4 5 3 2 1 4 10 11 5 2 3 6 5 2 0 0 0 0 0 0 0 0 0 0 0 0 0 0 0 0 0 0 0 0 0 0
0 0 0 0 0 0 0 0 0 0 0 1 3 4 3 2 1 0 3 7 7 3 2 4 7 7 4 1 1 0 0 0 0 0 0 0 0 0 0 0 0 0 0 0 0 0 0 0 0
0 0 0 0 0 0 0 0 0 1 1 4 10 11 5 1 1 0 2 5 6 5 4 5 7 7 3 1 1 1 1 1 1 1 1 1 0 0 0 0 0 0 0 0 0 0 0 0 0
0 0 0 0 0 0 0 0 1 3 2 7 17 20 10 2 1 0 1 4 7 8 8 7 7 6 3 1 0 1 1 2 2 2 2 2 0 0 0 0 0 0 0 0 0 0 0 0 0
0 0 0 0 0 0 0 1 3 4 4 8 19 22 12 3 1 1 2 4 11 15 13 9 7 6 4 1 0 1 2 3 4 3 3 2 0 0 0 0 0 0 0 0 0 0 0 0 0
0 0 0 0 0 0 1 4 5 5 6 9 17 22 15 4 2 3 5 8 15 20 16 10 8 7 4 2 2 3 5 5 4 3 3 2 1 0 1 1 1 1 1 1 2 2 0 0 0
0 0 0 0 0 1 3 8 10 10 14 18 25 30 22 9 5 7 10 13 19 22 17 11 9 7 4 3 5 7 7 6 4 2 2 2 1 2 4 5 6 5 3 2 3 3 1 0 0
0 0 0 0 1 2 5 9 12 17 26 35 43 42 28 14 10 12 15 19 25 25 19 16 14 8 4 7 11 10 8 6 5 6 6 5 4 7 11 13 14 12 7 3 2 3 2 1 1
0 0 0 0 2 3 4 6 10 19 33 47 52 43 27 15 11 13 17 24 30 29 25 27 25 16 10 16 20 16 17 19 15 18 22 18 16 20 25 28 26 18 11 7 7 6 6 5 4
0 0 0 0 1 2 3 4 10 23 37 44 41 32 21 12 8 12 20 29 34 31 29 37 38 29 26 32 31 27 33 40 38 40 41 36 31 34 40 42 36 27 19 18 20 18 14 11 11
0 0 0 0 1 2 5 10 19 30 37 35 28 21 16 14 13 18 28 38 39 33 34 43 48 45 45 46 42 39 44 52 55 55 52 45 40 41 46 46 43 36 32 32 33 29 23 19 17
0 0 0 0 1 3 8 18 28 32 31 28 22 19 21 25 29 34 42 48 45 40 43 52 58 57 54 51 47 43 45 48 51 51 49 44 39 39 41 42 41 37 35 35 33 28 26 23 20
0 0 0 0 0 2 9 20 28 28 24 24 23 25 32 40 45 49 55 56 53 52 56 60 62 58 53 47 41 35 34 34 35 36 35 33 31 30 31 32 31 29 28 28 25 22 22 22 22
0 0 0 0 0 2 7 17 24 23 22 23 27 33 42 51 56 60 63 64 62 62 62 58 53 51 46 40 31 22 19 20 23 24 25 25 25 23 22 22 23 23 22 21 20 19 19 20 21
0 0 0 0 0 1 6 14 18 17 19 24 29 35 45 54 58 59 62 65 65 65 60 49 41 40 38 33 24 14 10 12 15 17 20 22 19 16 16 17 19 20 18 16 17 17 18 19 20
0 0 0 0 0 0 4 12 15 13 15 21 25 31 40 48 50 50 52 57 59 59 52 42 37 33 29 24 17 10 7 7 9 12 17 17 12 8 10 12 13 14 14 13 13 14 14 15 16
0 0 0 0 0 0 3 10 13 12 12 17 25 29 34 38 39 39 41 46 49 48 44 39 35 27 17 12 9 8 7 6 6 9 12 11 7 5 5 6 7 7 9 10 10 9 8 8 10
0 0 0 0 0 0 3 6 8 9 11 18 26 29 29 31 32 31 31 34 37 37 34 31 24 15 7 5 5 7 7 5 6 9 11 9 6 4 2 2 3 3 4 6 5 4 3 4 5
0 0 0 0 0 1 2 3 4 6 9 15 21 24 24 25 25 24 21 20 21 22 20 15 10 5 3 3 4 5 5 4 5 10 11 8 6 5 4 3 2 2 2 2 2 1 1 2 2
0 0 0 0 1 2 1 2 5 7 8 10 12 14 14 16 17 16 14 11 10 8 7 7 7 7 5 5 5 5 5 5 7 11 13 10 7 7 6 4 3 2 2 1 0 0 0 1 1
0 0 0 0 1 1 1 2 6 7 8 7 6 7 7 8 10 10 9 8 6 4 5 11 18 19 16 12 9 8 8 8 10 14 15 12 9 8 6 5 4 3 3 1 0 0 0 0 0
0 0 0 0 0 0 0 2 4 5 6 6 5 5 6 6 6 7 8 8 8 7 9 20 35 39 32 23 17 14 10 9 10 12 12 10 9 7 5 5 5 4 3 1 0 0 0 0 0
0 0 0 0 0 0 0 1 2 3 3 4 5 5 5 4 4 5 7 9 9 10 15 29 49 54 43 31 22 16 11 7 5 4 4 5 5 5 3 5 6 6 3 1 0 0 0 0 0
0 0 0 0 0 0 0 0 1 1 1 1 3 4 3 2 2 3 5 7 8 12 20 37 55 56 44 31 20 14 10 5 3 1 1 2 3 2 2 3 5 5 3 1 0 0 0 0 0
0 0 0 0 0 0 0 0 0 0 0 0 1 2 2 1 1 2 3 4 6 10 22 40 52 47 34 23 15 11 8 4 2 1 1 1 1 1 1 1 1 2 1 0 0 0 0 0 0
0 0 0 0 0 0 0 0 0 0 0 0 0 1 1 0 0 1 3 3 5 11 21 33 38 33 23 15 11 8 6 4 2 1 1 1 0 0 0 0 0 0 0 0 0 0 0 0 0
0 0 0 0 0 0 0 0 0 0 0 0 0 0 0 0 0 1 2 4 6 13 19 22 23 22 16 11 7 6 6 6 4 1 0 0 0 0 0 0 0 0 0 0 0 0 0 0 0
0 0 0 0 0 0 0 0 0 1 0 0 0 0 0 0 0 0 3 6 9 12 14 15 15 13 10 7 5 5 5 5 3 1 0 0 0 0 0 0 0 0 0 0 0 0 0 0 0
0 0 0 0 0 0 0 0 0 1 0 0 0 0 0 0 0 1 4 9 10 9 9 11 10 8 6 5 4 4 4 2 1 0 0 0 0 0 0 0 0 0 0 0 0 0 0 0 0

GEFSSGP_con_probscp_084.txt.gz
Probability
3 1 0 0 0 0 0 0 0 0 0 1 1 1 2 2 1 0 0 1 3 4 2 1 3 3 2 0 0 0 0 0 0 0 0 0 0 0 0 0 0 0 0 0 0 0 0 0 0
1 0 0 0 0 0 0 0 0 0 1 2 2 3 3 3 2 0 0 2 4 5 3 2 3 4 3 1 0 0 0 0 0 0 0 0 0 0 0 0 0 0 0 0 0 0 0 0 0
0 0 0 0 0 0 0 0 0 2 3 4 5 6 5 3 1 0 1 4 6 7 6 4 4 5 4 2 0 0 0 0 0 0 1 1 1 0 0 0 0 0 0 0 0 0 0 0 0
0 0 0 0 0 0 0 0 1 4 7 7 8 10 8 6 4 3 2 5 9 10 8 8 8 8 6 3 1 0 0 0 0 1 2 2 2 1 0 0 0 0 0 0 0 0 0 0 0
0 0 0 0 0 0 1 2 5 9 12 12 13 14 11 9 10 7 3 5 10 13 12 11 11 12 9 5 2 1 1 1 1 1 3 3 3 2 0 0 0 0 0 0 0 0 0 0 0
0 0 0 0 0 0 1 4 11 16 18 19 18 15 11 12 13 8 4 6 11 13 13 12 12 13 12 8 5 4 3 3 3 3 3 3 2 1 0 0 0 0 0 0 0 0 0 0 0
0 0 0 0 0 0 0 4 12 19 24 22 18 12 10 11 11 7 6 8 10 11 10 10 9 9 9 8 7 6 4 3 4 4 3 2 1 1 1 1 1 0 0 0 0 0 0 0 0
0 0 0 0 0 0 1 3 8 18 25 22 16 12 11 12 13 12 11 10 9 6 5 5 4 4 4 5 5 4 3 2 2 2 1 0 0 1 2 2 2 1 1 0 0 0 0 0 0
0 0 0 0 0 1 2 3 7 16 24 24 21 19 19 21 23 23 19 14 7 3 2 2 1 1 1 1 2 1 1 0 0 0 0 0 0 1 2 3 3 2 1 0 0 0 1 2 2
0 0 0 0 0 1 2 4 8 16 23 26 27 27 26 29 33 30 23 15 7 3 3 2 1 0 0 0 0 0 1 1 1 1 1 1 1 2 3 4 3 2 1 0 0 1 3 5 5
0 0 0 0 0 0 1 4 9 15 19 22 26 27 28 30 32 29 21 14 9 5 3 3 1 0 0 0 1 1 2 3 4 4 4 2 2 3 4 4 3 2 2 1 0 1 3 5 6
0 0 0 1 1 0 1 4 10 14 14 16 19 23 27 28 26 22 18 14 11 7 5 4 3 3 3 2 1 1 2 3 4 6 5 3 1 2 2 2 2 1 2 1 0 0 2 3 3
0 0 1 2 1 1 2 5 10 11 12 14 17 21 23 23 19 16 15 17 17 14 11 8 8 11 10 6 2 1 2 2 2 3 3 1 0 0 0 1 1 1 1 1 0 0 0 1 1
0 0 1 1 1 2 4 5 7 8 10 12 17 21 20 16 16 16 17 21 22 20 18 16 14 14 13 8 3 2 2 1 0 1 1 1 0 0 0 1 1 0 0 0 0 0 0 0 0
0 0 0 1 1 1 3 4 5 6 8 12 18 20 17 13 15 19 22 23 23 21 20 18 14 11 8 5 2 1 1 0 0 0 0 0 0 0 0 0 0 0 0 0 0 0 0 0 0
0 0 0 0 1 1 1 3 4 6 8 11 16 18 14 13 17 21 23 22 19 17 15 13 10 7 3 1 0 1 1 0 0 0 0 0 0 0 0 0 0 0 0 0 0 0 0 0 0
0 0 0 0 0 0 0 1 3 6 9 11 14 17 15 14 17 20 21 20 17 14 11 7 5 5 3 1 0 1 1 0 0 0 0 0 0 0 0 0 0 0 0 0 0 0 0 0 0
0 0 0 0 0 0 1 1 2 5 9 11 14 17 16 13 13 14 16 17 16 12 8 5 3 3 2 1 0 1 1 0 0 0 0 0 0 0 0 0 0 0 0 0 0 0 0 0 0
0 0 0 0 0 0 1 2 3 6 9 11 13 14 13 10 8 8 10 12 13 11 6 3 2 1 1 0 0 0 0 0 0 0 0 0 0 0 0 0 0 0 0 0 0 0 0 0 0
0 0 0 0 0 0 1 2 2 4 6 8 8 9 9 7 5 5 6 7 9 7 3 1 1 0 0 0 0 0 0 0 0 0 0 0 0 0 0 0 0 0 0 0 0 0 0 0 0
0 0 0 0 0 0 0 1 1 1 2 3 4 5 5 4 3 3 5 5 4 3 1 0 0 0 0 0 0 0 0 0 0 0 0 0 0 0 0 0 0 0 0 0 0 0 0 0 0
0 0 0 0 0 0 0 0 0 1 1 1 1 1 1 1 1 3 5 4 2 1 0 0 0 0 0 0 0 0 0 0 0 0 0 0 0 0 0 0 0 0 0 0 0 0 0 0 0
0 0 0 0 0 0 0 0 1 3 2 1 0 0 0 1 2 3 4 4 2 1 0 0 0 0 0 0 0 0 0 0 0 0 0 0 0 0 0 0 0 0 0 0 0 0 0 0 0
0 0 0 0 0 0 0 0 1 2 2 1 0 0 0 1 2 3 4 3 2 1 0 0 0 0 0 0 0 0 0 0 0 0 0 0 0 0 0 0 0 0 0 0 0 0 0 0 0
0 0 0 0 0 0 0 0 0 1 1 1 0 0 0 1 1 1 2 2 1 0 0 0 0 0 0 0 0 0 0 0 0 0 0 0 0 0 0 0 0 0 0 0 0 0 0 0 0
0 0 0 0 0 0 0 0 0 0 0 0 0 0 0 0 0 0 1 1 0 0 0 0 0 0 0 0 0 0 0 0 0 0 0 0 0 0 0 0 0 0 0 0 0 0 0 0 0
0 0 0 0 0 0 0 0 0 0 0 0 0 0 0 0 0 0 0 0 0 0 0 0 0 0 0 0 0 0 0 0 0 0 0 0 0 0 0 0 0 0 0 0 0 0 0 0 0
0 0 0 0 0 0 0 0 0 0 0 0 0 0 0 0 0 0 0 0 0 0 0 0 0 1 1 1 0 0 0 0 0 0 0 0 0 0 0 0 0 0 0 0 0 0 0 0 0
0 0 0 0 0 0 0 0 0 0 0 0 0 0 0 0 0 0 0 0 0 0 0 0 0 1 2 2 0 0 0 0 0 0 0 0 0 0 0 0 0 0 0 0 0 0 0 0 0
0 0 0 0 0 0 0 0 0 0 0 0 0 0 0 0 0 0 0 0 1 1 1 0 0 1 2 1 0 0 0 0 0 0 0 0 0 0 0 0 0 0 0 0 0 0 0 0 0

GEFSSGP_con_probscp_090.txt.gz
Probability
0 0 0 0 0 0 0 0 0 0 1 1 0 0 0 0 0 0 0 1 2 2 2 5 8 7 5 6 6 6 4 2 2 2 1 0 0 0 0 0 0 0 0 0 0 1 0 0 0
0 0 0 0 0 0 0 0 0 1 2 2 1 0 0 0 0 0 1 1 2 2 3 5 8 8 7 7 7 6 4 2 1 1 0 0 0 0 0 0 0 0 0 0 0 1 0 0 0
0 0 0 0 0 0 0 0 1 2 3 3 2 1 0 0 0 1 2 2 3 3 4 6 9 9 10 10 9 7 5 3 1 0 0 0 1 1 1 0 0 0 0 0 0 0 0 0 0
0 0 0 0 0 0 0 0 1 2 2 2 2 1 0 0 1 3 5 6 6 7 7 8 9 11 12 13 10 8 6 5 3 1 0 0 1 2 1 0 0 0 0 0 0 0 0 0 0
0 0 0 0 0 0 0 0 1 2 1 1 2 2 2 1 3 7 11 11 12 14 13 11 11 12 12 12 10 8 7 6 4 1 0 0 1 1 0 0 0 0 0 0 1 1 1 0 0
0 0 0 0 0 0 0 0 1 3 2 2 4 5 4 4 7 12 15 14 17 21 22 18 14 12 11 10 8 7 7 6 4 1 0 0 0 0 0 0 0 1 1 1 1 2 1 0 0
0 0 0 0 0 0 0 1 3 5 4 4 7 9 8 8 11 15 18 18 19 25 27 23 16 11 9 7 6 5 5 4 2 0 0 0 0 0 0 0 0 2 2 1 1 1 1 0 0
0 0 0 0 0 0 0 1 3 4 5 6 8 10 11 13 18 22 23 22 21 22 24 23 18 13 9 6 3 3 3 2 1 0 0 0 0 0 0 0 0 1 1 1 0 0 0 1 1
0 0 0 0 0 0 0 0 1 3 5 8 9 11 16 22 29 31 28 24 19 16 17 19 18 15 10 6 3 2 2 2 1 0 0 0 0 0 0 0 0 1 1 0 0 0 1 2 3
0 0 0 0 0 1 1 1 1 3 7 10 14 18 25 32 34 32 27 21 15 12 13 16 16 14 10 6 2 2 2 2 2 1 0 0 0 0 0 0 0 1 0 0 0 0 2 2 2
0 0 0 0 1 2 2 3 4 5 8 11 19 26 33 35 31 24 20 15 11 9 11 13 12 10 7 3 1 2 2 2 2 1 0 0 0 1 1 0 0 0 0 0 0 0 1 1 1
0 0 0 0 1 3 3 3 4 5 7 12 22 30 33 32 25 17 13 12 10 8 8 9 8 6 4 1 1 2 2 1 1 0 0 0 1 2 1 0 0 0 0 0 0 0 0 0 0
0 0 0 0 1 3 2 2 2 3 5 12 21 27 28 27 22 15 11 10 9 7 5 4 4 3 2 1 0 1 1 0 0 0 0 1 2 2 1 0 0 0 0 0 0 0 0 0 0
0 0 0 0 1 2 2 1 1 1 3 9 16 21 22 22 20 15 12 8 6 5 4 3 2 2 1 0 0 0 0 0 0 0 0 1 2 1 0 0 0 0 0 0 0 0 0 0 0
0 0 0 0 0 1 1 1 0 1 3 6 10 14 16 16 15 14 11 7 4 3 2 2 2 1 0 0 0 0 0 0 0 0 0 1 1 0 0 0 0 0 0 0 0 0 0 0 0
0 0 0 0 0 0 0 0 1 2 3 4 6 9 10 10 11 12 11 7 3 2 2 3 2 1 0 0 0 0 0 0 0 0 0 0 0 0 0 0 0 0 0 0 0 0 0 0 0
0 0 0 0 0 0 0 0 1 3 4 4 4 5 6 6 7 9 9 6 4 3 4 5 3 1 0 0 0 0 0 0 0 0 0 0 0 0 0 0 0 0 0 0 0 0 0 0 0
0 0 0 0 0 0 0 0 1 4 6 5 3 4 5 6 5 6 7 7 7 7 7 6 3 1 0 0 0 0 0 0 0 0 0 0 0 0 0 0 0 0 0 0 0 0 0 0 0
0 0 0 0 0 0 0 0 1 4 6 5 4 4 5 5 5 5 6 7 9 9 7 4 2 0 0 0 0 0 0 0 0 0 0 0 0 0 0 0 0 0 0 0 0 0 0 0 0
0 0 0 0 0 0 0 0 1 3 4 4 3 3 4 4 3 4 4 6 7 7 4 2 0 0 0 0 0 0 0 0 0 0 0 0 0 0 0 0 0 0 0 0 0 0 0 0 0
0 0 0 0 0 0 0 0 0 1 1 1 1 1 2 2 2 2 3 4 4 4 2 0 0 0 0 0 0 0 0 0 0 0 0 0 0 0 0 0 0 0 0 0 0 0 0 0 0
0 0 0 0 0 0 0 0 0 0 0 0 0 0 1 1 1 2 3 3 3 3 2 1 0 0 0 0 0 0 0 0 0 0 0 0 0 0 0 0 0 0 0 0 0 0 0 0 0
0 0 0 0 0 0 0 0 0 0 0 0 0 0 0 1 2 2 3 3 3 3 2 1 0 0 0 0 0 0 0 0 0 0 0 0 0 0 0 0 0 0 0 0 0 0 0 0 0
0 0 0 0 0 0 0 0 0 0 0 0 0 0 0 1 2 1 1 3 3 2 2 1 0 0 0 0 0 0 0 0 0 0 0 0 0 0 0 0 0 0 0 0 0 0 0 0 0
0 0 0 0 0 0 0 0 0 0 0 0 0 0 0 1 2 1 1 2 3 2 2 2 1 0 0 0 0 0 0 0 0 0 0 0 0 0 0 0 0 0 0 0 0 0 0 0 0
0 0 0 0 0 0 0 0 0 0 0 0 0 0 0 1 2 1 1 2 3 3 2 2 2 1 0 0 0 0 0 0 0 0 0 0 0 0 0 0 0 0 0 0 0 0 0 0 0
0 0 0 0 0 0 0 0 0 0 0 0 0 0 0 0 1 1 0 1 2 2 2 2 2 1 0 0 0 0 0 0 0 0 0 0 0 0 0 0 0 0 0 0 0 0 0 0 0
0 0 0 0 0 0 0 0 0 0 0 0 0 0 0 0 0 0 0 0 1 1 2 2 2 1 0 0 0 0 0 0 0 0 0 0 0 0 0 0 0 0 0 0 0 0 0 0 0
0 0 0 0 0 0 0 0 0 0 0 0 0 0 0 0 0 0 0 0 0 1 2 2 1 0 0 0 0 0 0 0 0 0 0 0 0 0 0 0 0 0 0 0 0 0 0 0 0
0 0 0 0 0 0 0 0 0 0 0 0 0 0 0 0 0 0 0 0 0 1 2 1 0 0 0 0 0 0 0 0 0 0 0 0 0 0 0 0 0 0 0 0 0 0 0 0 0

GEFSSGP_con_probscp_096.txt.gz
Probability
0 0 0 0 0 0 0 0 0 0 0 0 0 0 0 0 1 2 1 1 1 1 0 2 4 3 1 1 3 4 2 1 0 0 0 0 0 0 0 0 0 0 0 0 0 0 0 0 0
0 0 0 0 0 0 0 0 0 0 0 0 0 0 0 0 1 2 1 2 3 3 1 2 4 3 1 1 2 2 1 0 0 0 0 0 0 0 0 0 0 0 0 0 0 0 0 0 0
0 0 0 0 0 0 0 0 0 0 0 0 0 0 0 0 1 2 2 4 5 5 3 3 3 3 2 1 1 1 0 0 0 0 0 0 0 0 0 0 0 0 0 0 0 0 0 0 0
0 0 0 0 0 0 0 0 0 0 0 0 0 1 1 0 1 2 4 6 7 5 3 3 4 4 3 1 2 2 2 1 1 1 1 0 0 0 0 0 0 0 0 0 0 0 0 0 0
0 0 0 0 0 0 0 0 0 0 0 0 1 2 3 2 2 3 5 8 7 4 3 4 6 6 4 2 3 3 3 3 2 2 1 0 0 0 0 0 0 0 0 0 0 0 0 0 0
0 0 0 0 0 0 0 0 0 0 0 0 1 3 5 7 6 6 7 8 5 3 3 4 7 7 5 3 3 4 4 3 3 1 0 0 0 0 0 0 0 0 0 0 0 0 0 0 0
0 0 0 0 0 0 0 0 0 0 0 0 0 2 9 15 16 13 11 10 6 3 3 4 5 5 4 3 4 4 3 3 2 1 0 0 0 0 0 0 0 0 0 0 0 0 0 0 0
0 0 0 0 0 0 0 0 0 0 0 0 1 5 15 26 29 26 22 17 10 6 5 4 3 2 2 2 4 4 4 3 1 0 0 0 0 0 0 0 0 0 0 0 0 0 0 0 0
0 0 0 0 0 0 0 0 0 0 0 0 2 10 25 38 41 40 35 25 15 7 6 5 3 2 2 2 3 4 3 3 1 0 0 0 0 0 0 0 0 0 1 0 0 0 0 0 0
0 0 0 0 0 0 0 0 0 0 0 0 4 17 34 45 48 46 41 31 18 9 6 5 3 3 3 2 3 3 4 4 3 1 1 1 1 1 1 0 0 0 0 0 0 0 0 0 0
0 0 0 0 0 0 0 0 0 0 0 2 8 22 37 44 45 44 40 32 22 13 7 4 4 4 4 4 4 4 5 6 5 4 3 4 4 3 2 1 1 0 0 0 1 1 0 0 0
0 0 0 0 0 0 0 0 0 0 1 3 10 24 36 39 38 37 35 32 27 18 10 8 8 7 6 5 5 5 6 7 6 5 4 3 3 3 4 3 2 1 0 1 2 1 0 0 0
0 0 0 0 0 0 0 0 0 0 1 4 10 22 32 33 30 31 33 34 30 23 16 14 13 10 7 6 6 6 6 5 4 4 2 1 1 3 4 4 4 3 2 2 2 1 0 0 0
0 0 0 0 0 0 0 0 0 1 2 5 11 19 25 27 25 27 32 33 29 22 20 19 15 11 8 6 6 7 6 3 2 2 1 0 0 2 3 4 4 4 4 3 2 0 0 0 0
0 0 0 0 0 0 0 0 0 0 2 6 12 16 20 22 21 22 25 25 21 18 20 19 15 12 9 7 7 7 4 1 1 1 1 0 0 1 2 2 3 5 6 5 3 1 0 0 0
0 0 0 0 0 0 0 0 0 0 2 7 11 13 17 18 17 16 16 15 14 14 16 16 13 11 11 9 8 6 2 0 0 1 1 0 0 1 1 1 1 3 5 5 3 1 0 0 0
0 0 0 0 0 0 0 1 1 1 2 7 11 11 14 16 15 14 14 14 13 12 13 14 12 12 13 11 8 4 1 0 0 0 0 0 0 0 0 0 0 1 2 3 3 1 0 0 0
0 0 0 0 0 0 0 1 2 2 2 6 9 10 12 14 15 16 15 15 14 13 13 13 14 15 14 10 6 2 0 0 0 0 0 0 0 0 0 0 0 1 1 1 1 1 0 0 0
0 0 0 0 0 0 0 0 1 1 2 4 7 8 9 10 12 14 13 12 12 13 14 14 15 15 11 7 4 2 1 0 0 0 0 0 0 0 0 0 0 0 0 0 0 0 0 0 0
0 0 0 0 0 0 0 0 1 1 1 2 5 6 6 6 8 9 9 9 11 13 14 16 15 13 9 6 4 3 2 1 0 0 0 0 0 0 0 0 0 0 0 0 0 0 0 0 0
0 0 0 0 0 0 0 0 1 0 0 0 2 3 3 4 4 5 6 8 10 12 14 15 14 11 8 5 3 3 2 1 1 1 1 0 0 0 0 0 0 0 0 0 0 0 0 0 0
0 0 0 0 0 0 0 0 0 0 0 0 0 1 1 2 2 4 5 5 7 9 11 12 11 9 7 5 3 1 1 1 2 2 1 0 0 0 0 0 0 0 0 0 0 0 0 0 0
0 0 0 0 0 0 0 0 0 0 0 0 0 0 1 1 1 2 4 4 4 6 9 11 10 9 8 7 5 2 1 1 2 2 1 0 0 0 0 0 0 0 0 0 0 0 0 0 0
0 0 0 0 0 0 0 0 0 0 0 0 0 0 1 1 1 1 3 4 4 6 8 10 10 10 9 8 6 3 1 1 1 1 0 0 0 0 0 0 0 0 0 0 0 0 0 0 0
0 0 0 0 0 0 0 0 0 0 0 0 0 0 1 2 1 0 2 4 5 5 5 7 10 10 8 6 5 3 2 1 0 0 0 0 0 0 1 1 1 0 0 0 0 0 0 0 0
0 0 0 0 0 0 0 0 0 0 0 0 0 0 1 2 2 1 2 4 5 4 3 6 10 10 7 4 3 3 2 1 0 0 0 0 1 1 2 2 2 1 0 0 0 0 0 0 0
0 0 0 0 0 0 0 0 0 0 0 0 0 0 0 1 2 1 2 4 5 6 6 8 10 8 4 2 3 3 3 1 1 0 1 1 2 3 3 3 3 2 0 0 0 0 0 0 0
0 0 0 0 0 0 0 0 0 0 0 0 0 0 0 0 1 1 1 2 4 6 7 7 7 5 2 1 2 3 3 3 2 2 2 3 3 3 3 3 3 1 0 0 0 0 0 0 0
0 0 0 0 0 0 0 0 0 0 0 0 0 0 0 0 0 0 0 0 2 4 5 5 5 4 2 3 6 8 9 7 5 4 4 5 5 4 3 3 2 1 0 0 0 0 0 0 0
0 0 0 0 0 0 0 0 0 0 0 0 0 0 0 0 0 0 0 0 1 2 3 4 4 4 3 6 11 15 16 13 8 6 6 7 7 5 4 3 2 1 0 0 0 0 0 0 0

GEFSSGP_con_probscp_102.txt.gz
Probability
0 0 0 0 0 1 1 1 1 1 1 0 0 0 1 2 3 2 5 21 36 32 22 18 12 6 2 1 0 0 0 0 0 0 0 0 0 0 0 0 0 0 0 0 0 0 0 0 0
0 0 0 0 0 0 0 1 2 2 1 0 0 0 1 4 4 4 10 25 34 30 23 20 14 7 3 2 1 0 0 0 0 0 0 0 0 0 0 0 0 0 0 0 0 0 0 0 0
0 0 0 0 0 0 0 1 2 2 1 0 0 1 3 4 4 7 16 28 33 29 26 24 18 10 5 3 1 1 0 0 0 0 0 0 0 0 0 0 0 0 0 0 0 0 0 0 0
0 0 0 0 0 0 0 0 1 1 0 0 1 4 8 7 5 9 19 30 34 31 27 25 21 13 6 3 2 1 0 0 0 0 0 0 0 0 0 0 0 0 0 0 0 0 0 0 0
0 0 0 0 0 0 0 0 0 0 0 0 2 9 15 12 9 13 20 27 30 28 25 23 20 14 7 4 3 2 0 0 0 0 0 0 0 0 0 0 0 0 0 0 0 0 0 0 0
0 0 0 0 0 0 0 0 0 0 1 1 4 15 23 20 16 19 20 22 25 26 24 22 18 13 8 4 3 2 0 0 0 0 0 0 0 0 0 0 0 0 0 0 0 0 0 0 0
0 0 0 0 0 0 0 0 0 0 1 1 5 20 32 31 26 24 23 23 27 29 25 19 15 10 7 5 3 2 1 1 0 0 0 0 0 0 0 0 0 0 0 0 0 0 0 0 0
0 0 0 0 0 0 0 0 0 0 0 1 9 27 42 40 32 28 27 28 33 34 26 16 11 8 6 5 4 3 2 2 1 0 0 0 0 0 0 0 0 0 0 0 0 0 0 0 0
0 0 0 0 0 0 0 0 0 0 1 6 21 40 48 43 36 34 33 36 43 41 28 16 11 8 5 4 3 3 3 2 1 0 0 0 0 0 0 1 1 0 0 0 0 0 0 0 0
0 0 0 0 0 0 0 0 0 1 5 17 37 52 51 44 42 43 42 46 54 50 33 22 20 15 9 6 4 4 4 2 1 0 0 1 1 0 1 2 2 1 0 0 0 0 0 0 0
0 0 0 0 0 0 0 0 0 3 11 27 48 58 53 47 49 50 51 55 59 55 42 36 36 30 22 15 10 7 6 5 3 2 2 2 2 2 2 3 3 2 0 0 0 0 0 0 0
0 0 0 0 0 0 0 0 1 6 15 28 45 55 52 47 49 55 58 60 61 58 52 50 52 48 40 31 21 14 9 7 7 7 6 4 3 3 3 4 5 3 1 0 0 1 1 0 0
0 0 0 0 0 0 0 0 3 10 16 22 34 47 49 45 48 56 62 63 63 61 60 61 62 60 55 48 37 24 17 15 13 13 11 6 3 3 4 5 6 4 2 1 1 1 1 1 1
0 0 0 0 0 0 0 0 4 11 15 19 28 39 45 43 46 53 59 63 63 63 64 65 65 64 61 55 45 33 24 21 16 13 11 6 3 2 3 5 6 5 3 2 2 2 2 2 2
0 0 0 0 0 0 0 2 6 12 16 19 27 36 42 44 45 51 55 59 60 61 63 62 60 59 59 54 44 32 24 17 13 10 8 4 2 1 2 3 4 5 4 4 4 3 3 2 1
0 0 0 0 0 0 1 5 12 16 17 20 27 36 43 47 48 50 52 53 54 55 58 58 55 55 56 51 41 30 21 13 10 9 7 4 2 2 2 1 2 4 5 5 5 5 4 2 1
0 0 0 0 0 0 1 7 15 17 16 19 28 38 46 50 50 48 47 47 47 49 52 55 57 56 53 47 38 28 20 13 10 9 6 4 2 2 1 1 0 1 3 4 5 5 4 1 0
0 0 0 0 0 0 1 5 12 16 16 20 29 40 46 48 48 45 42 42 43 45 48 51 55 55 48 40 31 23 17 13 10 7 4 3 2 1 0 0 0 0 2 3 4 4 2 1 0
0 0 0 0 0 0 1 4 10 15 17 20 29 40 44 45 44 42 41 40 41 42 43 44 48 48 42 33 25 19 15 12 9 5 2 1 1 0 0 0 0 0 1 1 1 1 1 0 0
0 0 0 0 0 0 2 6 10 14 15 19 27 35 39 41 42 42 39 39 38 38 37 38 41 40 33 25 19 15 12 10 7 3 1 0 0 0 0 0 0 0 0 0 0 0 0 0 0
0 0 0 0 0 0 1 5 9 12 13 17 23 27 31 34 37 38 36 34 33 33 31 31 34 32 27 21 15 12 9 6 4 2 0 0 0 0 0 0 0 0 0 0 0 0 0 0 0
0 0 0 0 0 0 1 3 7 10 12 15 18 20 23 26 29 31 30 28 28 28 27 27 30 29 25 20 15 10 5 3 2 1 1 0 0 0 0 0 0 0 0 0 0 0 0 0 0
0 0 0 0 0 1 1 2 4 8 10 11 13 14 17 20 22 23 23 23 23 24 25 27 30 30 26 21 16 10 4 2 2 2 3 2 0 0 0 0 1 1 1 1 1 1 0 0 0
0 0 0 0 1 1 0 1 2 5 6 7 8 10 12 15 17 18 18 18 18 19 23 27 30 29 25 21 16 10 4 3 4 4 4 2 0 0 0 1 2 3 2 2 2 2 1 0 0
0 0 0 0 0 0 0 0 1 2 4 4 4 6 7 9 13 16 17 15 16 18 22 26 27 24 20 18 14 9 5 3 3 3 2 1 0 1 2 3 4 4 3 3 3 3 2 1 0
0 0 0 0 0 0 0 0 0 1 2 2 3 3 3 5 8 13 15 15 17 20 24 27 27 22 17 15 13 11 7 4 2 1 1 0 0 2 5 5 5 4 4 4 4 3 3 2 1
0 0 0 0 0 0 0 0 1 1 1 1 1 1 2 2 4 9 12 15 17 22 27 30 28 23 19 16 15 14 11 7 3 2 1 0 1 4 7 8 7 6 5 5 5 4 3 2 2
0 0 0 0 0 0 0 0 1 1 1 1 0 1 1 2 2 5 10 15 18 24 29 31 28 25 22 20 16 14 13 11 7 4 3 3 5 9 12 12 10 8 8 7 6 4 3 3 3
0 0 0 0 0 0 0 0 0 0 0 0 0 0 1 2 2 4 9 15 19 24 30 32 29 26 23 21 18 16 17 18 15 12 11 11 13 17 18 15 13 11 11 10 7 4 3 3 2
0 0 0 0 0 0 0 0 0 0 0 0 0 0 1 3 2 3 9 16 20 24 29 31 29 26 23 21 19 19 22 25 23 20 18 19 21 23 21 18 15 12 12 12 8 5 3 2 1

GEFSSGP_con_probscp_108.txt.gz
Probability
1 1 0 0 0 0 0 0 0 0 1 3 6 8 7 4 2 1 0 3 10 13 11 11 11 7 4 2 1 0 0 0 0 0 0 0 0 0 0 0 0 0 0 0 0 0 0 0 0
1 0 0 0 0 0 0 0 0 1 3 6 10 12 8 3 1 0 1 6 15 19 17 15 13 9 5 3 2 1 0 0 0 0 0 0 0 0 0 0 0 0 0 0 0 0 0 0 0
0 0 0 0 0 0 0 1 2 4 6 11 16 16 9 3 2 2 5 13 22 25 23 21 20 15 9 5 4 2 1 0 0 0 0 0 0 0 0 0 0 0 0 0 0 0 0 0 0
0 0 0 0 0 0 0 1 4 6 10 17 23 21 12 7 9 10 14 22 30 31 27 26 27 22 13 7 4 3 1 0 0 0 0 0 0 0 0 0 0 0 0 0 0 0 0 0 0
0 0 0 0 0 0 0 2 5 8 15 26 34 29 19 19 26 27 26 30 38 40 35 32 32 26 16 9 5 3 2 0 0 0 0 0 0 0 0 0 0 0 0 0 0 0 0 0 0
0 0 0 0 0 0 0 2 6 11 21 34 41 36 29 34 44 41 33 35 43 47 43 38 32 23 15 10 6 4 2 1 0 0 0 0 0 0 0 0 0 0 0 0 0 0 0 0 0
0 0 0 0 0 0 0 2 6 14 26 36 43 42 38 42 48 43 35 37 44 49 47 40 29 19 13 9 6 4 3 1 0 0 0 0 0 0 0 0 0 0 0 0 0 0 0 0 0
0 0 0 0 0 0 0 2 7 18 29 38 43 45 45 47 49 45 39 38 43 46 45 38 27 16 10 7 5 3 3 2 0 0 0 0 0 0 0 0 0 0 0 0 0 0 0 0 0
0 0 0 0 0 0 0 2 9 23 36 42 45 49 54 57 57 52 46 42 42 42 38 33 25 15 9 6 5 4 4 2 0 0 0 0 0 0 0 0 0 0 0 0 0 0 0 0 0
0 0 0 0 0 0 0 2 10 26 39 46 50 54 60 63 62 58 51 46 41 36 31 26 21 16 9 6 6 6 5 2 1 0 0 0 0 0 0 0 0 0 0 0 0 1 0 0 0
0 0 0 0 0 0 0 1 8 20 31 43 52 54 56 58 60 57 52 47 40 34 29 23 18 14 10 7 6 5 4 3 1 0 0 0 0 0 0 0 0 0 0 0 0 0 0 0 0
0 0 0 0 0 0 0 1 6 15 25 40 51 51 49 52 55 54 50 45 38 33 27 21 15 10 8 7 5 3 3 2 1 0 0 0 0 0 0 0 0 0 0 0 0 0 0 0 0
0 0 0 0 0 1 1 2 7 17 31 42 48 48 45 46 48 49 47 43 37 30 25 20 14 8 5 4 3 3 3 2 1 0 0 0 0 0 0 0 0 0 0 0 0 0 0 0 0
0 0 0 0 0 1 2 3 8 23 38 44 42 41 39 40 44 46 44 42 37 31 26 22 17 12 7 4 3 4 3 2 0 0 0 0 0 0 0 0 0 0 0 0 0 0 0 0 0
0 0 0 0 0 0 1 3 11 28 42 43 37 34 35 36 41 43 43 42 41 38 33 29 25 19 13 8 5 4 3 1 0 0 0 0 0 0 0 0 0 0 0 0 0 0 0 0 0
0 0 0 0 0 0 0 2 12 30 44 42 36 34 34 35 36 39 41 43 44 42 38 34 31 26 19 12 8 5 2 1 0 0 0 0 0 0 0 0 0 0 0 0 0 0 0 0 0
0 0 0 0 0 0 0 2 11 28 40 40 35 33 33 32 33 35 39 42 42 41 37 35 33 28 21 15 11 6 2 1 0 0 0 0 0 0 0 0 0 0 0 0 0 0 0 0 0
0 0 0 0 0 0 0 2 9 23 34 35 31 29 28 27 27 29 34 37 38 37 35 33 31 26 19 15 12 7 3 1 0 0 0 0 0 0 0 0 0 0 0 0 0 0 0 0 0
0 0 0 0 0 0 1 3 8 18 26 27 27 25 23 22 21 24 28 32 35 34 31 30 28 22 15 12 12 8 3 1 0 0 0 0 0 0 0 0 0 0 0 0 0 0 0 0 0
0 0 0 0 0 0 1 3 6 11 15 18 21 22 21 20 19 20 23 28 30 29 27 25 23 18 11 10 11 8 4 1 1 1 0 0 0 0 0 0 0 0 0 0 0 0 0 0 0
0 0 0 0 1 1 1 2 4 5 7 11 14 17 19 18 16 17 20 23 24 23 21 19 17 14 11 9 9 8 5 3 2 1 0 0 0 0 0 0 0 0 0 0 0 0 0 0 0
0 0 0 0 0 0 0 0 1 2 3 6 8 12 15 14 13 14 18 20 19 18 18 16 14 11 9 7 7 7 5 2 1 1 0 0 0 0 0 0 0 0 0 0 0 0 0 0 0
0 0 0 0 0 0 0 0 0 0 1 2 3 6 10 11 11 12 14 16 15 15 16 16 13 10 7 5 4 3 2 0 0 0 0 0 0 0 0 0 0 0 0 0 0 0 0 0 0
0 0 0 0 0 0 0 0 0 0 0 0 0 3 6 9 9 9 10 11 11 12 14 14 11 8 7 6 3 1 0 0 0 0 0 0 0 0 0 0 0 0 0 0 0 0 0 0 0
0 0 0 0 0 0 0 0 0 0 0 0 0 2 5 6 7 7 7 8 9 11 11 9 7 6 7 7 4 1 0 0 0 0 0 0 0 0 0 0 0 0 0 0 0 0 0 0 0
0 0 0 0 0 0 0 0 0 0 0 0 1 3 5 5 4 5 6 8 10 10 8 6 4 5 5 6 5 2 1 0 0 0 0 0 0 0 0 0 0 0 0 0 0 0 0 0 0
0 0 0 0 0 0 0 0 0 0 0 0 1 2 4 3 2 4 6 7 8 9 8 6 5 4 4 4 4 3 1 0 0 0 0 0 0 0 0 0 0 0 0 1 1 1 0 0 0
0 0 0 0 0 0 0 0 0 0 0 0 0 1 1 1 1 3 5 5 6 7 7 7 5 4 4 4 3 3 1 0 0 0 0 0 0 0 0 0 0 0 1 2 2 2 1 0 0
0 0 0 0 0 0 0 0 0 0 0 0 1 1 1 0 1 2 3 4 5 7 8 7 7 6 5 5 4 4 2 1 0 0 0 0 0 0 0 0 0 0 1 2 3 3 2 1 0
0 0 0 0 0 0 0 0 0 0 0 0 1 2 2 1 0 1 2 3 4 7 9 9 8 9 7 6 5 5 3 1 0 0 0 0 0 0 0 0 0 0 1 2 3 3 3 2 1

GEFSSGP_con_probscp_114.txt.gz
Probability
0 0 0 0 0 0 0 0 0 0 0 0 1 0 0 0 0 0 0 0 2 5 6 6 5 3 1 0 1 0 0 0 0 0 0 0 0 0 0 0 0 0 0 0 0 0 0 0 0
0 0 0 0 0 0 0 0 0 0 0 0 1 0 0 0 0 0 0 0 2 5 6 5 7 6 4 3 3 2 1 1 1 0 0 0 0 0 0 0 0 0 0 0 0 0 0 0 0
0 0 0 0 0 0 0 0 0 0 0 1 1 1 0 0 0 0 1 3 6 7 7 7 9 10 8 7 7 6 4 3 2 1 1 1 0 0 0 0 0 0 0 0 0 0 0 0 0
0 0 0 0 0 0 0 0 0 1 1 2 4 3 1 1 2 2 4 9 13 12 11 11 12 13 12 11 9 8 5 4 3 3 2 2 1 0 0 0 0 0 0 0 0 0 0 0 0
0 0 0 0 0 0 0 0 0 1 3 6 10 8 3 2 5 7 10 15 19 19 17 17 16 15 14 12 10 7 5 3 3 3 3 2 1 0 0 0 0 0 0 0 0 0 0 0 0
0 0 0 0 0 0 0 1 0 1 6 13 17 13 8 8 12 15 16 17 22 26 25 22 19 17 17 14 9 5 4 3 2 3 2 1 0 0 0 0 0 0 0 0 0 0 0 0 0
0 0 0 0 0 0 0 0 1 3 9 17 21 18 13 16 21 24 22 22 25 30 32 29 24 21 20 16 9 5 3 2 1 2 2 1 0 0 0 0 0 0 0 0 0 0 0 0 0
0 0 0 0 0 0 0 0 2 7 14 20 22 19 19 26 34 35 34 32 31 32 34 33 29 26 23 17 10 5 3 1 1 1 1 0 0 0 0 0 0 0 0 0 0 0 0 0 0
0 0 0 0 0 0 0 1 5 13 21 23 21 21 28 40 47 47 48 44 37 32 32 32 30 28 25 18 10 5 3 2 1 1 1 1 1 1 0 0 0 0 0 0 0 0 0 0 0
0 0 0 0 0 0 0 2 8 17 22 21 21 28 43 54 55 53 53 50 42 35 33 32 30 27 24 19 12 8 5 3 1 1 2 2 2 2 1 0 0 0 0 0 0 0 0 0 0
0 0 0 0 0 0 0 2 8 15 18 19 26 42 57 60 55 52 50 48 43 38 36 34 30 26 24 22 18 12 7 3 1 1 2 3 3 2 1 0 0 0 0 0 0 0 0 0 0
0 0 0 0 0 0 1 2 7 13 16 21 34 53 63 60 53 47 42 40 39 38 37 34 30 26 24 25 21 13 6 3 1 1 2 3 3 2 1 0 0 0 0 0 0 0 0 0 0
0 0 0 0 0 0 1 4 9 15 19 27 40 52 55 51 48 41 33 34 36 36 34 31 28 27 27 25 19 11 6 3 2 1 1 1 2 1 0 0 0 0 0 0 0 0 0 0 0
0 0 0 0 0 0 1 5 11 17 25 34 41 45 43 41 41 36 30 30 31 30 27 24 23 25 26 20 12 7 4 3 2 1 0 0 0 0 0 0 0 0 0 0 0 0 0 0 0
0 0 0 0 0 0 1 4 10 19 30 40 41 39 37 38 38 36 32 28 25 21 19 17 16 19 19 14 7 4 2 1 1 1 0 0 0 0 0 0 0 0 0 0 0 0 0 0 0
0 0 0 0 0 0 0 2 8 19 32 38 38 36 35 34 33 32 28 25 20 15 12 12 11 11 11 9 5 3 1 0 1 1 0 0 0 0 0 0 0 0 0 0 0 0 0 0 0
0 0 0 0 0 0 0 1 7 16 26 31 32 32 30 26 24 23 21 19 16 12 9 9 8 6 6 7 5 2 1 1 1 0 0 0 0 0 0 0 0 0 0 0 0 0 0 0 0
0 0 0 0 0 0 0 2 6 12 18 23 26 26 24 20 16 15 15 16 14 13 11 10 8 7 8 8 4 2 2 1 1 0 0 0 0 0 0 0 0 0 0 0 0 0 0 0 0
0 0 0 0 0 0 0 1 4 8 10 14 19 19 19 17 13 11 13 14 15 14 13 13 13 12 11 9 5 3 2 1 0 0 0 0 0 0 0 0 0 0 0 0 0 0 0 0 0
0 0 0 0 0 0 0 0 2 4 6 8 10 12 13 14 12 10 11 13 15 15 14 14 15 14 11 8 4 3 2 0 0 0 0 0 0 0 0 0 0 0 0 0 0 0 0 0 0
0 0 0 0 0 0 0 0 1 2 3 5 6 7 9 12 12 10 11 14 16 16 15 15 14 12 10 7 4 2 1 0 0 0 0 0 0 0 0 0 0 0 0 0 0 0 0 0 0
0 0 0 0 0 0 0 0 0 1 1 2 4 6 8 10 10 10 11 14 16 17 16 14 12 10 9 7 4 1 0 0 0 1 1 0 0 0 0 0 0 0 0 0 0 0 0 0 0
0 0 0 0 0 0 0 0 0 0 0 0 2 4 6 7 8 10 11 12 15 16 14 12 10 9 8 6 5 2 0 0 0 1 2 1 0 0 0 0 0 0 0 0 0 0 0 0 0
0 0 0 0 0 0 0 0 0 0 0 0 1 3 3 3 5 8 9 10 12 13 12 10 9 8 7 6 5 2 1 0 0 1 1 1 0 0 0 0 0 0 0 0 0 0 0 0 0
0 0 0 0 0 0 0 0 0 0 0 0 1 2 2 1 2 6 8 8 8 9 10 9 7 6 6 6 5 2 1 0 0 1 1 1 0 0 0 0 0 0 0 0 0 0 0 0 0
0 0 0 0 0 0 0 0 0 0 0 0 0 1 1 0 1 3 5 4 5 7 8 8 7 5 5 5 4 2 1 1 1 1 1 1 1 0 0 0 0 0 0 0 0 0 0 0 0
0 0 0 0 0 0 0 0 0 0 0 0 0 0 0 0 1 1 1 1 3 6 8 8 7 6 5 4 3 3 4 4 3 2 1 0 0 0 0 0 0 0 0 0 0 0 0 0 0
0 0 0 0 0 0 0 0 0 0 0 0 0 0 0 0 0 0 0 0 2 5 6 6 6 6 5 4 3 4 6 6 5 3 1 1 1 0 0 0 0 0 0 0 0 0 0 0 0
0 0 0 0 0 0 0 0 0 0 0 0 0 0 0 0 0 0 0 0 2 4 4 3 3 4 5 5 5 5 6 6 6 5 4 3 2 1 1 0 0 0 0 0 0 0 0 0 0
0 0 0 0 0 0 0 0 0 0 0 1 1 1 1 1 1 0 0 1 2 4 4 2 1 3 5 6 6 6 6 6 6 6 6 5 3 2 2 1 0 0 1 1 1 0 0 0 0

GEFSSGP_con_probscp_120.txt.gz
Probability
0 0 0 0 0 0 0 0 0 0 0 0 0 0 0 0 0 1 0 1 2 3 2 2 2 2 2 1 1 3 4 2 1 0 0 0 0 0 0 0 0 0 0 0 0 0 0 0 0
0 0 0 0 0 0 0 0 0 0 0 0 0 0 0 0 1 1 1 0 1 3 3 2 2 2 1 1 2 4 4 3 1 0 0 0 0 0 0 0 0 0 0 0 0 0 0 0 0
0 0 0 0 0 0 0 0 0 0 0 0 0 0 0 0 1 1 1 1 2 3 3 3 3 3 1 1 4 6 5 3 1 0 0 0 0 0 0 0 0 0 0 0 0 0 0 0 0
0 0 0 0 0 0 0 0 0 0 0 0 0 0 0 0 1 2 3 2 3 4 4 5 6 6 4 4 6 6 5 3 1 0 0 0 0 0 0 0 0 0 0 0 0 0 0 0 0
0 0 0 0 0 0 0 0 0 0 0 0 0 0 1 1 3 4 5 3 3 3 5 8 9 8 6 6 7 6 5 3 1 0 0 0 0 0 0 0 0 0 0 0 0 0 0 0 0
0 0 0 0 0 0 0 0 0 0 0 0 0 1 3 4 6 8 7 4 2 3 7 10 10 8 7 7 7 7 6 4 2 1 1 0 0 0 0 0 0 0 0 0 0 0 0 0 0
0 0 0 0 0 0 0 0 0 0 0 0 0 2 6 9 10 11 10 6 4 5 9 12 11 9 7 6 7 8 7 4 3 2 1 0 0 0 0 0 0 0 0 0 0 0 0 0 0
0 0 0 0 0 0 0 0 0 0 1 1 1 3 9 16 19 19 15 12 9 10 12 14 13 12 10 6 6 7 7 4 2 2 1 0 0 1 0 0 0 0 0 0 0 0 0 0 0
0 0 0 0 0 0 0 0 0 0 2 3 5 8 18 30 36 34 27 21 18 16 16 15 16 16 13 9 6 5 4 3 1 1 0 0 0 1 1 1 0 0 0 0 0 0 0 0 0
0 0 0 0 0 0 0 0 0 0 2 5 9 17 32 47 55 50 41 34 30 25 20 17 18 19 18 14 10 6 3 2 1 0 0 0 0 1 2 2 1 0 0 0 0 0 0 0 0
0 0 0 0 0 0 0 0 0 0 2 5 13 26 44 59 64 59 49 42 38 33 26 22 24 25 25 22 16 12 8 4 2 0 0 1 1 1 2 2 1 0 0 0 0 0 0 0 0
0 0 0 0 0 0 0 0 0 1 4 8 17 33 50 61 63 58 49 43 41 37 33 31 32 33 33 31 25 20 14 9 5 3 1 1 2 1 1 1 1 0 0 0 0 0 0 0 0
0 0 0 0 0 0 0 0 1 3 6 11 20 35 50 58 56 52 49 45 42 40 39 40 40 39 41 42 36 27 20 14 10 6 2 1 1 1 0 1 1 0 0 0 0 0 0 0 0
0 0 0 0 0 0 0 0 1 3 6 10 18 31 45 53 51 49 49 48 44 42 44 47 46 44 46 47 42 31 23 17 12 7 3 0 0 0 0 0 1 0 0 0 0 0 0 0 0
0 0 0 0 0 0 0 0 2 5 6 8 15 27 41 48 47 46 47 46 42 42 46 47 44 44 46 47 42 33 23 15 11 8 3 0 0 0 0 0 0 0 0 0 0 0 0 0 0
0 0 0 0 0 0 0 1 5 7 7 9 16 26 38 44 43 40 40 39 38 40 44 40 36 38 42 44 42 34 24 15 12 10 5 2 0 0 0 0 0 0 0 0 0 0 0 0 0
0 0 0 0 0 0 0 2 6 8 8 10 18 27 34 38 37 35 34 34 33 34 36 32 28 32 39 44 44 38 29 20 15 11 7 3 0 0 0 0 0 0 0 0 0 0 0 0 0
0 0 0 0 0 0 0 2 6 8 7 9 17 27 31 32 32 32 31 29 27 27 28 24 23 29 37 41 43 39 31 22 14 9 6 2 0 0 0 0 0 0 0 0 0 0 0 0 0
0 0 0 0 0 0 0 1 4 6 5 8 16 25 28 27 27 27 26 23 22 22 21 19 19 25 31 35 37 35 29 21 14 8 4 2 0 0 0 0 0 0 0 0 0 0 0 0 0
0 0 0 0 0 0 0 1 2 2 2 6 15 21 23 22 22 22 21 19 19 18 17 16 17 20 23 27 32 32 27 21 15 9 6 3 0 0 0 0 0 0 0 0 0 0 0 0 0
0 0 0 0 0 0 0 1 3 2 0 3 11 17 17 14 16 18 17 15 15 15 15 15 16 18 20 24 28 28 25 22 17 11 8 4 1 0 0 0 0 0 0 0 0 0 0 0 0
0 0 0 0 0 0 0 1 3 2 1 2 7 12 11 9 11 14 14 11 10 12 14 16 17 21 24 25 25 22 20 19 16 13 9 4 1 0 0 0 0 0 0 0 0 0 0 0 0
0 0 0 0 0 0 0 0 1 2 1 1 4 7 7 6 9 12 12 9 8 9 11 15 19 24 28 27 22 17 14 14 15 13 10 6 3 1 0 0 0 0 0 0 0 0 0 0 0
0 0 0 0 0 0 0 0 0 0 0 1 2 3 4 5 7 10 9 8 7 7 8 12 17 22 27 24 17 12 11 11 12 11 9 7 5 2 1 0 0 0 0 0 0 0 0 0 0
0 0 0 0 0 0 0 0 0 0 0 0 0 1 3 4 6 8 8 7 7 7 8 10 12 17 20 18 12 9 8 9 9 7 6 5 5 3 1 1 1 1 0 0 0 0 0 1 1
0 0 0 0 0 0 0 0 0 0 0 0 1 1 2 3 5 7 8 6 6 6 7 7 9 11 12 12 10 8 7 6 5 4 4 4 3 2 2 2 1 1 0 0 1 1 1 2 2
0 0 0 0 0 0 0 0 0 0 0 0 1 2 3 4 5 6 8 7 5 5 4 4 6 7 8 8 9 8 6 5 4 4 4 4 4 3 2 2 2 2 1 1 3 4 4 3 3
0 0 0 0 0 0 0 0 0 0 0 0 1 2 4 5 6 6 7 7 6 4 3 3 5 7 8 8 8 7 5 4 4 4 4 4 6 5 2 1 2 3 3 3 5 6 5 4 3
0 0 0 0 0 0 0 0 0 1 1 1 2 3 4 6 7 6 6 6 6 5 4 4 4 5 7 8 9 8 5 3 3 4 4 5 7 6 4 2 3 4 4 4 5 6 5 4 3
0 0 0 0 0 0 0 0 1 2 2 2 3 3 4 6 8 7 5 4 4 4 5 5 4 4 6 8 9 9 5 2 1 2 4 7 8 7 5 4 4 4 4 4 4 4 4 4 3

GEFSSGP_con_probscp_126.txt.gz
Probability
1 2 2 2 2 2 1 0 0 0 0 0 0 0 0 0 0 0 2 11 19 14 5 7 8 5 2 1 0 0 0 0 0 0 0 0 0 0 0 0 0 0 0 0 0 0 0 0 0
1 1 1 1 1 1 0 0 0 0 0 0 0 0 0 0 0 1 4 14 20 13 5 6 7 5 3 2 1 0 0 0 0 0 0 0 0 0 0 0 0 0 0 0 0 0 0 0 0
0 0 0 0 1 0 0 0 0 0 0 0 0 0 0 1 1 2 9 20 22 14 7 7 8 6 4 3 1 0 0 0 0 0 0 0 0 0 0 0 0 0 0 0 0 0 0 0 0
0 0 0 0 0 0 0 0 0 0 0 0 0 1 1 2 3 5 12 22 24 15 10 10 9 7 5 3 1 0 0 0 0 0 0 0 0 0 0 0 0 0 0 0 0 0 0 0 0
0 0 1 0 0 0 0 0 0 0 0 0 1 3 4 4 6 8 13 20 21 16 12 12 12 11 7 4 1 0 0 0 0 0 0 0 0 0 0 0 0 0 0 0 0 0 0 0 0
0 0 0 0 0 0 0 0 1 1 0 0 3 7 9 7 6 8 13 17 18 18 16 15 16 14 9 5 3 2 1 0 0 0 0 0 0 0 0 0 0 0 0 0 0 0 0 0 0
0 0 0 0 0 0 0 0 1 1 0 0 4 10 14 11 8 9 15 18 20 23 22 18 17 15 11 7 5 5 3 1 0 0 0 0 0 0 0 0 0 0 0 0 0 0 0 0 0
0 0 0 0 0 0 0 0 1 1 1 1 4 12 19 19 13 13 19 21 25 30 26 20 19 17 13 8 7 6 5 3 1 0 1 1 1 0 0 0 0 0 0 0 0 0 0 0 0
0 0 0 0 0 0 0 0 0 1 2 3 7 17 26 26 22 22 26 29 35 36 30 23 22 22 15 9 8 8 7 6 3 2 2 2 2 1 0 0 0 0 0 0 0 0 0 0 0
0 0 0 0 0 0 0 0 0 1 4 8 15 26 32 32 31 31 34 41 48 46 34 26 27 26 20 14 12 10 8 7 6 4 3 3 2 1 1 0 0 0 0 0 0 0 0 0 0
0 0 0 0 0 0 0 1 1 1 3 11 25 37 40 40 39 36 38 47 55 52 38 32 34 32 27 23 17 11 7 5 5 4 3 1 1 1 1 2 1 0 0 0 0 0 0 0 0
0 0 0 0 0 0 0 1 1 1 3 11 28 44 49 49 47 42 42 50 58 56 48 47 48 43 39 33 21 10 6 5 4 3 2 1 1 1 2 2 2 1 1 1 0 0 0 0 0
0 0 0 0 0 0 0 0 1 2 3 10 28 48 56 57 55 51 52 60 67 64 60 62 63 58 54 46 31 17 12 9 8 5 3 2 3 3 2 2 1 1 1 1 0 0 0 0 0
0 0 0 0 0 0 0 0 1 3 4 11 29 50 61 65 64 63 65 72 75 71 68 69 68 65 63 56 43 32 24 19 16 12 7 5 6 5 3 1 0 0 1 1 0 0 0 0 0
0 0 0 0 0 0 0 1 2 4 5 11 28 49 65 71 72 72 73 75 76 73 70 67 63 62 63 58 48 41 36 30 25 21 15 9 8 8 3 0 0 0 0 0 0 0 1 1 1
0 0 0 0 0 0 0 2 4 5 6 11 25 46 66 77 77 75 73 70 70 70 70 65 58 56 59 56 49 44 44 41 36 29 21 12 9 7 3 0 0 0 0 0 0 1 2 2 2
0 0 0 0 0 0 0 2 5 6 7 11 23 43 67 79 79 73 69 65 66 68 67 63 56 52 53 53 49 45 46 47 41 33 23 15 11 7 2 1 1 1 0 0 0 1 2 2 2
0 0 0 0 0 0 0 2 5 7 7 11 22 42 67 79 77 70 65 64 65 65 64 61 55 50 48 48 44 41 41 41 37 31 25 18 13 7 3 2 2 2 1 0 0 0 1 1 1
0 0 0 0 0 0 0 2 6 7 7 11 21 40 63 75 72 67 65 64 64 62 61 59 55 50 47 43 38 36 34 33 30 28 27 24 16 7 3 2 3 3 2 0 0 0 0 0 0
0 0 0 0 0 0 0 2 6 8 8 10 16 31 50 61 65 66 66 63 62 60 57 54 51 46 43 39 34 32 32 29 26 26 28 26 18 10 4 2 2 3 3 2 0 0 0 0 0
0 0 0 0 0 0 0 2 7 10 9 8 10 18 31 44 54 63 64 60 58 56 50 46 44 38 33 31 28 28 30 27 24 24 25 23 19 14 8 3 2 4 5 3 1 0 0 0 0
0 0 0 0 0 0 0 2 8 11 10 8 8 9 18 32 46 55 58 54 53 49 43 39 37 32 26 23 23 23 24 23 23 24 25 23 21 18 12 6 4 4 5 3 1 0 0 0 0
0 0 0 0 0 0 0 2 5 8 9 9 8 8 12 24 39 49 51 49 47 43 38 35 33 29 24 20 20 22 22 23 24 26 26 25 22 19 13 8 5 4 3 3 2 1 0 0 0
0 0 0 0 0 0 0 0 1 3 5 8 9 9 12 20 31 42 46 45 42 39 34 31 30 29 26 22 21 24 26 26 26 26 24 23 22 19 14 9 6 4 3 4 4 3 2 1 1
0 0 0 0 0 0 0 0 0 0 2 6 9 11 13 18 25 33 38 39 37 34 29 26 27 27 25 23 23 27 30 29 26 23 19 18 18 18 15 11 7 5 4 4 5 5 5 4 4
0 0 0 0 0 0 0 0 0 1 3 6 8 9 11 15 21 26 31 34 32 28 24 22 23 25 23 22 24 28 29 26 24 23 18 15 15 16 15 12 8 6 4 3 4 5 6 5 5
0 0 0 0 0 0 0 1 1 2 5 6 7 7 8 11 17 23 27 29 29 25 22 22 23 23 22 19 20 22 22 20 20 21 19 15 14 15 16 12 8 5 4 3 4 5 5 4 5
0 0 0 0 0 0 0 1 2 3 6 6 6 7 8 10 16 22 24 26 28 26 22 21 22 23 20 18 17 17 18 17 16 16 16 14 13 15 16 13 8 6 6 7 6 5 4 4 4
0 0 0 0 0 0 0 1 3 4 6 6 9 11 13 14 19 24 24 25 28 27 23 21 21 21 19 17 17 18 18 17 15 14 14 13 14 16 17 14 11 9 9 9 8 6 4 3 4
0 0 0 0 0 0 0 0 2 5 6 7 11 15 17 17 22 27 24 25 28 27 23 21 20 21 19 16 17 19 19 18 18 17 16 16 18 18 17 16 13 11 10 10 9 6 4 3 3

GEFSSGP_con_probscp_132.txt.gz
Probability
1 1 0 0 0 0 0 0 0 0 1 1 1 0 0 0 1 0 0 1 3 3 1 0 1 1 1 1 0 0 0 0 0 0 0 0 0 0 0 0 0 0 0 0 0 0 0 0 0
1 0 0 0 0 0 0 0 0 1 2 3 2 1 0 1 2 1 1 2 5 4 2 2 3 3 1 1 0 0 0 0 0 0 0 0 0 0 0 0 0 0 0 0 0 0 0 0 0
0 0 0 0 0 0 0 0 1 1 4 6 5 2 1 2 3 2 3 5 7 5 3 4 6 6 3 1 0 0 0 0 0 0 0 0 0 0 0 0 0 0 0 0 0 0 0 0 0
0 0 0 0 0 0 0 0 2 3 6 9 7 2 1 4 8 9 9 10 9 6 4 5 8 9 5 2 1 0 0 0 0 0 0 0 0 0 0 0 0 0 0 0 0 0 0 0 0
0 0 0 0 0 0 0 0 2 6 11 13 8 3 2 9 20 20 14 12 11 8 5 7 10 11 8 4 2 1 0 0 0 0 0 0 0 0 0 0 0 0 0 0 0 0 0 0 0
0 0 0 0 0 0 0 0 2 9 16 17 12 6 5 16 27 23 15 11 11 10 9 10 11 10 9 6 3 1 0 0 0 0 0 0 0 0 0 0 0 0 0 0 0 0 0 0 0
0 0 0 0 0 0 0 1 4 11 18 22 19 13 10 19 27 24 15 11 10 12 13 13 10 9 9 8 5 2 0 0 0 0 0 0 0 0 0 0 0 0 0 0 0 0 0 0 0
0 0 0 0 0 0 1 4 8 13 18 23 25 21 20 27 34 31 24 16 12 12 12 12 10 9 9 10 8 5 2 1 0 0 0 0 0 0 0 0 0 0 0 0 0 0 0 0 0
0 0 0 0 0 0 1 5 10 15 21 25 28 29 33 43 49 45 36 27 20 14 10 10 10 9 9 10 9 6 3 2 0 0 0 0 0 0 0 0 0 0 0 0 0 0 0 0 0
0 0 0 0 0 0 1 4 8 15 21 27 33 38 44 53 57 52 46 39 29 19 11 10 10 9 8 8 8 7 5 2 0 0 0 0 0 0 0 0 0 0 0 0 0 0 0 0 0
0 0 0 0 0 1 3 5 8 13 17 24 36 43 47 52 53 50 47 42 32 21 14 11 11 9 8 8 8 9 8 4 1 0 0 0 0 0 0 0 0 0 0 0 0 0 0 0 0
0 0 0 0 1 2 4 7 9 10 12 22 36 43 43 44 45 45 44 39 31 23 16 15 14 12 11 10 10 11 10 6 2 0 0 0 0 0 0 0 0 0 0 0 0 0 0 0 0
0 0 0 0 1 3 4 5 6 8 14 25 36 41 39 37 39 43 45 41 33 25 20 19 18 16 14 12 11 11 10 6 2 0 0 0 0 0 0 0 0 0 0 0 0 0 0 0 0
0 0 0 0 1 3 3 2 2 9 20 30 37 39 35 32 34 41 47 46 38 30 25 23 21 17 14 11 9 10 9 5 2 0 0 0 0 0 0 0 0 0 0 0 0 0 0 0 0
0 0 0 0 0 1 1 0 1 8 22 35 39 37 31 26 29 38 47 49 44 37 31 28 24 19 15 11 8 7 6 4 1 0 1 1 1 1 0 0 0 0 0 0 0 0 0 0 0
0 0 0 0 0 0 0 0 1 8 23 36 41 37 30 25 27 37 46 49 48 43 39 35 30 25 19 13 9 7 6 4 2 1 2 2 2 1 0 0 0 0 0 0 0 0 0 0 0
0 0 0 0 0 0 0 1 2 9 23 36 41 41 36 31 32 40 46 48 48 48 46 42 36 31 24 16 11 8 8 6 4 3 3 3 2 1 0 0 0 0 0 0 0 0 0 0 0
0 0 0 0 0 0 0 1 3 8 20 33 42 45 42 37 37 44 50 50 50 51 50 43 37 33 27 19 12 9 8 7 6 5 4 2 2 2 1 0 0 0 0 0 0 0 0 0 0
0 0 0 0 0 0 0 1 2 6 15 28 41 46 43 40 41 47 53 55 54 51 46 39 34 31 25 18 12 8 7 7 7 6 4 2 3 2 1 0 0 0 0 0 0 0 0 0 0
0 0 0 0 0 0 0 0 1 4 11 24 36 42 43 42 45 50 55 58 57 50 41 34 30 26 21 16 11 8 6 7 7 5 3 2 3 2 1 0 0 0 0 0 0 0 0 0 0
0 0 0 0 0 0 0 0 0 3 9 18 26 34 39 42 46 51 54 54 52 45 37 30 25 21 17 14 11 8 5 5 5 4 2 2 2 2 1 0 0 0 0 0 0 0 0 0 0
0 0 0 0 0 0 0 0 1 3 7 11 17 25 32 34 38 44 48 46 42 37 30 24 22 20 16 13 11 8 4 4 3 2 3 2 1 2 2 1 0 0 0 0 0 0 0 0 0
0 0 0 0 0 0 0 0 1 3 6 7 10 17 21 24 28 34 38 37 34 29 23 19 19 20 16 12 10 7 5 3 2 2 3 1 1 2 3 2 0 0 0 0 0 0 0 0 0
0 0 0 0 0 0 0 0 1 2 4 6 7 9 12 16 23 27 28 28 27 23 18 15 16 17 15 11 9 8 5 2 1 1 1 1 1 2 2 1 0 0 0 0 0 0 0 0 0
0 0 0 0 0 0 0 0 0 1 3 6 6 7 8 13 20 23 23 24 24 20 14 12 12 12 12 11 10 8 5 2 1 0 1 1 2 2 1 0 0 0 0 0 1 1 0 0 0
0 0 0 0 0 0 0 0 1 2 4 6 6 7 9 12 16 19 19 21 22 17 12 10 9 10 12 12 11 8 5 2 1 0 1 2 2 1 0 0 0 0 0 1 2 2 1 1 1
0 0 0 0 0 0 0 0 1 3 4 5 6 7 9 11 13 15 17 18 18 14 11 10 10 11 13 14 12 9 5 3 1 0 1 2 2 1 1 1 1 0 0 1 3 3 3 2 2
0 0 0 0 0 0 0 0 1 2 4 6 8 8 8 10 13 15 16 16 14 11 9 10 12 14 14 14 12 9 6 3 1 0 1 1 1 0 1 2 2 2 2 3 3 3 3 3 3
0 0 0 0 0 0 0 0 1 3 5 8 10 9 10 12 15 15 15 14 11 8 7 8 11 13 13 11 10 8 5 2 0 0 0 0 0 0 0 1 2 3 4 5 4 4 3 3 3
0 0 0 0 0 0 0 1 3 6 9 11 11 10 12 14 16 16 14 12 9 6 6 7 11 12 11 9 7 5 2 1 0 0 0 0 0 0 0 1 2 4 5 6 6 5 4 3 3

GEFSSGP_con_probscp_138.txt.gz
Probability
0 0 0 0 0 0 0 0 0 0 0 1 2 4 5 3 1 0 0 0 0 0 0 0 0 1 3 3 3 4 5 5 3 1 0 0 0 0 0 0 0 0 0 0 0 0 0 0 0
0 0 0 0 0 0 0 0 0 0 1 1 2 3 4 3 1 0 0 0 0 0 0 0 1 2 3 3 3 3 4 4 2 1 0 0 0 0 0 0 0 0 0 0 0 0 0 0 0
0 0 0 0 0 0 0 0 1 1 2 3 3 3 3 3 1 0 0 0 1 1 1 1 2 3 3 2 3 3 3 3 1 0 0 0 0 0 0 0 0 0 0 0 0 0 0 0 0
0 0 0 0 0 0 0 0 0 1 3 5 5 3 2 1 1 0 0 1 2 2 2 3 4 5 4 2 2 3 3 2 1 0 0 0 0 0 0 0 0 0 0 0 0 0 0 0 0
0 0 0 0 0 0 0 0 0 2 5 6 5 3 1 1 3 3 2 1 1 2 2 4 6 7 6 3 1 2 2 2 1 0 0 0 0 0 0 0 0 0 0 0 0 0 0 0 0
0 0 0 0 0 0 0 0 2 5 7 7 5 2 1 2 6 7 5 2 1 1 2 4 6 7 7 4 2 1 1 1 0 0 0 0 0 0 0 0 0 0 0 0 0 0 0 0 0
0 0 0 0 0 0 0 0 2 6 8 7 4 2 2 4 7 10 9 5 3 2 3 4 5 6 6 4 2 1 0 0 0 0 0 0 0 0 0 0 0 0 0 0 0 0 0 0 0
0 0 0 0 0 0 0 0 2 5 6 5 3 3 5 8 14 19 18 12 9 7 6 5 4 4 3 3 2 1 0 0 0 0 0 0 0 0 0 0 0 0 0 0 0 0 0 0 0
0 0 0 0 0 0 0 1 2 4 5 5 5 6 13 22 29 33 29 22 16 11 7 4 3 3 2 1 1 1 1 0 0 0 0 0 0 0 0 0 0 0 0 0 0 0 0 0 0
0 0 0 0 0 0 0 1 3 5 6 7 9 15 26 36 40 40 36 28 21 15 8 4 3 3 3 2 2 2 2 1 0 0 0 0 0 0 0 0 0 0 0 0 0 0 0 0 0
0 0 0 0 0 0 0 1 3 4 6 9 16 27 38 43 39 35 34 30 23 16 11 6 4 6 7 7 6 5 4 3 1 0 0 0 0 0 0 0 0 0 0 0 0 0 0 0 0
0 0 0 0 0 0 1 2 2 3 5 11 24 37 43 41 33 27 27 27 23 18 12 9 8 9 11 11 10 8 7 5 3 1 0 0 0 0 0 0 0 0 0 0 0 0 0 0 0
0 0 0 0 0 0 1 2 2 3 8 17 30 40 43 38 30 24 25 27 26 20 13 11 13 14 14 13 12 10 8 6 5 3 1 0 0 0 0 0 0 0 0 0 0 0 0 0 0
0 0 0 0 0 0 1 1 2 4 12 23 32 36 36 32 27 26 30 32 29 23 16 15 17 17 15 14 12 10 9 8 6 3 1 0 0 0 0 0 0 0 0 0 0 0 0 0 0
0 0 0 0 0 0 0 0 1 5 14 24 29 29 25 22 24 28 33 34 31 24 20 19 19 18 15 12 10 10 9 9 7 3 0 0 0 0 0 0 0 0 0 0 0 0 0 0 0
0 0 0 0 0 0 0 0 1 6 14 20 24 23 18 16 20 27 32 32 27 22 20 20 20 17 14 10 9 8 9 9 7 2 0 0 0 0 0 0 0 0 0 0 0 0 0 0 0
0 0 0 0 0 0 0 0 1 6 12 14 17 19 18 16 17 23 28 27 23 21 19 20 19 16 11 8 6 6 6 6 4 1 0 0 0 0 0 0 0 0 0 0 0 0 0 0 0
0 0 0 0 0 0 0 0 1 4 7 9 11 13 15 13 13 17 23 24 22 21 20 19 18 14 11 8 5 3 2 2 1 0 0 0 0 0 0 0 0 0 0 0 0 0 0 0 0
0 0 0 0 0 0 0 0 1 3 4 5 6 7 8 8 9 14 21 24 23 22 21 19 17 13 10 8 5 3 2 1 0 0 0 0 0 0 0 0 0 0 0 0 0 0 0 0 0
0 0 0 0 0 0 0 0 1 2 2 3 3 2 3 6 10 15 22 26 25 22 19 16 14 11 8 6 4 3 3 2 1 0 0 0 0 0 0 0 0 0 0 0 0 0 0 0 0
0 0 0 0 0 0 0 0 0 1 1 1 1 1 3 8 13 17 23 28 29 25 18 13 11 10 7 5 4 3 3 3 3 1 0 0 0 0 0 0 0 0 0 0 0 0 0 0 0
0 0 0 0 0 0 0 0 0 0 0 0 1 2 4 9 13 17 21 26 28 24 17 12 11 10 9 8 7 5 4 3 2 1 0 0 0 0 0 0 0 0 0 0 0 0 0 0 0
0 0 0 0 0 0 0 0 0 0 0 1 2 2 4 8 13 16 18 21 22 19 15 12 10 9 9 10 9 8 5 2 1 0 0 0 0 0 0 0 0 0 0 0 0 0 0 0 0
0 0 0 0 0 0 0 0 0 0 0 1 3 3 4 8 12 15 15 16 16 15 14 12 9 6 8 10 10 8 6 2 0 0 0 0 0 0 0 0 0 0 0 0 0 0 0 0 0
0 0 0 0 0 0 0 0 0 0 0 1 4 5 6 7 10 12 13 13 13 13 11 10 8 6 7 9 9 8 6 3 1 0 0 0 0 0 0 0 0 0 0 0 0 0 0 0 0
0 0 0 0 0 0 0 0 0 0 0 1 4 5 5 5 7 9 10 11 11 10 8 6 7 7 7 8 9 9 8 5 2 1 0 0 0 0 0 0 0 1 0 0 0 0 0 0 0
0 0 0 0 0 0 0 0 0 0 0 1 2 3 4 4 5 6 8 9 9 7 5 4 5 7 7 7 8 9 8 5 3 1 0 0 0 0 0 0 0 0 0 0 0 0 0 0 0
0 0 0 0 0 0 0 0 0 1 1 0 1 3 3 4 4 4 6 7 7 6 4 3 3 4 5 6 7 8 6 4 3 1 0 0 0 0 0 0 0 0 0 0 0 0 0 0 0
0 0 0 0 0 0 0 0 0 1 2 2 2 3 3 3 3 4 5 6 6 6 4 2 2 3 4 5 6 6 4 3 2 1 0 0 0 0 0 0 0 0 0 0 0 0 0 0 0
0 0 0 0 0 0 0 0 0 1 3 3 3 3 3 3 3 4 5 6 6 6 4 2 2 3 5 6 6 5 3 2 1 0 0 0 0 0 0 0 0 0 0 0 0 0 0 0 0

GEFSSGP_con_probscp_144.txt.gz
Probability
0 0 0 2 3 2 0 0 0 0 0 0 0 0 0 0 0 0 0 0 0 0 0 0 0 0 0 0 0 1 1 1 0 0 0 0 0 0 0 0 0 0 0 0 0 0 0 0 0
0 0 0 1 1 1 0 0 0 0 0 0 0 0 0 0 0 0 0 0 0 0 0 0 0 0 0 0 0 0 0 0 0 0 0 0 0 0 0 0 0 0 0 0 0 0 0 0 0
0 0 0 0 0 0 0 0 0 0 0 0 0 1 1 0 0 0 0 0 0 0 0 0 0 0 0 0 1 1 1 1 0 0 0 0 0 0 0 0 0 0 0 0 0 0 0 0 0
0 0 0 0 0 0 0 0 0 0 0 0 1 2 2 1 0 0 0 0 0 0 0 0 0 0 0 0 2 3 3 2 1 0 0 0 0 0 0 0 0 0 0 0 0 0 0 0 0
0 0 0 0 0 0 0 0 0 0 0 0 1 3 4 3 1 0 0 0 0 0 0 0 0 0 0 0 1 3 3 2 1 0 0 0 0 0 0 0 0 0 0 0 0 0 0 0 0
0 0 0 0 0 0 0 0 0 0 0 0 1 3 6 6 3 1 0 0 0 0 0 0 0 0 0 0 0 1 1 1 0 0 0 0 0 0 0 0 0 0 0 0 0 0 0 0 0
0 0 0 0 0 0 0 0 0 0 0 0 1 4 9 11 7 3 1 0 0 0 0 0 0 0 0 0 0 0 0 0 0 0 0 0 0 0 0 0 0 0 0 0 0 0 0 0 0
0 0 0 0 0 0 0 0 0 0 0 0 0 4 14 20 16 7 2 0 0 0 0 0 0 0 0 0 0 0 0 0 0 0 0 0 0 0 0 0 0 0 0 0 0 0 0 0 0
0 0 0 0 0 0 0 0 0 0 0 1 2 7 19 31 29 18 10 6 4 2 1 0 0 0 0 0 0 0 0 0 0 0 0 0 0 0 0 0 0 0 0 0 0 0 0 0 0
0 0 0 0 0 0 0 0 0 0 1 2 5 13 27 38 38 30 22 17 13 8 4 1 1 1 0 0 1 1 1 0 0 0 0 0 0 0 0 0 0 0 0 0 0 0 0 0 0
0 0 0 0 0 0 0 0 0 0 1 4 11 22 34 41 40 34 28 25 22 15 8 4 4 4 3 2 2 2 2 2 2 1 1 1 1 1 1 0 0 0 0 0 0 0 0 0 0
0 0 0 0 0 0 0 0 0 0 1 6 16 29 38 40 36 29 26 27 26 21 13 9 9 9 8 7 6 5 5 5 6 5 3 2 3 3 2 1 1 0 0 0 0 0 0 0 0
0 0 0 0 0 0 0 0 0 0 3 10 20 29 34 33 29 25 25 27 29 27 21 17 15 15 14 13 12 10 9 9 9 8 5 3 3 4 3 3 1 1 0 0 0 0 0 0 0
0 0 0 0 0 0 0 0 0 2 6 12 19 22 22 22 23 25 28 29 30 30 28 25 22 19 17 16 15 14 12 11 10 9 7 4 3 4 4 3 3 2 1 1 0 0 0 0 0
0 0 0 0 0 0 0 0 1 3 6 12 15 15 13 15 19 24 28 30 28 28 30 29 24 21 18 16 15 14 12 11 11 10 8 5 3 3 4 4 3 2 1 0 0 0 0 0 0
0 0 0 0 0 0 0 0 1 2 5 9 11 11 11 14 17 20 25 28 25 26 28 26 22 20 19 17 16 14 12 12 12 11 9 6 4 3 4 5 4 3 1 0 0 0 0 0 0
0 0 0 0 0 0 0 0 0 1 4 7 8 9 12 15 16 20 25 28 27 28 28 24 20 19 18 18 18 15 13 13 12 11 9 6 3 3 4 5 4 3 1 0 0 0 0 0 0
0 0 0 0 0 0 0 0 0 0 2 5 7 9 12 14 15 20 25 27 28 31 31 25 21 21 21 21 20 16 14 15 14 12 10 6 2 1 2 3 3 2 1 0 0 0 0 0 0
0 0 0 0 0 0 0 0 0 1 2 4 7 9 11 12 14 21 27 27 30 34 33 29 25 25 27 26 24 21 17 17 16 13 10 6 3 1 1 2 1 1 0 0 0 0 0 0 0
0 0 0 0 0 0 0 0 0 1 3 6 8 8 7 8 14 24 31 32 34 39 38 33 29 27 29 29 27 24 20 17 15 12 9 7 6 4 2 1 1 0 0 0 0 0 0 0 0
0 0 0 0 0 0 0 0 0 1 3 5 6 5 5 7 12 22 30 34 36 40 39 33 29 27 26 25 24 22 19 16 14 11 10 10 9 7 5 2 2 1 0 0 0 0 0 0 0
0 0 0 0 0 0 0 0 0 0 1 3 4 4 4 6 10 16 25 31 33 33 31 28 27 26 24 21 20 19 16 14 13 12 12 12 10 7 6 5 4 3 2 1 1 1 1 0 0
0 0 0 0 0 0 0 0 0 0 1 3 3 3 4 7 10 13 20 25 26 24 22 21 24 25 24 21 20 19 15 14 14 13 13 11 9 5 4 5 5 4 3 2 2 2 2 2 1
0 0 0 0 0 0 0 0 0 1 2 3 5 5 6 9 13 15 17 19 18 16 15 17 21 24 23 21 20 18 16 14 13 13 11 9 6 4 2 3 4 4 4 4 4 5 5 5 4
0 0 0 0 0 0 0 0 0 1 2 4 7 8 9 12 18 19 18 15 11 10 12 14 19 23 22 21 20 18 16 13 11 11 9 7 5 4 3 3 4 4 4 4 5 6 7 7 6
0 0 0 0 0 0 0 0 1 1 2 5 9 12 13 15 18 19 17 10 6 7 10 13 18 21 21 22 21 19 15 12 10 9 7 6 5 5 5 4 4 4 4 4 5 5 6 6 6
0 0 0 0 0 0 0 0 1 2 4 7 10 12 14 15 16 16 13 8 5 6 9 11 13 17 19 21 22 19 14 11 9 7 7 7 6 6 5 5 5 4 4 4 5 6 6 6 5
0 0 0 0 0 0 0 0 2 5 7 9 9 8 9 11 12 13 12 10 9 9 9 9 10 14 16 19 21 18 13 9 7 7 7 8 9 9 7 6 5 5 5 5 7 8 6 6 6
0 0 0 0 0 0 0 0 3 7 9 8 6 5 7 8 9 11 13 15 15 12 9 9 11 13 14 15 16 16 12 8 7 7 7 9 12 13 11 7 5 6 6 7 8 9 8 8 9
0 0 0 0 0 0 0 1 5 8 8 6 3 4 8 10 9 9 12 17 18 14 10 9 11 13 13 12 12 13 11 9 9 9 7 8 12 16 14 9 6 6 7 8 9 10 10 11 11

GEFSSGP_con_probscp_150.txt.gz
Probability
0 2 9 20 24 14 3 0 0 0 0 0 0 0 0 0 0 0 2 2 1 0 0 1 1 1 1 1 0 0 0 0 0 0 0 0 0 0 0 0 0 0 0 0 0 0 0 0 0
0 2 8 16 17 9 2 0 0 0 0 0 0 0 0 0 0 1 2 3 1 0 0 0 0 0 0 0 0 0 0 0 0 0 0 0 0 0 0 0 0 0 0 0 0 0 0 0 0
0 2 6 11 9 4 1 0 0 0 0 0 0 0 0 0 1 1 3 3 2 1 0 0 0 0 0 0 0 0 0 0 0 0 0 0 0 0 0 0 0 0 0 0 0 0 0 0 0
1 1 4 5 4 1 0 0 0 0 0 0 1 2 2 1 2 3 3 3 3 2 0 0 0 0 0 0 0 0 0 0 0 0 0 0 0 0 0 0 0 0 0 0 0 0 0 0 0
1 1 2 2 1 0 0 0 0 0 0 1 4 6 6 4 3 3 2 2 2 1 0 0 0 0 0 0 0 0 0 0 0 0 0 0 0 0 0 0 0 0 0 0 0 0 0 0 0
1 0 1 1 1 0 0 0 0 0 0 1 5 9 9 7 4 2 1 1 1 2 1 0 0 0 0 0 0 0 0 0 0 0 0 0 0 0 0 0 0 0 0 0 0 0 0 0 0
0 0 0 0 0 0 0 0 0 0 0 1 5 10 11 10 6 2 1 1 3 4 2 1 1 1 1 1 0 0 0 0 0 0 0 0 0 0 0 0 0 0 0 0 0 0 0 0 0
0 0 0 0 0 0 0 0 0 0 0 0 4 10 13 13 9 5 3 3 6 7 4 1 2 2 1 1 1 0 0 0 0 0 0 0 0 0 0 0 0 0 0 0 0 0 0 0 0
0 0 0 0 0 0 0 0 1 1 1 2 6 13 17 15 10 7 6 7 11 12 7 2 2 3 3 2 2 1 1 1 0 0 0 0 0 0 0 0 0 0 0 0 0 0 0 0 0
0 0 0 0 0 0 0 0 1 1 3 7 13 19 22 17 11 8 8 11 17 18 12 6 5 4 3 3 3 3 3 2 1 0 0 0 0 0 1 1 1 0 0 0 0 0 0 0 0
0 0 0 0 0 0 0 0 0 1 5 11 19 25 25 21 14 11 13 19 25 23 18 16 14 11 7 6 5 4 4 3 2 1 1 1 0 0 2 2 1 0 0 0 0 0 0 0 0
0 0 0 0 0 0 0 0 1 1 4 13 22 27 27 23 18 17 21 27 31 28 24 26 28 23 17 13 8 5 4 4 4 3 3 2 1 1 1 2 1 0 0 0 0 0 0 0 0
0 0 0 0 0 0 0 1 1 1 5 14 24 27 25 23 22 24 27 31 35 36 34 37 41 38 31 24 17 10 7 6 8 8 6 4 2 2 2 2 1 0 0 0 0 0 0 0 0
0 0 0 0 0 0 0 1 1 2 6 14 23 25 24 26 29 33 35 37 42 44 45 47 50 48 42 34 26 18 10 10 13 14 11 7 6 6 6 4 3 1 1 1 0 0 0 0 0
0 0 0 0 0 0 1 1 1 2 5 11 19 25 29 34 39 43 46 48 50 52 53 53 52 51 46 37 27 19 13 14 19 22 19 12 10 12 11 8 5 4 4 4 2 1 0 0 0
0 0 0 0 0 0 1 0 1 2 4 9 17 27 37 43 45 49 53 56 58 61 60 57 52 50 45 36 25 18 16 20 24 28 26 18 14 15 14 10 9 8 8 8 5 1 0 0 0
0 0 0 0 0 0 0 0 1 1 3 9 18 31 43 47 47 50 56 61 66 69 67 61 55 52 46 37 28 22 22 26 28 29 28 22 17 15 13 12 12 11 9 8 5 2 1 0 0
0 0 0 0 0 0 0 1 1 1 3 10 21 35 47 48 47 52 59 65 71 73 72 67 62 58 52 43 34 30 30 30 29 29 28 24 20 16 12 13 15 12 8 7 6 4 2 2 1
0 0 0 0 0 0 0 1 1 1 2 10 23 39 49 49 51 58 64 68 74 78 79 75 70 67 60 51 43 39 36 33 30 28 27 24 20 17 12 12 16 14 9 9 9 7 4 2 1
0 0 0 0 0 0 0 1 1 0 2 9 22 36 45 50 58 66 70 72 76 81 82 78 73 70 64 57 50 44 38 34 31 30 28 24 20 17 12 12 16 16 13 12 12 10 6 2 1
0 0 0 0 0 0 0 1 1 1 2 7 17 27 37 49 62 69 71 72 75 78 76 70 68 66 61 57 52 45 38 34 33 34 33 28 23 18 16 16 18 18 16 16 16 13 8 4 2
0 0 0 0 0 0 0 0 2 4 4 6 12 20 27 40 56 64 64 65 68 69 67 63 62 60 57 53 51 46 38 34 35 38 37 33 28 22 21 22 22 20 18 19 19 15 10 7 5
0 0 0 0 0 0 0 0 3 7 7 8 12 17 21 29 44 54 56 55 58 59 58 60 61 58 53 48 46 44 39 34 33 36 37 35 30 25 23 25 26 24 23 22 22 18 13 8 6
0 0 0 0 0 0 0 0 3 8 9 10 13 17 19 24 36 48 51 50 50 51 52 55 57 53 46 42 40 38 36 32 28 28 30 30 27 24 22 24 28 29 26 25 24 21 15 9 7
0 0 0 0 0 0 0 1 3 7 9 10 14 17 19 25 36 46 49 47 44 43 43 46 47 44 38 36 35 34 32 28 24 22 23 24 23 21 22 24 28 29 26 24 24 22 16 13 11
0 0 0 0 0 0 0 2 5 8 9 11 14 16 19 27 37 44 45 42 37 33 33 35 36 35 33 33 34 34 32 26 21 19 19 20 19 19 20 22 24 25 23 21 21 21 19 17 16
0 0 0 0 0 0 0 4 10 12 12 13 14 16 20 27 36 40 40 35 29 26 26 29 32 32 31 31 31 33 31 26 21 19 18 18 18 17 17 20 22 21 20 20 21 21 20 20 19
0 0 0 0 0 0 0 5 13 17 16 16 17 18 22 29 35 37 36 30 25 25 27 30 32 32 29 28 28 30 29 26 21 18 17 17 17 17 17 20 22 20 19 21 21 20 20 20 20
0 0 0 0 0 0 0 3 11 19 21 21 23 24 28 34 37 38 35 30 27 30 32 32 32 31 30 27 27 28 27 24 20 16 15 17 19 19 19 21 24 21 19 19 19 18 20 20 19
0 0 0 0 0 0 0 3 10 17 21 25 27 29 35 39 41 40 36 32 30 32 34 33 31 31 31 29 28 29 26 23 20 16 15 17 20 21 20 21 24 23 18 17 17 17 20 20 17

GEFSSGP_con_probscp_156.txt.gz
Probability
0 0 0 0 0 0 0 0 0 0 1 2 1 0 0 0 0 0 0 0 0 0 0 0 0 0 0 0 0 0 0 0 0 0 0 0 0 0 0 0 0 0 0 0 0 0 0 0 0
0 0 0 0 0 0 0 0 1 1 2 3 2 0 0 0 0 0 0 0 0 1 1 1 0 0 0 0 0 0 0 0 0 0 0 0 0 0 0 0 0 0 0 0 0 0 0 0 0
0 0 0 0 0 0 0 1 2 3 3 4 3 2 1 1 1 1 0 0 1 2 2 1 0 0 0 0 0 0 0 0 0 0 0 0 0 0 0 0 0 0 0 0 0 0 0 0 0
0 0 0 0 1 0 0 2 4 5 4 4 5 4 3 2 2 1 0 0 1 1 2 1 0 0 0 0 0 0 0 0 0 0 0 0 0 0 0 0 0 0 0 0 0 0 0 0 0
0 0 0 0 0 0 1 4 7 7 5 5 6 5 4 3 3 1 0 0 0 0 0 0 0 0 0 0 0 0 0 0 0 0 0 0 0 0 0 0 0 0 0 0 0 0 0 0 0
0 0 0 0 0 0 2 5 6 6 5 4 6 6 5 7 6 2 0 0 0 0 0 0 0 0 0 1 1 1 0 0 0 0 0 0 0 0 0 0 0 0 0 0 0 0 0 0 0
0 0 0 0 0 0 2 3 4 4 4 5 6 7 7 8 8 4 1 0 0 0 0 0 0 0 0 2 3 2 1 1 0 0 0 0 0 0 0 0 0 0 0 0 0 0 0 0 0
0 0 1 0 0 0 1 2 3 4 5 4 6 8 9 10 11 8 4 2 1 0 0 0 0 0 0 1 2 3 3 3 1 0 0 0 0 0 0 0 0 0 0 0 0 0 0 0 0
0 0 0 0 0 0 1 2 2 5 6 6 7 11 14 19 20 15 10 7 5 2 1 0 0 0 0 0 1 1 3 3 2 0 0 0 0 0 0 0 0 0 0 0 0 0 0 0 0
0 0 0 0 0 0 0 0 1 4 7 8 9 13 20 29 31 25 18 15 11 6 3 1 0 0 0 0 0 1 2 3 3 1 1 1 1 0 0 0 0 0 0 0 0 0 0 0 0
0 0 0 0 0 0 0 0 1 3 6 9 11 15 20 28 33 31 23 19 16 10 5 2 1 0 0 1 1 1 1 1 2 2 1 2 1 0 0 0 0 0 0 0 0 0 0 0 0
0 0 0 0 0 0 0 1 1 3 7 10 13 15 16 19 25 27 23 18 18 14 6 2 1 1 1 1 2 1 0 0 1 1 1 1 1 0 0 0 0 0 0 0 0 0 0 0 0
0 0 0 0 0 1 2 3 4 7 11 15 16 15 14 14 16 20 20 18 18 15 8 4 2 2 2 3 3 2 0 0 0 0 0 0 0 0 0 0 0 0 0 0 0 0 0 0 0
0 0 0 1 1 2 4 5 7 12 18 21 20 16 14 13 15 20 22 22 21 19 15 10 8 7 6 6 4 2 0 0 0 0 0 0 1 1 0 0 0 0 0 0 0 0 0 0 0
0 0 1 2 3 3 3 4 8 16 24 26 24 19 15 14 19 25 29 30 31 31 28 23 19 14 11 9 4 1 1 1 1 0 0 1 2 2 1 1 1 0 0 0 0 0 0 0 0
0 0 1 2 2 2 2 4 9 18 27 29 26 22 17 17 21 30 37 41 44 44 41 36 29 21 15 10 5 2 2 2 2 1 0 1 2 3 3 2 2 1 0 0 0 0 0 0 0
0 0 0 1 1 1 1 5 11 20 29 32 29 25 22 20 24 33 43 49 52 52 48 42 34 25 16 11 7 4 2 2 2 1 0 1 2 2 2 2 2 1 0 0 0 0 0 0 0
0 0 0 0 0 0 2 6 12 21 31 36 35 31 28 26 29 39 48 51 52 50 46 42 35 28 19 12 8 5 2 2 2 1 0 0 1 1 1 1 1 0 0 0 0 0 0 0 0
0 0 0 0 0 1 3 7 12 20 28 35 39 38 35 34 38 46 50 49 47 45 43 41 37 31 23 15 9 6 3 1 1 1 0 0 2 2 1 0 0 0 0 0 0 0 0 0 0
0 0 0 0 0 1 3 6 11 17 23 30 38 44 44 44 47 51 50 46 44 45 44 40 37 31 22 14 8 5 4 2 1 0 0 0 2 4 2 0 0 0 0 0 0 0 0 0 0
0 0 0 0 0 1 2 4 7 13 20 27 36 46 51 51 51 51 48 45 43 43 43 37 31 27 20 13 8 5 4 3 1 0 1 1 3 5 4 2 1 0 0 1 0 0 0 0 0
0 0 0 0 0 1 1 1 5 12 19 24 31 43 51 50 47 46 44 41 40 40 39 34 29 25 20 14 8 4 3 3 1 0 2 3 4 6 7 6 4 2 1 1 0 0 0 0 0
0 0 0 0 0 0 0 0 3 10 17 20 24 35 43 44 40 39 38 36 36 36 33 30 27 24 20 15 8 3 1 1 0 0 1 2 4 7 9 8 5 3 1 0 0 0 0 0 0
0 0 0 0 0 0 0 0 2 7 14 18 23 29 35 37 36 35 34 32 30 29 26 23 22 20 17 13 8 3 0 0 0 0 0 1 3 6 9 9 6 3 1 1 0 0 0 0 0
0 0 0 0 0 0 0 0 1 5 11 19 25 30 33 33 32 30 28 26 24 22 19 16 15 14 13 10 7 4 2 2 1 1 0 1 2 5 8 8 7 4 3 2 1 0 0 0 0
0 0 0 0 0 0 0 0 1 4 11 19 26 31 32 29 25 23 21 19 19 18 16 13 11 10 8 7 6 6 6 6 4 3 1 1 2 4 6 6 5 4 4 3 2 0 0 0 0
0 0 0 0 0 0 0 0 2 6 13 20 25 29 29 23 18 16 15 14 15 16 15 13 10 8 6 5 5 6 7 7 6 5 4 3 3 3 4 3 3 3 4 4 4 2 0 0 0
0 0 0 0 0 0 0 0 2 8 16 22 25 26 25 22 17 16 14 13 14 16 16 14 11 9 8 6 4 4 4 4 5 5 5 4 4 4 4 3 2 3 3 4 4 3 1 0 0
0 0 0 0 0 0 0 1 3 10 19 26 28 27 26 24 22 20 17 13 13 15 15 14 12 11 11 7 4 2 2 3 3 4 4 5 5 6 6 5 4 3 3 3 4 3 1 0 0
0 0 0 0 0 0 1 2 5 13 23 30 30 30 29 27 23 20 18 15 12 12 14 13 12 12 12 9 5 2 3 4 4 3 4 5 6 6 6 6 5 4 3 3 3 2 1 0 0

GEFSSGP_con_probscp_162.txt.gz
Probability
0 0 0 0 0 0 0 0 1 1 1 1 1 1 0 0 0 0 0 0 0 0 0 0 0 0 0 0 0 0 0 0 0 0 0 0 0 0 0 0 0 0 0 0 0 0 0 0 0
0 0 0 0 0 0 0 1 2 2 2 3 3 2 0 0 0 0 0 0 0 0 0 0 0 0 0 0 0 0 0 0 0 0 0 0 0 0 0 0 0 0 0 0 0 0 0 0 0
0 0 0 0 0 0 0 1 3 4 5 6 6 3 1 0 0 0 0 0 0 0 0 0 0 0 0 0 0 0 0 0 0 0 0 0 0 0 0 0 0 0 0 0 0 0 0 0 0
0 0 0 0 0 0 1 1 3 5 6 7 6 4 1 0 0 0 0 0 0 0 0 0 0 0 0 0 0 0 0 0 0 0 0 0 0 0 0 0 0 0 0 0 0 0 0 0 0
0 0 0 0 0 0 0 1 3 4 6 6 6 4 1 0 0 0 0 0 0 0 0 0 0 0 0 0 0 0 0 0 0 0 1 1 0 0 0 0 0 0 0 0 0 0 0 0 0
0 0 0 0 0 0 0 1 2 4 5 5 5 3 1 0 0 0 0 0 0 0 0 0 0 0 0 0 0 0 0 0 0 0 1 1 1 1 0 0 0 0 0 0 0 0 0 0 0
0 0 0 0 0 0 0 1 2 4 4 4 3 2 1 0 0 0 0 0 0 0 0 0 0 0 0 0 0 0 0 0 0 0 1 1 2 2 1 0 0 0 0 0 0 0 0 0 0
0 0 0 0 0 0 0 1 2 3 4 3 1 1 0 0 1 1 0 0 0 0 0 0 1 1 0 0 0 0 0 0 0 0 0 0 1 2 2 1 0 0 0 0 0 0 0 0 0
0 0 0 0 0 0 0 1 2 4 4 2 1 1 3 3 3 1 0 0 0 0 0 0 1 1 0 0 0 0 0 0 0 0 0 0 1 2 3 2 1 0 0 0 0 0 0 0 0
0 0 0 0 0 0 0 1 2 4 4 3 4 8 13 11 5 1 0 0 0 0 0 0 1 1 0 0 0 0 0 0 0 0 0 0 1 2 3 3 1 1 0 0 0 0 0 0 0
0 0 0 0 0 0 0 0 1 2 3 4 10 22 26 18 7 2 1 0 0 0 0 0 0 0 0 1 1 1 0 0 0 0 0 0 1 2 3 3 3 2 1 0 0 0 0 0 0
0 0 0 0 0 0 0 0 1 1 2 4 15 30 32 19 7 2 2 1 0 0 0 0 0 0 0 1 2 1 0 0 0 0 0 0 0 1 3 3 3 3 1 0 0 0 0 0 0
0 0 0 0 0 0 1 1 3 3 4 6 14 26 26 16 5 2 2 1 0 0 1 1 1 0 0 1 1 1 0 0 0 0 0 0 0 1 3 3 3 2 2 1 0 0 0 0 0
0 0 0 0 0 1 2 3 5 6 7 7 11 16 16 12 7 5 5 4 2 2 3 4 3 2 0 0 0 0 0 0 0 0 0 0 0 2 3 3 1 1 2 1 0 0 0 0 0
0 0 0 0 0 1 3 4 6 8 10 8 7 8 9 9 9 10 10 8 5 4 5 7 7 5 2 1 0 0 0 0 0 0 0 0 0 1 2 2 1 1 1 1 0 0 0 0 0
0 0 0 0 0 0 1 3 5 8 10 8 5 5 5 5 7 10 12 11 9 7 7 8 8 6 4 2 1 0 0 0 0 0 0 0 0 0 1 1 0 0 0 0 0 0 0 0 0
0 0 0 0 0 0 1 2 5 7 9 7 4 4 4 3 4 8 12 14 12 10 10 9 8 5 3 2 1 0 0 0 0 0 0 0 0 0 0 0 0 0 0 0 0 0 0 0 0
0 0 0 0 0 0 1 2 4 6 7 6 4 4 5 5 5 8 13 16 14 11 9 9 7 4 2 1 0 0 0 0 0 0 0 0 0 0 0 0 0 0 0 0 0 0 0 0 0
0 0 0 0 0 0 1 2 3 5 5 5 4 4 7 9 10 12 16 18 17 13 10 9 7 4 1 0 0 0 0 0 0 0 0 0 0 0 0 0 0 0 0 0 0 0 0 0 0
0 0 0 0 0 0 1 1 2 4 4 4 3 5 9 13 14 16 19 21 21 17 13 12 8 5 2 0 0 0 0 0 0 0 0 0 0 0 0 0 0 0 0 0 0 0 0 0 0
0 0 0 0 0 0 0 0 1 3 4 4 5 7 11 15 17 19 19 21 22 18 14 12 9 6 3 1 0 1 1 1 0 0 0 0 0 0 1 1 0 0 0 0 0 0 0 0 0
0 0 0 0 0 0 0 0 1 2 4 6 7 9 12 16 18 20 20 20 21 18 13 9 8 6 3 1 0 1 2 2 1 0 0 0 0 0 1 1 1 1 1 0 0 0 0 0 0
0 0 0 0 0 0 0 0 0 1 3 5 7 9 11 14 17 19 20 20 19 16 12 7 7 6 3 1 0 1 2 2 1 0 0 0 0 0 1 1 2 2 2 1 1 0 0 0 0
0 0 0 0 0 0 0 0 0 0 1 3 4 6 10 13 17 19 19 17 16 14 11 8 8 7 4 2 0 0 1 1 0 0 0 0 0 0 0 0 1 3 3 3 2 1 0 0 0
0 0 0 0 0 0 0 0 0 0 0 1 2 4 8 13 17 19 16 13 12 12 11 10 9 6 3 1 0 0 0 0 0 0 0 0 0 0 0 0 1 2 4 3 3 2 0 0 0
0 0 0 0 0 0 0 0 0 0 0 1 1 2 7 12 15 16 13 9 8 10 11 11 9 5 2 1 1 1 0 0 0 0 0 0 0 0 0 0 0 1 2 2 2 1 0 0 0
0 0 0 0 0 0 0 0 0 0 1 1 1 3 8 11 11 11 10 6 5 7 9 11 9 5 2 1 1 1 0 0 0 0 0 0 0 0 0 0 0 1 1 1 1 1 1 1 0
0 0 0 0 0 0 0 0 0 0 1 2 3 5 8 10 10 10 8 6 6 8 9 9 9 5 2 0 1 1 0 0 0 0 0 0 1 1 1 1 1 2 2 1 1 2 2 2 1
0 0 0 0 0 0 0 0 0 0 1 1 3 5 7 9 9 9 8 6 7 8 7 7 8 6 3 1 0 1 1 0 0 0 0 0 1 2 2 1 1 2 2 1 1 2 3 3 3
0 0 0 0 0 0 0 0 0 0 1 1 3 5 7 7 8 9 7 6 7 7 6 6 9 7 4 2 1 2 2 1 0 0 0 0 1 1 1 0 0 1 1 1 1 1 2 3 3

GEFSSGP_con_probscp_168.txt.gz
Probability
0 0 0 2 2 1 0 0 0 0 0 0 0 0 0 0 0 0 0 0 0 0 0 0 0 0 0 0 0 0 0 0 0 0 0 0 0 0 0 0 0 0 0 0 0 0 0 0 0
0 0 0 1 1 0 0 0 0 0 0 0 0 0 0 0 0 0 0 0 0 0 0 0 0 0 0 0 0 0 0 0 0 0 0 0 0 0 0 0 0 0 0 0 0 0 0 0 0
0 0 0 0 0 0 0 0 0 0 0 0 0 0 0 0 0 0 0 0 0 0 0 0 0 0 0 0 0 0 0 0 0 0 0 0 0 0 0 0 0 0 0 0 0 0 0 0 0
0 0 0 0 0 0 0 0 0 0 0 0 0 0 0 0 0 0 0 0 0 0 0 0 0 0 0 0 0 0 0 0 0 0 0 0 0 0 0 0 0 0 0 0 0 0 0 0 0
0 0 0 0 0 0 0 0 0 0 0 0 0 0 0 0 0 0 0 0 0 0 0 0 0 0 0 0 0 0 0 0 0 0 0 0 0 0 0 0 0 0 0 0 0 0 0 0 0
0 0 0 0 0 0 0 0 0 0 0 0 0 1 1 0 0 0 0 0 0 0 0 0 0 0 0 0 0 0 0 0 0 0 0 0 0 0 0 0 0 0 0 0 0 0 0 0 0
0 0 0 0 0 0 0 0 0 0 1 2 2 2 2 1 0 0 0 0 0 0 0 0 0 0 0 0 0 0 0 0 0 0 0 0 0 0 0 0 0 0 0 0 0 0 0 0 0
0 0 0 0 0 0 0 0 1 1 2 3 3 3 4 5 3 1 0 0 0 0 0 0 0 0 0 0 0 0 1 1 0 0 0 0 0 0 0 0 0 0 0 0 0 0 0 0 0
0 0 0 0 0 0 0 0 1 2 2 3 4 5 8 10 6 2 0 0 0 0 0 0 0 0 0 0 0 0 1 1 0 0 0 0 0 0 0 0 0 0 0 0 0 0 0 0 0
0 0 0 0 0 0 0 0 1 1 1 4 7 9 13 14 8 2 0 0 0 0 0 0 0 0 0 0 0 0 1 1 0 0 0 0 0 0 0 0 0 0 0 0 0 0 0 0 0
0 0 0 0 0 0 0 0 0 0 1 4 9 15 17 14 9 3 0 0 0 0 0 0 0 0 0 0 0 0 0 0 0 0 0 0 0 0 0 0 1 1 1 0 0 0 0 0 0
0 0 0 0 0 0 0 0 0 0 0 3 11 18 18 13 7 3 0 0 0 0 0 0 0 0 1 1 1 0 0 0 0 0 0 0 0 0 0 0 1 2 2 1 0 0 0 0 0
0 0 0 0 0 0 0 0 0 0 1 3 10 16 15 10 6 3 1 0 0 0 0 0 0 1 2 2 2 1 0 0 1 1 1 0 0 0 0 0 1 1 2 1 1 1 0 0 0
0 0 0 0 0 0 0 0 0 1 1 3 8 11 10 8 7 6 4 2 1 0 0 1 2 2 2 2 2 1 0 0 1 2 1 1 0 0 0 1 1 1 2 3 2 2 1 0 0
0 0 0 0 0 0 0 0 0 1 2 3 5 7 7 8 8 7 6 4 2 1 1 3 4 3 1 2 2 1 0 0 1 2 2 1 0 0 0 1 1 1 2 3 3 2 1 0 0
0 0 0 0 0 0 0 0 0 1 1 2 4 6 9 10 9 7 6 4 3 3 5 7 5 3 2 3 3 2 0 0 1 2 3 1 0 0 0 0 0 1 2 3 3 2 1 0 0
0 0 0 0 0 0 0 0 0 0 0 2 4 6 10 14 11 7 5 4 6 8 11 11 7 5 4 5 4 2 1 0 1 2 2 1 0 0 0 0 0 1 2 3 3 2 1 0 0
0 0 0 0 0 0 0 0 0 1 1 1 3 5 9 12 12 9 7 7 9 12 14 13 11 10 10 9 7 5 2 1 1 1 1 0 0 0 0 0 0 0 1 2 3 3 1 1 1
0 0 0 0 0 0 0 0 0 0 1 2 3 4 7 10 12 13 14 13 14 15 17 17 16 15 15 14 12 9 5 3 3 1 0 0 0 0 0 0 0 1 3 3 3 4 3 2 2
0 0 0 0 0 0 0 0 0 0 0 1 2 2 5 9 13 18 20 18 18 20 21 20 19 18 17 17 16 12 6 3 2 2 0 0 0 1 1 0 1 4 7 7 5 5 4 3 3
0 0 0 0 0 0 0 0 0 0 0 1 3 3 4 8 13 19 22 21 24 26 25 22 21 19 18 18 17 13 6 2 1 1 1 0 0 1 2 2 3 7 10 9 7 6 5 4 4
0 0 0 0 0 0 0 0 0 1 1 2 4 5 4 5 10 16 21 24 27 27 25 23 22 20 19 17 16 12 7 3 1 1 1 0 0 1 3 4 5 6 7 8 7 6 6 6 5
0 0 0 0 0 0 0 0 0 0 0 2 4 5 5 6 10 16 20 24 26 24 21 22 21 20 18 16 13 10 6 3 1 0 1 2 2 2 3 6 6 5 5 6 7 8 7 6 6
0 0 0 0 0 0 0 0 0 0 0 1 3 4 6 9 14 18 22 24 25 22 21 22 23 21 18 14 9 6 5 3 2 1 2 5 6 5 5 7 9 9 8 9 10 10 7 7 9
0 0 0 0 0 0 0 0 0 0 0 1 2 3 8 14 18 20 23 25 24 23 22 23 23 21 18 14 8 5 6 6 4 2 3 7 9 8 7 8 10 12 14 14 15 13 8 10 13
0 0 0 0 0 0 0 0 0 0 0 1 2 5 11 18 21 20 19 20 22 21 20 21 21 18 15 12 9 7 7 7 4 2 4 7 8 8 8 8 9 12 15 18 20 17 13 13 15
0 0 0 0 0 0 0 0 0 0 0 1 2 6 14 20 21 18 13 13 16 17 16 18 19 16 12 9 7 6 6 6 5 3 3 6 6 6 6 6 8 11 14 18 21 21 18 17 18
0 0 0 0 0 0 0 0 0 1 1 1 3 9 16 19 17 15 13 13 13 14 14 15 17 17 13 10 8 7 7 6 5 4 4 5 5 5 4 5 7 10 12 14 18 19 19 19 20
0 0 0 0 0 0 0 0 1 2 2 3 6 13 19 20 17 17 19 19 15 15 16 16 17 16 15 12 10 8 6 4 3 3 3 5 6 6 6 6 7 9 9 10 12 14 15 16 17
0 0 0 0 0 0 0 1 2 3 4 6 10 16 22 23 20 21 25 23 19 19 20 19 18 16 14 12 10 7 4 2 1 2 3 5 6 7 8 9 8 7 7 8 9 10 11 12 13

GEFSSGP_con_probscp_174.txt.gz
Probability
2 9 22 30 21 6 1 0 0 0 0 0 0 0 0 0 0 0 0 0 0 0 0 0 0 0 0 0 0 0 0 0 0 0 0 0 0 0 0 0 0 0 0 0 0 0 0 0 0
4 10 19 23 15 4 0 0 0 0 0 0 0 0 0 0 0 0 0 0 0 0 0 0 0 0 0 0 0 0 0 0 0 0 0 0 0 0 0 0 0 0 0 0 0 0 0 0 0
6 9 15 14 7 1 0 0 0 0 0 0 0 0 0 0 0 0 0 0 1 1 1 0 0 0 0 0 0 0 0 0 0 0 0 0 0 0 0 0 0 0 0 0 0 0 0 0 0
7 8 9 6 2 0 0 0 0 0 0 0 1 1 0 0 0 0 0 0 2 2 1 0 0 0 0 0 0 0 0 0 0 0 0 0 0 0 0 0 0 0 0 0 0 0 0 0 0
7 6 4 1 0 0 0 0 0 0 0 1 3 3 1 0 0 0 0 0 1 2 2 1 0 0 0 0 0 0 0 0 0 0 0 0 0 0 0 0 0 0 0 0 0 0 0 0 0
6 4 1 0 0 0 0 0 0 0 1 2 4 4 2 0 0 0 0 0 1 2 2 1 0 0 0 0 0 0 0 0 0 0 0 0 0 0 0 0 0 0 0 0 0 0 0 0 0
4 2 0 0 0 0 0 0 0 0 1 2 3 5 3 1 0 0 0 0 1 2 2 1 1 1 1 1 1 1 0 0 0 0 0 0 0 0 0 0 0 0 0 0 0 0 0 0 0
1 0 0 0 0 0 0 0 0 0 1 2 3 5 5 2 0 0 0 0 1 2 2 2 2 2 3 3 2 2 1 1 2 1 0 0 0 0 0 0 0 0 0 0 0 0 0 0 0
0 0 0 0 0 0 0 0 0 0 2 4 5 6 6 3 1 0 0 1 2 3 3 3 3 3 4 4 3 2 2 2 3 2 1 0 0 0 0 0 0 0 0 0 0 0 0 0 0
0 0 0 0 0 0 0 0 0 0 2 7 9 9 7 4 1 0 0 1 2 3 3 3 3 3 4 5 3 1 1 1 2 2 2 1 0 0 0 1 1 1 0 0 0 0 0 0 0
0 0 0 0 0 0 0 0 0 0 3 9 13 11 8 6 3 1 1 2 3 3 3 4 4 4 5 5 3 1 0 1 1 1 1 1 0 0 0 1 2 2 1 0 0 0 0 0 0
0 0 0 0 0 0 0 0 0 1 4 10 13 12 9 8 5 3 4 6 6 5 4 6 8 7 7 6 3 1 1 2 1 1 0 0 0 0 0 1 2 2 1 1 1 0 0 0 0
0 0 0 0 0 0 0 0 0 1 5 11 13 12 11 10 9 7 8 12 12 9 7 9 11 11 11 9 6 3 2 3 3 1 0 0 0 0 0 0 1 1 1 2 1 0 0 0 0
0 0 0 0 0 0 0 0 0 2 7 11 12 12 12 14 14 14 16 20 19 16 14 15 15 15 14 12 9 6 3 2 3 2 1 0 0 0 0 0 0 0 1 2 2 1 0 0 0
0 0 0 0 0 0 0 0 1 3 7 10 11 12 14 18 21 22 25 27 25 23 23 22 20 20 19 15 10 6 4 3 3 3 3 2 1 1 0 0 0 0 1 2 2 1 0 0 0
0 0 0 0 0 0 0 1 1 3 6 8 12 15 19 24 27 29 32 33 31 32 32 28 24 25 25 18 13 9 6 5 4 4 4 4 3 2 1 0 0 0 1 2 2 1 0 0 0
0 0 0 0 0 0 0 1 2 3 4 8 15 20 26 31 33 35 37 38 39 41 41 35 30 30 28 22 17 13 8 6 6 5 5 6 6 4 3 1 1 2 2 3 3 1 1 1 1
0 0 0 0 0 0 0 1 1 2 4 9 18 27 34 37 38 39 41 45 47 48 47 41 37 33 29 24 20 15 11 9 8 6 6 8 7 5 3 2 3 4 4 4 4 4 3 2 2
0 0 0 0 0 1 0 0 0 1 3 8 20 33 41 44 44 45 47 50 52 52 50 46 42 37 30 26 23 19 16 13 10 9 11 11 8 5 3 2 4 5 5 5 7 7 5 4 3
0 0 0 0 0 0 0 0 0 0 2 6 19 33 44 51 54 54 53 54 57 57 52 47 43 39 33 29 26 23 20 17 13 13 14 12 8 4 3 3 5 7 8 9 11 11 8 5 3
0 0 0 0 0 0 0 1 1 1 1 4 13 26 40 52 61 62 59 58 60 60 55 47 44 41 36 33 30 26 23 20 16 14 15 13 8 5 4 5 7 9 12 13 14 14 11 7 5
0 0 0 0 0 0 0 1 2 1 1 2 7 17 30 46 59 63 61 58 58 59 57 52 49 46 40 36 35 31 27 22 17 14 13 13 10 7 6 7 9 12 14 15 15 15 14 12 10
0 0 0 0 0 0 0 1 1 1 2 3 6 13 24 39 53 59 60 60 57 56 57 54 52 49 44 39 37 35 31 24 17 13 13 13 12 10 9 10 11 12 13 14 15 16 16 16 15
0 0 0 0 0 0 0 0 0 0 1 4 9 15 23 36 50 57 60 61 57 53 54 55 54 52 47 43 40 37 32 25 18 15 15 15 14 12 12 13 14 15 14 14 15 17 19 18 16
0 0 0 0 0 0 0 1 2 3 3 6 12 19 26 37 50 57 59 60 56 54 55 57 57 54 49 44 41 37 32 25 19 16 16 16 15 14 14 16 20 20 18 15 15 17 20 20 18
0 0 0 0 0 0 0 2 5 7 7 9 15 23 29 36 45 51 54 56 55 54 56 58 58 54 48 43 39 35 30 24 20 19 18 17 15 14 14 17 20 20 16 14 13 15 17 19 19
0 0 0 0 0 0 0 3 8 11 11 13 19 27 32 34 37 42 47 50 50 50 52 56 57 52 45 39 35 32 28 23 21 22 21 18 14 12 12 13 15 15 13 12 11 12 15 17 18
0 0 0 0 0 0 0 2 8 13 14 17 23 29 33 33 32 37 43 46 46 45 47 51 52 47 40 36 33 31 29 24 23 24 23 20 16 13 12 12 11 12 13 14 13 12 13 15 17
0 0 0 0 0 0 0 1 5 11 16 21 27 31 32 32 33 40 47 48 46 44 45 46 44 38 32 29 28 28 26 23 21 22 22 22 19 15 13 13 12 12 13 15 14 12 12 13 13
0 0 0 0 0 0 0 1 3 8 14 24 30 32 32 32 36 45 53 53 47 45 45 43 39 32 26 24 24 25 23 20 18 20 21 21 19 15 13 14 13 12 13 14 13 10 11 11 11

GEFSSGP_con_probscp_180.txt.gz
Probability
0 0 1 3 1 0 0 2 3 2 1 0 0 0 0 0 0 0 0 0 0 0 0 0 1 0 0 0 0 0 0 0 0 0 0 0 0 0 0 0 0 0 0 0 0 0 0 0 0
0 0 1 2 1 0 1 2 4 3 2 1 0 0 0 0 0 0 0 0 0 0 0 0 1 0 0 0 0 0 0 0 0 0 0 0 0 0 0 0 0 0 0 0 0 0 0 0 0
0 0 0 0 0 0 1 3 4 4 3 1 0 0 0 0 0 0 0 0 0 0 0 0 1 1 1 1 1 0 0 0 0 0 0 0 0 0 0 0 0 0 0 0 0 0 0 0 0
0 0 0 0 0 0 1 3 3 3 3 2 1 0 0 0 1 1 0 0 0 0 0 1 2 2 2 2 2 1 0 0 0 0 0 0 0 0 0 0 0 0 0 0 0 0 0 0 0
0 0 0 0 0 0 1 3 3 2 2 3 2 1 0 2 4 3 1 0 0 0 0 1 2 3 3 3 2 1 0 0 0 0 0 0 0 0 0 0 0 0 0 0 0 0 0 0 0
0 0 0 0 0 0 2 3 3 2 2 2 2 1 1 4 6 4 2 1 0 0 0 1 1 2 3 3 1 0 0 0 0 0 0 0 0 0 0 0 0 0 0 0 0 0 0 0 0
0 0 0 0 0 0 1 2 3 2 2 2 1 0 1 4 5 4 3 2 1 1 1 1 1 1 2 2 1 0 0 0 0 0 0 0 0 0 0 0 0 0 0 0 0 0 0 0 0
0 0 0 0 0 0 1 2 2 1 1 1 1 0 1 4 5 4 4 3 3 2 3 2 1 0 1 1 0 0 0 0 0 0 0 0 0 0 0 0 0 0 0 0 0 0 0 0 0
0 0 0 0 0 1 4 4 3 2 2 2 2 3 4 7 9 9 6 4 3 3 3 3 2 1 0 0 0 0 0 0 0 0 0 0 0 0 0 0 0 0 0 0 0 0 0 0 0
0 0 0 0 0 1 4 5 4 3 3 3 4 8 11 13 16 15 11 6 4 3 3 2 1 1 0 0 0 0 0 0 0 0 0 0 0 0 0 0 0 0 0 0 0 0 0 0 0
0 0 0 0 0 1 3 4 4 4 3 4 7 11 14 16 19 20 16 9 5 4 2 1 0 0 0 0 0 0 0 0 0 0 0 0 0 0 0 0 0 0 0 0 0 0 0 0 0
0 0 0 0 0 0 1 2 4 5 6 6 9 11 13 14 17 19 16 10 6 5 3 1 0 0 0 0 0 0 0 0 0 0 0 0 0 0 0 0 0 0 0 0 0 0 0 0 0
0 0 0 0 0 0 0 1 4 8 9 10 12 13 12 11 12 15 15 14 10 8 5 2 1 1 1 1 0 0 0 0 0 0 0 0 0 0 0 0 0 0 0 0 0 0 0 0 0
0 0 0 0 0 0 0 2 5 10 12 13 15 15 13 12 12 14 17 19 18 13 9 6 4 3 3 2 1 0 1 1 0 0 0 0 0 0 0 0 0 0 0 0 0 0 0 0 0
0 0 0 0 0 0 1 2 6 11 13 14 16 17 16 14 15 17 19 23 23 19 15 12 10 8 6 4 2 1 1 1 0 0 0 0 0 0 0 0 0 0 0 0 0 0 0 0 0
0 0 0 0 0 0 0 1 5 11 13 14 15 17 18 19 20 21 22 24 25 23 19 17 16 12 7 5 4 2 1 0 0 0 0 0 0 0 0 0 0 0 0 0 0 0 0 0 0
0 0 0 0 0 0 0 1 5 10 13 14 15 18 21 23 24 25 25 25 25 23 21 20 18 12 8 6 5 4 1 0 0 0 0 0 0 0 0 0 0 0 0 0 0 0 0 0 0
0 0 0 0 0 0 1 3 6 10 14 17 19 22 23 24 25 27 28 29 27 24 22 21 17 11 8 7 6 5 3 1 0 0 0 0 0 0 1 1 0 0 0 0 0 0 0 0 0
0 0 0 0 1 1 1 4 8 13 18 21 24 26 24 22 23 27 32 33 31 27 24 20 16 12 10 10 8 7 4 1 0 0 0 0 1 1 1 1 1 0 0 0 0 0 0 0 0
0 0 0 0 1 2 2 3 6 13 19 22 26 28 25 22 25 31 35 35 33 29 24 20 16 14 13 13 10 8 4 2 1 0 0 0 0 0 1 1 1 1 1 1 0 0 0 0 0
0 0 0 0 1 1 2 2 4 10 15 19 23 29 29 27 31 36 38 37 35 30 24 20 16 15 15 13 10 7 5 4 3 2 0 0 0 0 0 0 1 1 2 2 1 0 0 0 0
0 0 0 0 0 0 1 1 3 8 12 15 21 29 33 34 36 38 39 38 37 33 26 20 17 15 14 11 9 7 6 5 4 2 0 0 0 0 0 0 1 2 2 2 1 0 0 0 0
0 0 0 0 0 0 0 0 2 7 10 13 20 30 37 39 40 40 40 39 37 34 27 20 16 14 12 9 7 7 6 5 3 1 0 0 0 0 0 0 1 1 1 1 0 0 0 0 0
0 0 0 0 0 0 0 0 1 3 7 12 20 30 39 43 43 41 40 38 35 32 27 21 16 12 10 9 8 8 6 4 3 1 0 0 0 0 0 0 0 1 1 0 0 0 0 0 0
0 0 0 0 0 0 0 0 0 2 6 14 22 30 39 43 43 42 41 36 30 27 25 21 16 11 9 9 10 9 6 4 3 2 0 0 0 0 0 0 1 2 2 1 0 0 0 0 0
0 0 0 0 0 0 0 0 1 4 10 18 26 33 39 39 39 42 40 33 26 24 24 22 17 13 11 11 11 9 6 5 4 2 0 0 0 0 0 0 1 2 2 1 0 1 1 1 1
0 0 0 0 0 0 0 0 2 8 15 22 28 34 37 34 35 37 34 27 23 23 23 23 20 17 15 13 11 8 5 3 2 1 0 0 0 0 0 0 1 2 1 0 1 2 2 2 2
0 0 0 0 0 0 0 0 2 8 16 22 27 32 33 30 30 29 24 21 21 21 21 19 17 15 14 13 11 8 4 2 1 0 0 0 0 0 1 1 2 2 2 1 1 2 3 2 2
0 0 0 0 0 0 0 0 1 6 13 21 27 31 31 28 26 23 19 19 20 19 16 13 10 8 9 9 9 7 4 3 2 0 0 0 0 1 2 3 3 3 2 2 2 2 1 1 1
0 0 0 0 0 0 0 0 1 5 12 21 28 32 31 27 24 21 18 19 19 17 14 10 7 5 5 7 8 7 4 2 1 0 0 0 0 1 2 3 3 2 1 2 2 1 0 0 0

GEFSSGP_con_probscp_186.txt.gz
Probability
4 2 1 0 0 0 0 0 0 0 0 0 0 0 0 0 0 0 0 0 0 0 0 0 0 0 0 0 0 0 0 0 0 0 0 0 0 0 0 0 0 0 0 0 0 0 0 0 0
1 1 0 0 0 0 0 0 0 0 0 0 0 0 0 0 0 0 0 0 0 0 0 0 0 0 0 0 0 0 0 0 0 0 0 0 0 0 0 0 0 0 0 0 0 0 0 0 0
0 0 0 0 0 0 0 0 0 0 0 0 0 0 0 0 0 0 0 0 0 0 0 0 0 0 0 0 0 0 0 0 0 0 0 0 0 0 0 0 0 0 0 0 0 0 0 0 0
0 0 0 0 0 0 0 0 1 1 0 0 0 0 0 0 0 0 0 0 0 0 0 1 1 1 1 0 0 0 0 0 0 0 0 0 0 0 0 0 0 0 0 0 0 0 0 0 0
0 0 0 0 0 0 0 2 4 4 1 0 0 0 0 0 0 0 0 0 0 0 0 1 2 2 1 0 0 0 0 0 0 0 0 0 0 0 0 0 0 0 0 0 0 0 0 0 0
0 0 0 0 0 1 1 2 4 4 1 0 0 1 0 0 0 0 0 0 0 0 0 0 1 2 1 0 0 0 0 0 0 0 0 0 0 0 0 0 0 0 0 0 0 0 0 0 0
0 0 0 0 0 1 2 1 2 2 1 0 0 0 0 0 0 0 0 1 1 0 0 0 0 0 0 0 0 0 0 0 0 0 0 0 0 0 0 0 0 0 0 0 0 0 0 0 0
0 0 0 0 0 1 2 1 0 1 1 1 0 0 0 0 0 0 1 2 2 1 0 0 0 0 0 0 0 0 0 0 0 0 0 0 0 0 0 0 0 0 0 0 0 0 0 0 0
0 0 0 0 0 1 2 2 1 1 1 1 0 1 2 2 2 2 3 3 3 2 1 0 0 0 0 0 0 0 0 0 0 0 0 0 0 0 0 0 0 0 0 0 0 0 0 0 0
0 0 0 0 1 2 3 2 1 1 1 0 1 4 7 6 4 3 3 3 3 3 2 1 0 0 0 0 0 0 0 0 0 0 0 0 0 0 0 0 0 0 0 0 0 0 0 0 0
0 0 0 0 1 3 3 1 1 2 1 1 4 9 12 9 5 3 2 2 2 3 2 1 0 0 0 0 0 0 0 0 0 0 0 0 0 0 0 0 0 0 0 0 0 0 0 0 0
0 0 0 0 1 2 2 1 1 2 2 2 8 14 16 11 6 2 1 1 1 1 1 1 0 0 0 0 0 0 0 0 0 0 0 0 0 0 0 0 0 0 0 0 0 0 0 0 0
0 0 0 0 0 1 1 1 2 3 3 5 10 15 17 14 8 3 0 0 0 0 0 0 0 0 0 0 0 0 0 0 0 0 0 0 0 0 0 0 0 0 0 0 0 0 0 0 0
0 0 0 0 0 0 1 2 3 3 4 7 11 14 15 14 10 5 2 1 0 0 0 0 0 0 0 0 0 0 0 0 0 0 0 0 0 0 0 0 0 0 0 0 0 0 0 0 0
0 0 0 0 0 0 1 2 3 3 4 6 9 11 12 11 8 6 4 2 1 1 1 1 1 1 0 0 0 0 0 0 0 0 0 0 0 0 0 0 0 0 0 0 0 0 0 0 0
0 0 0 0 0 0 0 1 2 3 4 5 6 8 9 7 5 5 5 3 2 2 2 2 2 2 1 0 0 0 0 0 0 0 0 0 0 0 0 0 0 0 0 0 0 0 0 0 0
0 0 0 0 0 0 0 1 2 2 3 3 3 5 5 5 4 4 5 5 4 4 3 3 3 3 2 1 1 1 1 1 0 0 0 0 0 0 0 0 0 0 0 0 0 0 0 0 0
0 0 0 0 0 0 0 1 2 3 2 2 3 5 5 4 4 6 8 8 7 6 4 3 4 4 4 4 2 1 0 0 0 0 0 0 0 0 0 0 0 0 0 0 0 0 0 0 0
0 0 0 0 0 0 0 1 3 3 3 2 4 6 7 6 7 9 10 10 8 6 4 5 6 6 6 5 2 0 0 0 0 0 0 0 0 0 0 0 0 0 0 0 0 0 0 0 0
0 0 0 0 0 0 0 1 3 3 3 2 3 4 7 9 10 11 12 11 8 5 5 6 7 7 6 5 3 1 0 0 0 0 0 0 0 0 0 0 0 0 0 0 0 0 0 0 0
0 0 0 0 0 0 0 1 1 2 2 1 1 3 7 12 13 14 15 13 9 6 6 7 7 6 6 7 5 3 1 1 0 0 0 0 0 0 0 0 0 0 0 0 0 0 0 0 0
0 0 0 0 0 0 0 0 0 1 2 1 1 2 9 14 16 16 16 15 12 8 7 8 6 5 6 7 6 5 4 2 0 0 1 1 0 0 0 0 0 0 0 0 0 0 0 0 0
0 0 0 0 0 0 0 0 0 0 1 1 1 4 10 16 17 15 15 16 14 10 7 7 5 4 4 6 6 6 5 3 1 1 2 2 1 0 0 0 0 0 0 0 0 0 0 0 0
0 0 0 0 0 0 0 0 0 0 0 1 3 6 12 17 14 11 13 17 16 11 8 6 5 4 4 6 6 6 6 4 3 2 3 2 1 0 0 0 0 0 0 0 0 0 0 0 0
0 0 0 0 0 0 0 0 0 0 0 2 6 8 12 14 12 9 12 16 16 12 9 7 6 5 4 6 6 6 6 6 4 3 3 2 1 0 0 0 0 0 0 0 0 0 0 0 0
0 0 0 0 0 0 0 0 1 1 1 4 8 11 12 12 11 9 12 14 14 12 10 8 6 4 4 5 6 6 6 5 4 3 3 2 1 0 0 0 0 0 0 0 0 0 0 0 0
0 0 0 0 0 0 0 0 1 2 3 5 9 10 12 12 10 9 11 13 13 11 10 8 6 4 4 5 6 6 5 4 3 3 2 1 0 0 0 0 0 0 0 0 0 0 0 0 0
0 0 0 0 0 0 0 0 1 1 3 5 7 9 11 13 13 11 12 12 11 10 9 8 6 4 4 5 6 6 6 5 3 1 1 0 0 0 0 0 0 0 0 0 0 0 0 0 0
0 0 0 0 0 0 0 0 0 1 3 5 6 8 11 16 17 16 14 13 11 8 7 6 5 4 4 5 5 4 4 4 2 1 0 0 0 0 0 0 0 0 0 0 0 0 0 0 0
0 0 0 0 0 0 0 0 1 2 5 6 6 8 12 17 20 19 17 14 11 8 6 5 5 5 4 4 2 2 2 2 1 0 0 0 0 0 0 0 0 0 0 0 0 0 0 0 0